| time (UTC) | temp C | wind direction | speed KPH | gust KPH | rain 1hr cm | rain 24hr cm | rain mn cm | humidity % | barometer mb |
| 20260906174000 | 26 | 226 | 16.1 | 25.7 | 0.00 | 0.00 | 0.00 | 75 | 1019.6 |
| 20260906173904 | 26 | 216 | 17.7 | 25.7 | 0.00 | 0.00 | 0.00 | 75 | 1019.6 |
| 20260906173813 | 26 | 224 | 17.7 | 25.7 | 0.00 | 0.00 | 0.00 | 76 | 1019.6 |
| 20260906173716 | 26 | 192 | 17.7 | 25.7 | 0.00 | 0.00 | 0.00 | 76 | 1019.6 |
| 20260906173622 | 26 | 192 | 16.1 | 20.9 | 0.00 | 0.00 | 0.00 | 75 | 1019.6 |
| 20260906173459 | 26 | 220 | 17.7 | 24.1 | 0.00 | 0.00 | 0.00 | 75 | 1019.7 |
| 20260906173404 | 26 | 221 | 19.3 | 24.1 | 0.00 | 0.00 | 0.00 | 75 | 1019.6 |
| 20260906173329 | 26 | 236 | 17.7 | 24.1 | 0.00 | 0.00 | 0.00 | 76 | 1019.6 |
| 20260906173157 | 26 | 199 | 14.5 | 24.1 | 0.00 | 0.00 | 0.00 | 76 | 1019.7 |
| 20260906173102 | 26 | 202 | 12.9 | 24.1 | 0.00 | 0.00 | 0.00 | 75 | 1019.6 |
| 20260906173026 | 26 | 218 | 14.5 | 24.1 | 0.00 | 0.00 | 0.00 | 74 | 1019.6 |
| 20260906172930 | 26 | 257 | 14.5 | 24.1 | 0.00 | 0.00 | 0.00 | 74 | 1019.6 |
| 20260906172812 | 26 | 274 | 14.5 | 24.1 | 0.00 | 0.00 | 0.00 | 75 | 1019.6 |
| 20260906172657 | 26 | 241 | 14.5 | 24.1 | 0.00 | 0.00 | 0.00 | 75 | 1019.7 |
| 20260906172602 | 26 | 189 | 14.5 | 17.7 | 0.00 | 0.00 | 0.00 | 74 | 1019.7 |
| 20260906172511 | 26 | 194 | 12.9 | 19.3 | 0.00 | 0.00 | 0.00 | 74 | 1019.7 |
| 20260906172416 | 26 | 234 | 11.3 | 19.3 | 0.00 | 0.00 | 0.00 | 75 | 1019.7 |
| 20260906172319 | 26 | 200 | 9.7 | 19.3 | 0.00 | 0.00 | 0.00 | 75 | 1019.7 |
| 20260906172243 | 26 | 217 | 11.3 | 19.3 | 0.00 | 0.00 | 0.00 | 76 | 1019.8 |
| 20260906172100 | 26 | 197 | 12.9 | 19.3 | 0.00 | 0.00 | 0.00 | 75 | 1019.7 |
| 20260906172025 | 26 | 240 | 11.3 | 19.3 | 0.00 | 0.00 | 0.00 | 76 | 1019.7 |
| 20260906171907 | 26 | 242 | 12.9 | 19.3 | 0.00 | 0.00 | 0.00 | 76 | 1019.7 |
| 20260906171816 | 26 | 289 | 12.9 | 19.3 | 0.00 | 0.00 | 0.00 | 76 | 1019.7 |
| 20260906171701 | 26 | 211 | 11.3 | 19.3 | 0.00 | 0.00 | 0.00 | 77 | 1019.7 |
| 20260906171626 | 25 | 215 | 11.3 | 19.3 | 0.00 | 0.00 | 0.00 | 76 | 1019.7 |
| 20260906171509 | 26 | 242 | 14.5 | 22.5 | 0.00 | 0.00 | 0.00 | 76 | 1019.7 |
| 20260906171414 | 26 | 233 | 14.5 | 22.5 | 0.00 | 0.00 | 0.00 | 76 | 1019.7 |
| 20260906171259 | 25 | 240 | 16.1 | 22.5 | 0.00 | 0.00 | 0.00 | 77 | 1019.8 |
| 20260906171206 | 25 | 210 | 16.1 | 22.5 | 0.00 | 0.00 | 0.00 | 77 | 1019.7 |
| 20260906171111 | 25 | 199 | 14.5 | 22.5 | 0.00 | 0.00 | 0.00 | 77 | 1019.7 |
| 20260906171036 | 25 | 247 | 14.5 | 22.5 | 0.00 | 0.00 | 0.00 | 77 | 1019.7 |
| 20260906170920 | 25 | 273 | 14.5 | 22.5 | 0.00 | 0.00 | 0.00 | 76 | 1019.8 |
| 20260906170758 | 25 | 244 | 16.1 | 22.5 | 0.00 | 0.00 | 0.00 | 77 | 1019.9 |
| 20260906170701 | 25 | 201 | 16.1 | 22.5 | 0.00 | 0.00 | 0.00 | 77 | 1019.8 |
| 20260906170605 | 25 | 217 | 14.5 | 22.5 | 0.00 | 0.00 | 0.00 | 77 | 1019.9 |
| 20260906170513 | 25 | 213 | 14.5 | 22.5 | 0.00 | 0.00 | 0.00 | 76 | 1019.9 |
| 20260906170418 | 25 | 225 | 14.5 | 22.5 | 0.00 | 0.00 | 0.00 | 78 | 1020.0 |
| 20260906170321 | 25 | 214 | 14.5 | 22.5 | 0.00 | 0.00 | 0.00 | 78 | 1020.0 |
| 20260906170157 | 25 | 212 | 16.1 | 22.5 | 0.00 | 0.00 | 0.00 | 78 | 1019.9 |
| 20260906170006 | 25 | 224 | 12.9 | 22.5 | 0.00 | 0.00 | 0.00 | 77 | 1020.0 |
| 20260906165931 | 25 | 200 | 12.9 | 22.5 | 0.00 | 0.00 | 0.00 | 78 | 1020.0 |
| 20260906165818 | 25 | 213 | 12.9 | 22.5 | 0.00 | 0.00 | 0.00 | 78 | 1020.0 |
| 20260906165743 | 25 | 213 | 12.9 | 22.5 | 0.00 | 0.00 | 0.00 | 77 | 1019.9 |
| 20260906165600 | 25 | 211 | 12.9 | 17.7 | 0.00 | 0.00 | 0.00 | 78 | 1020.0 |
| 20260906165525 | 25 | 197 | 12.9 | 19.3 | 0.00 | 0.00 | 0.00 | 78 | 1020.0 |
| 20260906165409 | 25 | 217 | 11.3 | 19.3 | 0.00 | 0.00 | 0.00 | 78 | 1020.0 |
| 20260906165314 | 25 | 202 | 11.3 | 19.3 | 0.00 | 0.00 | 0.00 | 78 | 1020.0 |
| 20260906165203 | 25 | 230 | 12.9 | 19.3 | 0.00 | 0.00 | 0.00 | 77 | 1020.0 |
| 20260906165108 | 25 | 186 | 12.9 | 19.3 | 0.00 | 0.00 | 0.00 | 78 | 1020.0 |
| 20260906165033 | 25 | 202 | 12.9 | 19.3 | 0.00 | 0.00 | 0.00 | 78 | 1019.9 |
| 20260906164857 | 25 | 182 | 11.3 | 19.3 | 0.00 | 0.00 | 0.00 | 78 | 1019.9 |
| 20260906164802 | 25 | 201 | 12.9 | 19.3 | 0.00 | 0.00 | 0.00 | 78 | 1019.9 |
| 20260906164705 | 25 | 192 | 12.9 | 19.3 | 0.00 | 0.00 | 0.00 | 78 | 1019.9 |
| 20260906164610 | 25 | 192 | 14.5 | 22.5 | 0.00 | 0.00 | 0.00 | 78 | 1019.9 |
| 20260906164458 | 25 | 229 | 16.1 | 20.9 | 0.00 | 0.00 | 0.00 | 78 | 1019.9 |
| 20260906164423 | 25 | 227 | 17.7 | 20.9 | 0.00 | 0.00 | 0.00 | 78 | 1019.9 |
| 20260906164300 | 25 | 237 | 14.5 | 20.9 | 0.00 | 0.00 | 0.00 | 80 | 1020.0 |
| 20260906164205 | 25 | 202 | 12.9 | 20.9 | 0.00 | 0.00 | 0.00 | 80 | 1020.0 |
| 20260906164110 | 25 | 199 | 12.9 | 20.9 | 0.00 | 0.00 | 0.00 | 80 | 1020.0 |
| 20260906163958 | 25 | 184 | 12.9 | 20.9 | 0.00 | 0.00 | 0.00 | 79 | 1020.1 |
| 20260906163903 | 25 | 194 | 14.5 | 20.9 | 0.00 | 0.00 | 0.00 | 79 | 1020.1 |
| 20260906163828 | 25 | 179 | 16.1 | 20.9 | 0.00 | 0.00 | 0.00 | 79 | 1020.1 |
| 20260906163713 | 25 | 198 | 16.1 | 20.9 | 0.00 | 0.00 | 0.00 | 79 | 1020.2 |
| 20260906163616 | 25 | 198 | 11.3 | 20.9 | 0.00 | 0.00 | 0.00 | 80 | 1020.2 |
| 20260906163521 | 25 | 214 | 11.3 | 19.3 | 0.00 | 0.00 | 0.00 | 79 | 1020.2 |
| 20260906163358 | 25 | 195 | 12.9 | 19.3 | 0.00 | 0.00 | 0.00 | 80 | 1020.1 |
| 20260906163307 | 25 | 194 | 11.3 | 20.9 | 0.00 | 0.00 | 0.00 | 80 | 1020.1 |
| 20260906163211 | 24 | 215 | 11.3 | 20.9 | 0.00 | 0.00 | 0.00 | 80 | 1020.1 |
| 20260906163135 | 24 | 247 | 14.5 | 20.9 | 0.00 | 0.00 | 0.00 | 80 | 1020.2 |
| 20260906163019 | 24 | 240 | 16.1 | 20.9 | 0.00 | 0.00 | 0.00 | 80 | 1020.2 |
| 20260906162903 | 24 | 238 | 14.5 | 19.3 | 0.00 | 0.00 | 0.00 | 80 | 1020.1 |
| 20260906162808 | 24 | 249 | 12.9 | 17.7 | 0.00 | 0.00 | 0.00 | 80 | 1020.1 |
| 20260906162657 | 24 | 264 | 11.3 | 19.3 | 0.00 | 0.00 | 0.00 | 80 | 1020.2 |
| 20260906162600 | 24 | 235 | 12.9 | 19.3 | 0.00 | 0.00 | 0.00 | 80 | 1020.2 |
| 20260906162505 | 24 | 217 | 14.5 | 19.3 | 0.00 | 0.00 | 0.00 | 80 | 1020.2 |
| 20260906162430 | 24 | 246 | 12.9 | 19.3 | 0.00 | 0.00 | 0.00 | 81 | 1020.2 |
| 20260906162314 | 24 | 233 | 11.3 | 19.3 | 0.00 | 0.00 | 0.00 | 80 | 1020.2 |
| 20260906162159 | 24 | 259 | 11.3 | 19.3 | 0.00 | 0.00 | 0.00 | 80 | 1020.2 |
| 20260906162105 | 24 | 218 | 14.5 | 19.3 | 0.00 | 0.00 | 0.00 | 79 | 1020.3 |
| 20260906162012 | 24 | 249 | 14.5 | 19.3 | 0.00 | 0.00 | 0.00 | 79 | 1020.3 |
| 20260906161857 | 24 | 228 | 12.9 | 20.9 | 0.00 | 0.00 | 0.00 | 81 | 1020.2 |
| 20260906161801 | 24 | 204 | 12.9 | 19.3 | 0.00 | 0.00 | 0.00 | 80 | 1020.2 |
| 20260906161705 | 24 | 250 | 14.5 | 19.3 | 0.00 | 0.00 | 0.00 | 80 | 1020.2 |
| 20260906161610 | 24 | 231 | 12.9 | 20.9 | 0.00 | 0.00 | 0.00 | 80 | 1020.2 |
| 20260906161458 | 24 | 223 | 11.3 | 17.7 | 0.00 | 0.00 | 0.00 | 81 | 1020.2 |
| 20260906161423 | 24 | 234 | 11.3 | 17.7 | 0.00 | 0.00 | 0.00 | 81 | 1020.3 |
| 20260906161307 | 24 | 207 | 12.9 | 17.7 | 0.00 | 0.00 | 0.00 | 81 | 1020.3 |
| 20260906161212 | 24 | 188 | 12.9 | 17.7 | 0.00 | 0.00 | 0.00 | 80 | 1020.3 |
| 20260906161116 | 24 | 172 | 11.3 | 19.3 | 0.00 | 0.00 | 0.00 | 81 | 1020.3 |
| 20260906161001 | 24 | 233 | 8.0 | 19.3 | 0.00 | 0.00 | 0.00 | 81 | 1020.4 |
| 20260906160904 | 24 | 206 | 9.7 | 19.3 | 0.00 | 0.00 | 0.00 | 82 | 1020.4 |
| 20260906160812 | 24 | 244 | 11.3 | 19.3 | 0.00 | 0.00 | 0.00 | 82 | 1020.4 |
| 20260906160657 | 24 | 224 | 12.9 | 19.3 | 0.00 | 0.00 | 0.00 | 82 | 1020.5 |
| 20260906160602 | 24 | 190 | 11.3 | 19.3 | 0.00 | 0.00 | 0.00 | 81 | 1020.5 |
| 20260906160507 | 24 | 262 | 11.3 | 19.3 | 0.00 | 0.00 | 0.00 | 81 | 1020.5 |
| 20260906160432 | 24 | 239 | 12.9 | 19.3 | 0.00 | 0.00 | 0.00 | 81 | 1020.5 |
| 20260906160316 | 24 | 254 | 11.3 | 19.3 | 0.00 | 0.00 | 0.00 | 82 | 1020.5 |
| 20260906160205 | 24 | 209 | 9.7 | 16.1 | 0.00 | 0.00 | 0.00 | 82 | 1020.5 |
| 20260906160110 | 24 | 233 | 9.7 | 16.1 | 0.00 | 0.00 | 0.00 | 82 | 1020.5 |
| 20260906160035 | 23 | 202 | 11.3 | 16.1 | 0.00 | 0.00 | 0.00 | 82 | 1020.5 |
| 20260906155919 | 23 | 227 | 11.3 | 16.1 | 0.00 | 0.00 | 0.00 | 82 | 1020.5 |
| 20260906155803 | 23 | 200 | 9.7 | 17.7 | 0.00 | 0.00 | 0.00 | 82 | 1020.5 |
| 20260906155706 | 23 | 254 | 9.7 | 17.7 | 0.00 | 0.00 | 0.00 | 82 | 1020.5 |
| 20260906155631 | 23 | 232 | 9.7 | 16.1 | 0.00 | 0.00 | 0.00 | 82 | 1020.5 |
| 20260906155459 | 23 | 215 | 11.3 | 16.1 | 0.00 | 0.00 | 0.00 | 82 | 1020.5 |
| 20260906155423 | 23 | 215 | 12.9 | 17.7 | 0.00 | 0.00 | 0.00 | 83 | 1020.5 |
| 20260906155259 | 23 | 227 | 12.9 | 17.7 | 0.00 | 0.00 | 0.00 | 84 | 1020.4 |
| 20260906155204 | 23 | 248 | 9.7 | 17.7 | 0.00 | 0.00 | 0.00 | 84 | 1020.3 |
| 20260906155109 | 23 | 311 | 9.7 | 19.3 | 0.00 | 0.00 | 0.00 | 84 | 1020.3 |
| 20260906155014 | 23 | 229 | 12.9 | 19.3 | 0.00 | 0.00 | 0.00 | 84 | 1020.3 |
| 20260906154903 | 23 | 232 | 11.3 | 19.3 | 0.00 | 0.00 | 0.00 | 84 | 1020.2 |
| 20260906154827 | 23 | 257 | 11.3 | 19.3 | 0.00 | 0.00 | 0.00 | 84 | 1020.2 |
| 20260906154711 | 23 | 239 | 9.7 | 19.3 | 0.00 | 0.00 | 0.00 | 84 | 1020.2 |
| 20260906154616 | 23 | 247 | 11.3 | 19.3 | 0.00 | 0.00 | 0.00 | 84 | 1020.1 |
| 20260906154521 | 23 | 242 | 12.9 | 19.3 | 0.00 | 0.00 | 0.00 | 85 | 1020.2 |
| 20260906154424 | 23 | 237 | 11.3 | 19.3 | 0.00 | 0.00 | 0.00 | 85 | 1020.2 |
| 20260906154308 | 23 | 194 | 9.7 | 19.3 | 0.00 | 0.00 | 0.00 | 86 | 1020.2 |
| 20260906154233 | 23 | 286 | 8.0 | 19.3 | 0.00 | 0.00 | 0.00 | 86 | 1020.1 |
| 20260906154120 | 23 | 249 | 9.7 | 19.3 | 0.00 | 0.00 | 0.00 | 86 | 1020.2 |
| 20260906153958 | 23 | 215 | 11.3 | 19.3 | 0.00 | 0.00 | 0.00 | 86 | 1020.1 |
| 20260906153922 | 23 | 226 | 12.9 | 19.3 | 0.00 | 0.00 | 0.00 | 86 | 1020.1 |
| 20260906153759 | 22 | 229 | 12.9 | 19.3 | 0.00 | 0.00 | 0.00 | 86 | 1020.3 |
| 20260906153723 | 22 | 222 | 12.9 | 19.3 | 0.00 | 0.00 | 0.00 | 86 | 1020.3 |
| 20260906153600 | 22 | 236 | 14.5 | 19.3 | 0.00 | 0.00 | 0.00 | 86 | 1020.3 |
| 20260906153508 | 22 | 200 | 12.9 | 19.3 | 0.00 | 0.00 | 0.00 | 86 | 1020.3 |
| 20260906153413 | 22 | 221 | 11.3 | 19.3 | 0.00 | 0.00 | 0.00 | 86 | 1020.3 |
| 20260906153318 | 22 | 276 | 11.3 | 16.1 | 0.00 | 0.00 | 0.00 | 86 | 1020.5 |
| 20260906153223 | 22 | 228 | 9.7 | 16.1 | 0.00 | 0.00 | 0.00 | 86 | 1020.5 |
| 20260906153100 | 22 | 227 | 9.7 | 17.7 | 0.00 | 0.00 | 0.00 | 86 | 1020.4 |
| 20260906153004 | 22 | 227 | 11.3 | 17.7 | 0.00 | 0.00 | 0.00 | 86 | 1020.5 |
| 20260906152908 | 22 | 247 | 11.3 | 17.7 | 0.00 | 0.00 | 0.00 | 87 | 1020.5 |
| 20260906152757 | 22 | 252 | 11.3 | 17.7 | 0.00 | 0.00 | 0.00 | 87 | 1020.5 |
| 20260906152702 | 22 | 230 | 11.3 | 17.7 | 0.00 | 0.00 | 0.00 | 87 | 1020.5 |
| 20260906152606 | 22 | 226 | 11.3 | 17.7 | 0.00 | 0.00 | 0.00 | 87 | 1020.5 |
| 20260906152511 | 22 | 208 | 11.3 | 17.7 | 0.00 | 0.00 | 0.00 | 87 | 1020.5 |
| 20260906152416 | 22 | 202 | 12.9 | 17.7 | 0.00 | 0.00 | 0.00 | 86 | 1020.5 |
| 20260906152307 | 22 | 229 | 12.9 | 19.3 | 0.00 | 0.00 | 0.00 | 87 | 1020.5 |
| 20260906152229 | 22 | 234 | 12.9 | 19.3 | 0.00 | 0.00 | 0.00 | 87 | 1020.5 |
| 20260906152113 | 22 | 227 | 12.9 | 19.3 | 0.00 | 0.00 | 0.00 | 87 | 1020.6 |
| 20260906152018 | 22 | 233 | 9.7 | 19.3 | 0.00 | 0.00 | 0.00 | 88 | 1020.6 |
| 20260906151922 | 22 | 243 | 11.3 | 19.3 | 0.00 | 0.00 | 0.00 | 88 | 1020.5 |
| 20260906151805 | 22 | 211 | 12.9 | 19.3 | 0.00 | 0.00 | 0.00 | 88 | 1020.5 |
| 20260906151710 | 22 | 228 | 12.9 | 19.3 | 0.00 | 0.00 | 0.00 | 88 | 1020.5 |
| 20260906151559 | 22 | 210 | 14.5 | 19.3 | 0.00 | 0.00 | 0.00 | 87 | 1020.5 |
| 20260906151523 | 22 | 249 | 14.5 | 19.3 | 0.00 | 0.00 | 0.00 | 87 | 1020.5 |
| 20260906151400 | 22 | 221 | 12.9 | 17.7 | 0.00 | 0.00 | 0.00 | 88 | 1020.5 |
| 20260906151305 | 22 | 225 | 11.3 | 17.7 | 0.00 | 0.00 | 0.00 | 88 | 1020.5 |
| 20260906151207 | 22 | 246 | 11.3 | 19.3 | 0.00 | 0.00 | 0.00 | 89 | 1020.5 |
| 20260906151111 | 22 | 209 | 9.7 | 19.3 | 0.00 | 0.00 | 0.00 | 89 | 1020.5 |
| 20260906151016 | 22 | 246 | 12.9 | 19.3 | 0.00 | 0.00 | 0.00 | 89 | 1020.5 |
| 20260906150923 | 22 | 234 | 12.9 | 19.3 | 0.00 | 0.00 | 0.00 | 89 | 1020.5 |
| 20260906150800 | 22 | 224 | 11.3 | 22.5 | 0.00 | 0.00 | 0.00 | 89 | 1020.5 |
| 20260906150705 | 22 | 197 | 9.7 | 22.5 | 0.00 | 0.00 | 0.00 | 89 | 1020.4 |
| 20260906150609 | 22 | 234 | 11.3 | 22.5 | 0.00 | 0.00 | 0.00 | 89 | 1020.4 |
| 20260906150533 | 22 | 196 | 12.9 | 22.5 | 0.00 | 0.00 | 0.00 | 89 | 1020.5 |
| 20260906150437 | 22 | 218 | 14.5 | 22.5 | 0.00 | 0.00 | 0.00 | 89 | 1020.5 |
| 20260906150321 | 22 | 231 | 11.3 | 22.5 | 0.00 | 0.00 | 0.00 | 90 | 1020.4 |
| 20260906150207 | 22 | 203 | 12.9 | 22.5 | 0.00 | 0.00 | 0.00 | 90 | 1020.4 |
| 20260906150131 | 22 | 202 | 12.9 | 22.5 | 0.00 | 0.00 | 0.00 | 90 | 1020.4 |
| 20260906150014 | 22 | 242 | 12.9 | 22.5 | 0.00 | 0.00 | 0.00 | 90 | 1020.3 |
| 20260906145859 | 21 | 213 | 11.3 | 17.7 | 0.00 | 0.00 | 0.00 | 90 | 1020.4 |
| 20260906145803 | 21 | 228 | 11.3 | 16.1 | 0.00 | 0.00 | 0.00 | 91 | 1020.3 |
| 20260906145727 | 21 | 238 | 11.3 | 16.1 | 0.00 | 0.00 | 0.00 | 91 | 1020.4 |
| 20260906145611 | 21 | 244 | 11.3 | 17.7 | 0.00 | 0.00 | 0.00 | 91 | 1020.4 |
| 20260906145520 | 21 | 227 | 9.7 | 16.1 | 0.00 | 0.00 | 0.00 | 91 | 1020.4 |
| 20260906145444 | 21 | 227 | 12.9 | 16.1 | 0.00 | 0.00 | 0.00 | 91 | 1020.4 |
| 20260906145300 | 21 | 198 | 12.9 | 16.1 | 0.00 | 0.00 | 0.00 | 91 | 1020.4 |
| 20260906145201 | 21 | 240 | 12.9 | 16.1 | 0.00 | 0.00 | 0.00 | 91 | 1020.4 |
| 20260906145104 | 21 | 263 | 14.5 | 16.1 | 0.00 | 0.00 | 0.00 | 91 | 1020.4 |
| 20260906145009 | 21 | 243 | 12.9 | 16.1 | 0.00 | 0.00 | 0.00 | 91 | 1020.4 |
| 20260906144914 | 21 | 241 | 9.7 | 16.1 | 0.00 | 0.00 | 0.00 | 92 | 1020.4 |
| 20260906144803 | 21 | 224 | 9.7 | 16.1 | 0.00 | 0.00 | 0.00 | 92 | 1020.5 |
| 20260906144707 | 21 | 215 | 12.9 | 16.1 | 0.00 | 0.00 | 0.00 | 92 | 1020.5 |
| 20260906144613 | 21 | 212 | 12.9 | 16.1 | 0.00 | 0.00 | 0.00 | 92 | 1020.4 |
| 20260906144516 | 21 | 210 | 9.7 | 16.1 | 0.00 | 0.00 | 0.00 | 92 | 1020.4 |
| 20260906144420 | 21 | 225 | 8.0 | 16.1 | 0.00 | 0.00 | 0.00 | 92 | 1020.4 |
| 20260906144257 | 21 | 232 | 8.0 | 16.1 | 0.00 | 0.00 | 0.00 | 92 | 1020.4 |
| 20260906144226 | 21 | 247 | 9.7 | 16.1 | 0.00 | 0.00 | 0.00 | 92 | 1020.4 |
| 20260906144128 | 21 | 228 | 12.9 | 16.1 | 0.00 | 0.00 | 0.00 | 92 | 1020.4 |
| 20260906144012 | 21 | 217 | 12.9 | 16.1 | 0.00 | 0.00 | 0.00 | 92 | 1020.4 |
| 20260906143916 | 21 | 194 | 12.9 | 16.1 | 0.00 | 0.00 | 0.00 | 92 | 1020.4 |
| 20260906143822 | 21 | 215 | 11.3 | 16.1 | 0.00 | 0.00 | 0.00 | 92 | 1020.4 |
| 20260906143700 | 21 | 219 | 11.3 | 16.1 | 0.00 | 0.00 | 0.00 | 92 | 1020.4 |
| 20260906143605 | 21 | 231 | 11.3 | 19.3 | 0.00 | 0.00 | 0.00 | 92 | 1020.5 |
| 20260906143514 | 21 | 218 | 11.3 | 19.3 | 0.00 | 0.00 | 0.00 | 92 | 1020.5 |
| 20260906143419 | 21 | 213 | 12.9 | 19.3 | 0.00 | 0.00 | 0.00 | 92 | 1020.4 |
| 20260906143323 | 21 | 199 | 11.3 | 19.3 | 0.00 | 0.00 | 0.00 | 92 | 1020.4 |
| 20260906143200 | 21 | 194 | 12.9 | 19.3 | 0.00 | 0.00 | 0.00 | 92 | 1020.4 |
| 20260906143104 | 21 | 213 | 14.5 | 19.3 | 0.00 | 0.00 | 0.00 | 92 | 1020.4 |
| 20260906143008 | 21 | 187 | 12.9 | 19.3 | 0.00 | 0.00 | 0.00 | 92 | 1020.4 |
| 20260906142916 | 21 | 202 | 12.9 | 19.3 | 0.00 | 0.00 | 0.00 | 92 | 1020.4 |
| 20260906142801 | 21 | 205 | 16.1 | 19.3 | 0.00 | 0.00 | 0.00 | 91 | 1020.4 |
| 20260906142705 | 21 | 194 | 14.5 | 19.3 | 0.00 | 0.00 | 0.00 | 92 | 1020.5 |
| 20260906142610 | 21 | 186 | 14.5 | 19.3 | 0.00 | 0.00 | 0.00 | 92 | 1020.5 |
| 20260906142535 | 21 | 198 | 12.9 | 16.1 | 0.00 | 0.00 | 0.00 | 92 | 1020.4 |
| 20260906142359 | 21 | 209 | 14.5 | 16.1 | 0.00 | 0.00 | 0.00 | 92 | 1020.4 |
| 20260906142323 | 21 | 186 | 12.9 | 17.7 | 0.00 | 0.00 | 0.00 | 92 | 1020.4 |
| 20260906142211 | 21 | 192 | 11.3 | 14.5 | 0.00 | 0.00 | 0.00 | 92 | 1020.4 |
| 20260906142116 | 21 | 218 | 11.3 | 14.5 | 0.00 | 0.00 | 0.00 | 92 | 1020.3 |
| 20260906142001 | 21 | 194 | 9.7 | 12.9 | 0.00 | 0.00 | 0.00 | 92 | 1020.4 |
| 20260906141905 | 21 | 192 | 9.7 | 14.5 | 0.00 | 0.00 | 0.00 | 92 | 1020.4 |
| 20260906141810 | 21 | 217 | 8.0 | 14.5 | 0.00 | 0.00 | 0.00 | 92 | 1020.4 |
| 20260906141658 | 21 | 227 | 9.7 | 16.1 | 0.00 | 0.00 | 0.00 | 92 | 1020.4 |
| 20260906141622 | 21 | 229 | 9.7 | 16.1 | 0.00 | 0.00 | 0.00 | 92 | 1020.4 |
| 20260906141459 | 21 | 231 | 9.7 | 16.1 | 0.00 | 0.00 | 0.00 | 92 | 1020.4 |
| 20260906141404 | 21 | 234 | 9.7 | 16.1 | 0.00 | 0.00 | 0.00 | 92 | 1020.3 |
| 20260906141327 | 21 | 220 | 9.7 | 16.1 | 0.00 | 0.00 | 0.00 | 92 | 1020.3 |
| 20260906141231 | 21 | 219 | 11.3 | 16.1 | 0.00 | 0.00 | 0.00 | 92 | 1020.3 |
| 20260906141114 | 21 | 217 | 11.3 | 16.1 | 0.00 | 0.00 | 0.00 | 93 | 1020.3 |
| 20260906141003 | 21 | 201 | 9.7 | 16.1 | 0.00 | 0.00 | 0.00 | 93 | 1020.3 |
| 20260906140907 | 21 | 213 | 9.7 | 16.1 | 0.00 | 0.00 | 0.00 | 93 | 1020.3 |
| 20260906140811 | 21 | 198 | 11.3 | 16.1 | 0.00 | 0.00 | 0.00 | 93 | 1020.3 |
| 20260906140716 | 21 | 209 | 12.9 | 16.1 | 0.00 | 0.00 | 0.00 | 93 | 1020.3 |
| 20260906140621 | 21 | 232 | 9.7 | 16.1 | 0.00 | 0.00 | 0.00 | 93 | 1020.4 |
| 20260906140504 | 21 | 246 | 8.0 | 17.7 | 0.00 | 0.00 | 0.00 | 93 | 1020.4 |
| 20260906140408 | 21 | 228 | 8.0 | 17.7 | 0.00 | 0.00 | 0.00 | 93 | 1020.4 |
| 20260906140317 | 21 | 204 | 9.7 | 17.7 | 0.00 | 0.00 | 0.00 | 93 | 1020.3 |
| 20260906140201 | 21 | 225 | 11.3 | 17.7 | 0.00 | 0.00 | 0.00 | 93 | 1020.3 |
| 20260906140124 | 21 | 192 | 9.7 | 17.7 | 0.00 | 0.00 | 0.00 | 93 | 1020.4 |
| 20260906140008 | 21 | 267 | 9.7 | 17.7 | 0.00 | 0.00 | 0.00 | 93 | 1020.4 |
| 20260906135913 | 21 | 227 | 11.3 | 17.7 | 0.00 | 0.00 | 0.00 | 93 | 1020.3 |
| 20260906135837 | 21 | 260 | 11.3 | 17.7 | 0.00 | 0.00 | 0.00 | 93 | 1020.2 |
| 20260906135704 | 21 | 229 | 12.9 | 17.7 | 0.00 | 0.00 | 0.00 | 93 | 1020.3 |
| 20260906135629 | 21 | 228 | 11.3 | 17.7 | 0.00 | 0.00 | 0.00 | 93 | 1020.3 |
| 20260906135512 | 21 | 223 | 8.0 | 19.3 | 0.00 | 0.00 | 0.00 | 93 | 1020.3 |
| 20260906135416 | 21 | 252 | 6.4 | 16.1 | 0.00 | 0.00 | 0.00 | 94 | 1020.3 |
| 20260906135321 | 21 | 229 | 9.7 | 16.1 | 0.00 | 0.00 | 0.00 | 94 | 1020.3 |
| 20260906135224 | 21 | 239 | 9.7 | 16.1 | 0.00 | 0.00 | 0.00 | 94 | 1020.2 |
| 20260906135106 | 21 | 254 | 9.7 | 16.1 | 0.00 | 0.00 | 0.00 | 94 | 1020.2 |
| 20260906135010 | 21 | 227 | 9.7 | 16.1 | 0.00 | 0.00 | 0.00 | 94 | 1020.2 |
| 20260906134859 | 21 | 267 | 11.3 | 16.1 | 0.00 | 0.00 | 0.00 | 94 | 1020.2 |
| 20260906134803 | 21 | 229 | 11.3 | 16.1 | 0.00 | 0.00 | 0.00 | 94 | 1020.2 |
| 20260906134707 | 21 | 213 | 9.7 | 14.5 | 0.00 | 0.00 | 0.00 | 94 | 1020.1 |
| 20260906134630 | 21 | 212 | 11.3 | 14.5 | 0.00 | 0.00 | 0.00 | 94 | 1020.1 |
| 20260906134534 | 21 | 221 | 9.7 | 14.5 | 0.00 | 0.00 | 0.00 | 94 | 1020.2 |
| 20260906134416 | 21 | 202 | 8.0 | 14.5 | 0.00 | 0.00 | 0.00 | 94 | 1020.2 |
| 20260906134301 | 21 | 205 | 9.7 | 14.5 | 0.00 | 0.00 | 0.00 | 94 | 1020.2 |
| 20260906134209 | 21 | 196 | 9.7 | 14.5 | 0.00 | 0.00 | 0.00 | 94 | 1020.2 |
| 20260906134135 | 21 | 209 | 8.0 | 14.5 | 0.00 | 0.00 | 0.00 | 94 | 1020.1 |
| 20260906133958 | 21 | 217 | 9.7 | 14.5 | 0.00 | 0.00 | 0.00 | 94 | 1020.2 |
| 20260906133903 | 21 | 198 | 9.7 | 14.5 | 0.00 | 0.00 | 0.00 | 95 | 1020.1 |
| 20260906133808 | 21 | 238 | 9.7 | 14.5 | 0.00 | 0.00 | 0.00 | 95 | 1020.1 |
| 20260906133713 | 21 | 238 | 9.7 | 14.5 | 0.00 | 0.00 | 0.00 | 95 | 1020.1 |
| 20260906133600 | 21 | 197 | 9.7 | 14.5 | 0.00 | 0.00 | 0.00 | 95 | 1020.1 |
| 20260906133505 | 21 | 211 | 9.7 | 14.5 | 0.00 | 0.00 | 0.00 | 95 | 1020.0 |
| 20260906133410 | 21 | 209 | 9.7 | 14.5 | 0.00 | 0.00 | 0.00 | 95 | 1020.0 |
| 20260906133315 | 21 | 195 | 9.7 | 12.9 | 0.00 | 0.00 | 0.00 | 95 | 1020.0 |
| 20260906133220 | 21 | 201 | 9.7 | 12.9 | 0.00 | 0.00 | 0.00 | 95 | 1020.0 |
| 20260906133104 | 21 | 205 | 8.0 | 12.9 | 0.00 | 0.00 | 0.00 | 95 | 1020.0 |
| 20260906133008 | 20 | 242 | 6.4 | 12.9 | 0.00 | 0.00 | 0.00 | 96 | 1020.0 |
| 20260906132937 | 20 | 192 | 6.4 | 12.9 | 0.00 | 0.00 | 0.00 | 95 | 1020.1 |
| 20260906132800 | 20 | 184 | 9.7 | 12.9 | 0.00 | 0.00 | 0.00 | 96 | 1019.9 |
| 20260906132705 | 20 | 199 | 9.7 | 12.9 | 0.00 | 0.00 | 0.00 | 95 | 1020.0 |
| 20260906132630 | 20 | 190 | 9.7 | 12.9 | 0.00 | 0.00 | 0.00 | 96 | 1020.0 |
| 20260906132533 | 20 | 207 | 9.7 | 12.9 | 0.00 | 0.00 | 0.00 | 96 | 1020.0 |
| 20260906132416 | 20 | 211 | 9.7 | 12.9 | 0.00 | 0.00 | 0.00 | 96 | 1020.0 |
| 20260906132301 | 20 | 196 | 9.7 | 12.9 | 0.00 | 0.00 | 0.00 | 96 | 1020.0 |
| 20260906132229 | 20 | 199 | 9.7 | 12.9 | 0.00 | 0.00 | 0.00 | 96 | 1020.0 |
| 20260906132133 | 20 | 205 | 8.0 | 12.9 | 0.00 | 0.00 | 0.00 | 96 | 1019.9 |
| 20260906132037 | 20 | 202 | 8.0 | 12.9 | 0.00 | 0.00 | 0.00 | 96 | 1019.9 |
| 20260906131921 | 20 | 205 | 9.7 | 12.9 | 0.00 | 0.00 | 0.00 | 96 | 1019.9 |
| 20260906131804 | 20 | 200 | 11.3 | 12.9 | 0.00 | 0.00 | 0.00 | 96 | 1019.9 |
| 20260906131708 | 20 | 205 | 9.7 | 12.9 | 0.00 | 0.00 | 0.00 | 96 | 1019.9 |
| 20260906131613 | 20 | 190 | 8.0 | 11.3 | 0.00 | 0.00 | 0.00 | 96 | 1020.0 |
| 20260906131502 | 20 | 192 | 8.0 | 12.9 | 0.00 | 0.00 | 0.00 | 96 | 1020.0 |
| 20260906131427 | 20 | 198 | 8.0 | 12.9 | 0.00 | 0.00 | 0.00 | 96 | 1019.9 |
| 20260906131331 | 20 | 212 | 8.0 | 12.9 | 0.00 | 0.00 | 0.00 | 96 | 1019.9 |
| 20260906131234 | 20 | 202 | 9.7 | 12.9 | 0.00 | 0.00 | 0.00 | 96 | 1020.0 |
| 20260906131057 | 20 | 204 | 9.7 | 12.9 | 0.00 | 0.00 | 0.00 | 96 | 1020.0 |
| 20260906131001 | 20 | 189 | 8.0 | 12.9 | 0.00 | 0.00 | 0.00 | 96 | 1019.9 |
| 20260906130905 | 20 | 201 | 8.0 | 12.9 | 0.00 | 0.00 | 0.00 | 96 | 1019.9 |
| 20260906130810 | 20 | 200 | 8.0 | 12.9 | 0.00 | 0.00 | 0.00 | 96 | 1019.9 |
| 20260906130718 | 20 | 197 | 9.7 | 12.9 | 0.00 | 0.00 | 0.00 | 96 | 1019.9 |
| 20260906130600 | 20 | 192 | 9.7 | 12.9 | 0.00 | 0.00 | 0.00 | 96 | 1019.9 |
| 20260906130505 | 20 | 186 | 9.7 | 12.9 | 0.00 | 0.00 | 0.00 | 96 | 1019.9 |
| 20260906130410 | 20 | 201 | 9.7 | 12.9 | 0.00 | 0.00 | 0.00 | 96 | 1019.9 |
| 20260906130314 | 20 | 209 | 8.0 | 12.9 | 0.00 | 0.00 | 0.00 | 96 | 1019.9 |
| 20260906130159 | 20 | 192 | 8.0 | 12.9 | 0.00 | 0.00 | 0.00 | 96 | 1020.0 |
| 20260906130108 | 20 | 194 | 8.0 | 12.9 | 0.00 | 0.00 | 0.00 | 96 | 1020.0 |
| 20260906130012 | 20 | 186 | 9.7 | 12.9 | 0.00 | 0.00 | 0.00 | 97 | 1020.0 |
| 20260906125857 | 20 | 193 | 8.0 | 12.9 | 0.00 | 0.00 | 0.00 | 96 | 1020.0 |
| 20260906125802 | 20 | 199 | 8.0 | 12.9 | 0.00 | 0.00 | 0.00 | 97 | 1019.9 |
| 20260906125707 | 20 | 201 | 8.0 | 12.9 | 0.00 | 0.00 | 0.00 | 97 | 1019.9 |
| 20260906125612 | 20 | 204 | 8.0 | 12.9 | 0.00 | 0.00 | 0.00 | 97 | 1020.0 |
| 20260906125521 | 20 | 196 | 9.7 | 12.9 | 0.00 | 0.00 | 0.00 | 97 | 1020.0 |
| 20260906125404 | 20 | 194 | 8.0 | 12.9 | 0.00 | 0.00 | 0.00 | 97 | 1020.0 |
| 20260906125306 | 20 | 200 | 8.0 | 12.9 | 0.00 | 0.00 | 0.00 | 97 | 1019.9 |
| 20260906125209 | 20 | 199 | 8.0 | 12.9 | 0.00 | 0.00 | 0.00 | 97 | 1019.9 |
| 20260906125134 | 20 | 178 | 8.0 | 11.3 | 0.00 | 0.00 | 0.00 | 97 | 1020.0 |
| 20260906125018 | 20 | 184 | 8.0 | 11.3 | 0.00 | 0.00 | 0.00 | 97 | 1020.0 |
| 20260906124901 | 20 | 184 | 6.4 | 11.3 | 0.00 | 0.00 | 0.00 | 97 | 1019.9 |
| 20260906124810 | 20 | 187 | 6.4 | 11.3 | 0.00 | 0.00 | 0.00 | 97 | 1019.9 |
| 20260906124735 | 20 | 188 | 6.4 | 11.3 | 0.00 | 0.00 | 0.00 | 97 | 1019.9 |
| 20260906124617 | 20 | 194 | 8.0 | 11.3 | 0.00 | 0.00 | 0.00 | 97 | 1019.9 |
| 20260906124501 | 20 | 194 | 8.0 | 11.3 | 0.00 | 0.00 | 0.00 | 97 | 1019.9 |
| 20260906124426 | 20 | 199 | 8.0 | 11.3 | 0.00 | 0.00 | 0.00 | 97 | 1019.9 |
| 20260906124310 | 20 | 197 | 6.4 | 9.7 | 0.00 | 0.00 | 0.00 | 97 | 1019.9 |
| 20260906124213 | 20 | 197 | 6.4 | 9.7 | 0.00 | 0.00 | 0.00 | 97 | 1019.9 |
| 20260906124102 | 20 | 197 | 6.4 | 9.7 | 0.00 | 0.00 | 0.00 | 97 | 1019.9 |
| 20260906124005 | 20 | 192 | 6.4 | 9.7 | 0.00 | 0.00 | 0.00 | 97 | 1019.9 |
| 20260906123909 | 20 | 192 | 6.4 | 9.7 | 0.00 | 0.00 | 0.00 | 97 | 1019.9 |
| 20260906123832 | 20 | 192 | 6.4 | 8.0 | 0.00 | 0.00 | 0.00 | 97 | 1019.9 |
| 20260906123716 | 20 | 193 | 4.8 | 8.0 | 0.00 | 0.00 | 0.00 | 97 | 1020.0 |
| 20260906123600 | 20 | 194 | 6.4 | 8.0 | 0.00 | 0.00 | 0.00 | 97 | 1019.9 |
| 20260906123509 | 20 | 194 | 6.4 | 8.0 | 0.00 | 0.00 | 0.00 | 97 | 1019.9 |
| 20260906123413 | 20 | 194 | 6.4 | 8.0 | 0.00 | 0.00 | 0.00 | 97 | 1020.0 |
| 20260906123258 | 20 | 202 | 6.4 | 8.0 | 0.00 | 0.00 | 0.00 | 97 | 1020.1 |
| 20260906123203 | 19 | 202 | 6.4 | 8.0 | 0.00 | 0.00 | 0.00 | 97 | 1019.9 |
| 20260906123108 | 19 | 199 | 4.8 | 8.0 | 0.00 | 0.00 | 0.00 | 97 | 1019.9 |
| 20260906123032 | 19 | 203 | 4.8 | 8.0 | 0.00 | 0.00 | 0.00 | 97 | 1020.0 |
| 20260906122900 | 19 | 203 | 4.8 | 8.0 | 0.00 | 0.00 | 0.00 | 97 | 1020.0 |
| 20260906122804 | 19 | 203 | 4.8 | 8.0 | 0.00 | 0.00 | 0.00 | 97 | 1019.9 |
| 20260906122709 | 19 | 204 | 4.8 | 8.0 | 0.00 | 0.00 | 0.00 | 97 | 1019.9 |
| 20260906122634 | 19 | 204 | 4.8 | 8.0 | 0.00 | 0.00 | 0.00 | 97 | 1020.0 |
| 20260906122459 | 19 | 204 | 4.8 | 9.7 | 0.00 | 0.00 | 0.00 | 97 | 1019.9 |
| 20260906122402 | 19 | 205 | 3.2 | 9.7 | 0.00 | 0.00 | 0.00 | 97 | 1019.9 |
| 20260906122327 | 19 | 205 | 4.8 | 9.7 | 0.00 | 0.00 | 0.00 | 97 | 1019.8 |
| 20260906122209 | 19 | 205 | 4.8 | 9.7 | 0.00 | 0.00 | 0.00 | 97 | 1019.8 |
| 20260906122119 | 19 | 205 | 4.8 | 9.7 | 0.00 | 0.00 | 0.00 | 97 | 1019.8 |
| 20260906122002 | 19 | 206 | 6.4 | 9.7 | 0.00 | 0.00 | 0.00 | 97 | 1019.8 |
| 20260906121907 | 19 | 205 | 6.4 | 9.7 | 0.00 | 0.00 | 0.00 | 97 | 1019.8 |
| 20260906121812 | 19 | 205 | 6.4 | 9.7 | 0.00 | 0.00 | 0.00 | 97 | 1019.8 |
| 20260906121716 | 19 | 205 | 6.4 | 9.7 | 0.00 | 0.00 | 0.00 | 97 | 1019.8 |
| 20260906121601 | 19 | 203 | 6.4 | 9.7 | 0.00 | 0.00 | 0.00 | 97 | 1019.6 |
| 20260906121509 | 19 | 203 | 6.4 | 9.7 | 0.00 | 0.00 | 0.00 | 97 | 1019.6 |
| 20260906121413 | 19 | 215 | 4.8 | 8.0 | 0.00 | 0.00 | 0.00 | 97 | 1019.7 |
| 20260906121318 | 18 | 205 | 4.8 | 8.0 | 0.00 | 0.00 | 0.00 | 97 | 1019.7 |
| 20260906121202 | 18 | 205 | 4.8 | 8.0 | 0.00 | 0.00 | 0.00 | 97 | 1019.7 |
| 20260906121127 | 18 | 205 | 4.8 | 8.0 | 0.00 | 0.00 | 0.00 | 97 | 1019.7 |
| 20260906121010 | 18 | 205 | 4.8 | 8.0 | 0.00 | 0.00 | 0.00 | 97 | 1019.7 |
| 20260906120935 | 18 | 205 | 4.8 | 8.0 | 0.00 | 0.00 | 0.00 | 97 | 1019.8 |
| 20260906120803 | 18 | 205 | 4.8 | 8.0 | 0.00 | 0.00 | 0.00 | 97 | 1019.7 |
| 20260906120728 | 18 | 205 | 4.8 | 6.4 | 0.00 | 0.00 | 0.00 | 97 | 1019.7 |
| 20260906120610 | 18 | 205 | 3.2 | 4.8 | 0.00 | 0.00 | 0.00 | 96 | 1019.7 |
| 20260906120534 | 18 | 205 | 3.2 | 4.8 | 0.00 | 0.00 | 0.00 | 96 | 1019.7 |
| 20260906120358 | 18 | 205 | 3.2 | 4.8 | 0.00 | 0.00 | 0.00 | 96 | 1019.7 |
| 20260906120303 | 18 | 205 | 3.2 | 4.8 | 0.00 | 0.00 | 0.00 | 96 | 1019.7 |
| 20260906120206 | 18 | 205 | 3.2 | 4.8 | 0.00 | 0.00 | 0.00 | 97 | 1019.7 |
| 20260906120114 | 18 | 205 | 4.8 | 4.8 | 0.00 | 0.00 | 0.00 | 97 | 1019.7 |
| 20260906115959 | 18 | 205 | 4.8 | 4.8 | 0.00 | 0.00 | 0.00 | 97 | 1019.7 |
| 20260906115923 | 18 | 205 | 4.8 | 4.8 | 0.00 | 0.00 | 0.00 | 97 | 1019.6 |
| 20260906115807 | 18 | 205 | 3.2 | 4.8 | 0.00 | 0.00 | 0.00 | 97 | 1019.6 |
| 20260906115712 | 18 | 205 | 3.2 | 4.8 | 0.00 | 0.00 | 0.00 | 97 | 1019.6 |
| 20260906115637 | 18 | 205 | 3.2 | 4.8 | 0.00 | 0.00 | 0.00 | 96 | 1019.6 |
| 20260906115504 | 18 | 205 | 3.2 | 4.8 | 0.00 | 0.00 | 0.00 | 96 | 1019.7 |
| 20260906115409 | 18 | 205 | 3.2 | 4.8 | 0.00 | 0.00 | 0.00 | 96 | 1019.7 |
| 20260906115314 | 18 | 205 | 3.2 | 4.8 | 0.00 | 0.00 | 0.00 | 96 | 1019.7 |
| 20260906115158 | 18 | 205 | 3.2 | 4.8 | 0.00 | 0.00 | 0.00 | 96 | 1019.7 |
| 20260906115103 | 18 | 205 | 3.2 | 4.8 | 0.00 | 0.00 | 0.00 | 96 | 1019.7 |
| 20260906115026 | 18 | 205 | 3.2 | 4.8 | 0.00 | 0.00 | 0.00 | 96 | 1019.6 |
| 20260906114910 | 18 | 205 | 3.2 | 4.8 | 0.00 | 0.00 | 0.00 | 96 | 1019.6 |
| 20260906114758 | 18 | 205 | 3.2 | 4.8 | 0.00 | 0.00 | 0.00 | 96 | 1019.6 |
| 20260906114703 | 18 | 205 | 3.2 | 4.8 | 0.00 | 0.00 | 0.00 | 96 | 1019.6 |
| 20260906114628 | 18 | 205 | 3.2 | 4.8 | 0.00 | 0.00 | 0.00 | 96 | 1019.6 |
| 20260906114512 | 18 | 205 | 3.2 | 4.8 | 0.00 | 0.00 | 0.00 | 96 | 1019.5 |
| 20260906114416 | 18 | 205 | 3.2 | 4.8 | 0.00 | 0.00 | 0.00 | 96 | 1019.6 |
| 20260906114301 | 18 | 205 | 3.2 | 4.8 | 0.00 | 0.00 | 0.00 | 96 | 1019.5 |
| 20260906114210 | 19 | 205 | 3.2 | 4.8 | 0.00 | 0.00 | 0.00 | 97 | 1019.5 |
| 20260906114114 | 19 | 205 | 3.2 | 4.8 | 0.00 | 0.00 | 0.00 | 97 | 1019.5 |
| 20260906113959 | 19 | 205 | 3.2 | 4.8 | 0.00 | 0.00 | 0.00 | 97 | 1019.5 |
| 20260906113904 | 18 | 205 | 1.6 | 4.8 | 0.00 | 0.00 | 0.00 | 97 | 1019.5 |
| 20260906113809 | 18 | 205 | 3.2 | 4.8 | 0.00 | 0.00 | 0.00 | 97 | 1019.5 |
| 20260906113658 | 18 | 205 | 3.2 | 4.8 | 0.00 | 0.00 | 0.00 | 97 | 1019.5 |
| 20260906113602 | 18 | 205 | 3.2 | 4.8 | 0.00 | 0.00 | 0.00 | 97 | 1019.5 |
| 20260906113507 | 18 | 205 | 3.2 | 4.8 | 0.00 | 0.00 | 0.00 | 96 | 1019.5 |
| 20260906113432 | 18 | 205 | 3.2 | 4.8 | 0.00 | 0.00 | 0.00 | 96 | 1019.5 |
| 20260906113335 | 18 | 205 | 3.2 | 4.8 | 0.00 | 0.00 | 0.00 | 96 | 1019.4 |
| 20260906113218 | 18 | 205 | 3.2 | 4.8 | 0.00 | 0.00 | 0.00 | 96 | 1019.4 |
| 20260906113122 | 18 | 205 | 3.2 | 4.8 | 0.00 | 0.00 | 0.00 | 96 | 1019.4 |
| 20260906112959 | 18 | 205 | 3.2 | 4.8 | 0.00 | 0.00 | 0.00 | 96 | 1019.4 |
| 20260906112904 | 18 | 205 | 3.2 | 4.8 | 0.00 | 0.00 | 0.00 | 96 | 1019.4 |
| 20260906112809 | 18 | 205 | 3.2 | 4.8 | 0.00 | 0.00 | 0.00 | 96 | 1019.4 |
| 20260906112714 | 18 | 205 | 3.2 | 6.4 | 0.00 | 0.00 | 0.00 | 96 | 1019.4 |
| 20260906112559 | 18 | 205 | 3.2 | 6.4 | 0.00 | 0.00 | 0.00 | 96 | 1019.4 |
| 20260906112523 | 18 | 205 | 3.2 | 6.4 | 0.00 | 0.00 | 0.00 | 96 | 1019.4 |
| 20260906112426 | 18 | 205 | 3.2 | 6.4 | 0.00 | 0.00 | 0.00 | 96 | 1019.4 |
| 20260906112330 | 19 | 205 | 3.2 | 6.4 | 0.00 | 0.00 | 0.00 | 96 | 1019.4 |
| 20260906112158 | 19 | 205 | 3.2 | 6.4 | 0.00 | 0.00 | 0.00 | 96 | 1019.4 |
| 20260906112103 | 19 | 205 | 3.2 | 6.4 | 0.00 | 0.00 | 0.00 | 96 | 1019.4 |
| 20260906112008 | 19 | 205 | 4.8 | 6.4 | 0.00 | 0.00 | 0.00 | 96 | 1019.4 |
| 20260906111913 | 19 | 205 | 4.8 | 6.4 | 0.00 | 0.00 | 0.00 | 96 | 1019.4 |
| 20260906111758 | 19 | 205 | 3.2 | 6.4 | 0.00 | 0.00 | 0.00 | 96 | 1019.4 |
| 20260906111702 | 19 | 205 | 3.2 | 6.4 | 0.00 | 0.00 | 0.00 | 96 | 1019.4 |
| 20260906111610 | 19 | 205 | 3.2 | 6.4 | 0.00 | 0.00 | 0.00 | 96 | 1019.4 |
| 20260906111515 | 19 | 205 | 4.8 | 8.0 | 0.00 | 0.00 | 0.00 | 96 | 1019.4 |
| 20260906111400 | 19 | 205 | 4.8 | 8.0 | 0.00 | 0.00 | 0.00 | 96 | 1019.4 |
| 20260906111325 | 19 | 205 | 4.8 | 8.0 | 0.00 | 0.00 | 0.00 | 96 | 1019.3 |
| 20260906111209 | 19 | 205 | 4.8 | 8.0 | 0.00 | 0.00 | 0.00 | 96 | 1019.3 |
| 20260906111113 | 19 | 204 | 4.8 | 8.0 | 0.00 | 0.00 | 0.00 | 96 | 1019.2 |
| 20260906111002 | 19 | 204 | 4.8 | 8.0 | 0.00 | 0.00 | 0.00 | 96 | 1019.2 |
| 20260906110906 | 19 | 204 | 4.8 | 8.0 | 0.00 | 0.00 | 0.00 | 96 | 1019.4 |
| 20260906110811 | 19 | 203 | 6.4 | 8.0 | 0.00 | 0.00 | 0.00 | 96 | 1019.4 |
| 20260906110716 | 19 | 200 | 6.4 | 6.4 | 0.00 | 0.00 | 0.00 | 96 | 1019.3 |
| 20260906110620 | 19 | 200 | 4.8 | 6.4 | 0.00 | 0.00 | 0.00 | 96 | 1019.2 |
| 20260906110524 | 19 | 200 | 4.8 | 6.4 | 0.00 | 0.00 | 0.00 | 96 | 1019.3 |
| 20260906110426 | 19 | 200 | 4.8 | 6.4 | 0.00 | 0.00 | 0.00 | 96 | 1019.3 |
| 20260906110330 | 19 | 200 | 4.8 | 6.4 | 0.00 | 0.00 | 0.00 | 96 | 1019.3 |
| 20260906110158 | 19 | 199 | 4.8 | 6.4 | 0.00 | 0.00 | 0.00 | 96 | 1019.3 |
| 20260906110027 | 19 | 199 | 4.8 | 6.4 | 0.00 | 0.00 | 0.00 | 96 | 1019.2 |
| 20260906105911 | 19 | 199 | 4.8 | 6.4 | 0.00 | 0.00 | 0.00 | 96 | 1019.2 |
| 20260906105814 | 19 | 199 | 4.8 | 6.4 | 0.00 | 0.00 | 0.00 | 95 | 1019.3 |
| 20260906105659 | 19 | 199 | 4.8 | 4.8 | 0.00 | 0.00 | 0.00 | 95 | 1019.2 |
| 20260906105624 | 19 | 199 | 4.8 | 6.4 | 0.00 | 0.00 | 0.00 | 95 | 1019.3 |
| 20260906105512 | 19 | 199 | 4.8 | 6.4 | 0.00 | 0.00 | 0.00 | 95 | 1019.3 |
| 20260906105357 | 19 | 199 | 4.8 | 6.4 | 0.00 | 0.00 | 0.00 | 96 | 1019.2 |
| 20260906105321 | 19 | 199 | 4.8 | 6.4 | 0.00 | 0.00 | 0.00 | 96 | 1019.2 |
| 20260906105225 | 19 | 199 | 3.2 | 6.4 | 0.00 | 0.00 | 0.00 | 96 | 1019.2 |
| 20260906105108 | 19 | 199 | 3.2 | 6.4 | 0.00 | 0.00 | 0.00 | 96 | 1019.2 |
| 20260906105013 | 19 | 199 | 3.2 | 6.4 | 0.00 | 0.00 | 0.00 | 96 | 1019.2 |
| 20260906104902 | 19 | 199 | 4.8 | 6.4 | 0.00 | 0.00 | 0.00 | 96 | 1019.2 |
| 20260906104807 | 19 | 199 | 4.8 | 6.4 | 0.00 | 0.00 | 0.00 | 95 | 1019.2 |
| 20260906104712 | 19 | 199 | 4.8 | 6.4 | 0.00 | 0.00 | 0.00 | 96 | 1019.2 |
| 20260906104616 | 19 | 199 | 4.8 | 6.4 | 0.00 | 0.00 | 0.00 | 96 | 1019.1 |
| 20260906104520 | 19 | 199 | 4.8 | 6.4 | 0.00 | 0.00 | 0.00 | 95 | 1019.2 |
| 20260906104404 | 19 | 199 | 4.8 | 6.4 | 0.00 | 0.00 | 0.00 | 95 | 1019.2 |
| 20260906104329 | 19 | 199 | 3.2 | 6.4 | 0.00 | 0.00 | 0.00 | 95 | 1019.2 |
| 20260906104233 | 20 | 199 | 3.2 | 6.4 | 0.00 | 0.00 | 0.00 | 96 | 1019.1 |
| 20260906104122 | 20 | 199 | 3.2 | 6.4 | 0.00 | 0.00 | 0.00 | 96 | 1019.1 |
| 20260906103959 | 20 | 199 | 4.8 | 6.4 | 0.00 | 0.00 | 0.00 | 96 | 1019.1 |
| 20260906103903 | 20 | 199 | 4.8 | 6.4 | 0.00 | 0.00 | 0.00 | 96 | 1019.1 |
| 20260906103806 | 20 | 199 | 4.8 | 6.4 | 0.00 | 0.00 | 0.00 | 96 | 1019.1 |
| 20260906103711 | 20 | 199 | 3.2 | 6.4 | 0.00 | 0.00 | 0.00 | 96 | 1019.1 |
| 20260906103558 | 20 | 199 | 3.2 | 6.4 | 0.00 | 0.00 | 0.00 | 96 | 1019.2 |
| 20260906103503 | 20 | 199 | 4.8 | 6.4 | 0.00 | 0.00 | 0.00 | 96 | 1019.1 |
| 20260906103408 | 20 | 199 | 4.8 | 6.4 | 0.00 | 0.00 | 0.00 | 96 | 1019.1 |
| 20260906103313 | 20 | 199 | 4.8 | 6.4 | 0.00 | 0.00 | 0.00 | 96 | 1019.1 |
| 20260906103218 | 20 | 199 | 4.8 | 6.4 | 0.00 | 0.00 | 0.00 | 96 | 1019.1 |
| 20260906103102 | 19 | 199 | 4.8 | 6.4 | 0.00 | 0.00 | 0.00 | 96 | 1019.1 |
| 20260906103007 | 19 | 199 | 4.8 | 6.4 | 0.00 | 0.00 | 0.00 | 96 | 1019.1 |
| 20260906102916 | 19 | 199 | 4.8 | 6.4 | 0.00 | 0.00 | 0.00 | 96 | 1019.2 |
| 20260906102819 | 20 | 199 | 4.8 | 6.4 | 0.00 | 0.00 | 0.00 | 96 | 1019.1 |
| 20260906102657 | 20 | 199 | 4.8 | 6.4 | 0.00 | 0.00 | 0.00 | 96 | 1019.1 |
| 20260906102602 | 20 | 199 | 4.8 | 6.4 | 0.00 | 0.00 | 0.00 | 96 | 1019.1 |
| 20260906102507 | 20 | 199 | 3.2 | 6.4 | 0.00 | 0.00 | 0.00 | 96 | 1019.1 |
| 20260906102411 | 20 | 199 | 4.8 | 6.4 | 0.00 | 0.00 | 0.00 | 96 | 1019.1 |
| 20260906102301 | 20 | 199 | 4.8 | 6.4 | 0.00 | 0.00 | 0.00 | 96 | 1019.2 |
| 20260906102205 | 20 | 199 | 4.8 | 6.4 | 0.00 | 0.00 | 0.00 | 96 | 1019.2 |
| 20260906102110 | 20 | 199 | 3.2 | 6.4 | 0.00 | 0.00 | 0.00 | 96 | 1019.2 |
| 20260906102015 | 20 | 199 | 3.2 | 6.4 | 0.00 | 0.00 | 0.00 | 96 | 1019.1 |
| 20260906101920 | 19 | 199 | 3.2 | 6.4 | 0.00 | 0.00 | 0.00 | 96 | 1019.1 |
| 20260906101804 | 20 | 199 | 3.2 | 6.4 | 0.00 | 0.00 | 0.00 | 96 | 1019.2 |
| 20260906101731 | 19 | 199 | 3.2 | 6.4 | 0.00 | 0.00 | 0.00 | 96 | 1019.2 |
| 20260906101614 | 19 | 198 | 3.2 | 6.4 | 0.00 | 0.00 | 0.00 | 96 | 1019.1 |
| 20260906101519 | 19 | 198 | 4.8 | 6.4 | 0.00 | 0.00 | 0.00 | 96 | 1019.1 |
| 20260906101403 | 19 | 198 | 4.8 | 6.4 | 0.00 | 0.00 | 0.00 | 95 | 1019.1 |
| 20260906101327 | 19 | 198 | 4.8 | 6.4 | 0.00 | 0.00 | 0.00 | 95 | 1019.1 |
| 20260906101210 | 19 | 198 | 4.8 | 6.4 | 0.00 | 0.00 | 0.00 | 95 | 1019.0 |
| 20260906101115 | 19 | 198 | 4.8 | 6.4 | 0.00 | 0.00 | 0.00 | 95 | 1019.0 |
| 20260906101024 | 19 | 198 | 3.2 | 6.4 | 0.00 | 0.00 | 0.00 | 95 | 1019.0 |
| 20260906100906 | 19 | 198 | 3.2 | 6.4 | 0.00 | 0.00 | 0.00 | 95 | 1019.0 |
| 20260906100811 | 19 | 198 | 4.8 | 6.4 | 0.00 | 0.00 | 0.00 | 95 | 1019.1 |
| 20260906100716 | 20 | 198 | 4.8 | 6.4 | 0.00 | 0.00 | 0.00 | 95 | 1019.1 |
| 20260906100619 | 20 | 198 | 4.8 | 6.4 | 0.00 | 0.00 | 0.00 | 95 | 1019.1 |
| 20260906100457 | 20 | 198 | 4.8 | 6.4 | 0.00 | 0.00 | 0.00 | 96 | 1019.1 |
| 20260906100405 | 20 | 198 | 4.8 | 6.4 | 0.00 | 0.00 | 0.00 | 96 | 1019.1 |
| 20260906100309 | 20 | 198 | 4.8 | 6.4 | 0.00 | 0.00 | 0.00 | 95 | 1019.1 |
| 20260906100211 | 20 | 198 | 3.2 | 6.4 | 0.00 | 0.00 | 0.00 | 96 | 1019.0 |
| 20260906100115 | 20 | 198 | 3.2 | 6.4 | 0.00 | 0.00 | 0.00 | 96 | 1019.0 |
| 20260906100040 | 20 | 198 | 3.2 | 6.4 | 0.00 | 0.00 | 0.00 | 96 | 1019.0 |
| 20260906095856 | 20 | 198 | 3.2 | 6.4 | 0.00 | 0.00 | 0.00 | 95 | 1019.0 |
| 20260906095802 | 19 | 198 | 3.2 | 6.4 | 0.00 | 0.00 | 0.00 | 95 | 1018.9 |
| 20260906095710 | 19 | 198 | 3.2 | 6.4 | 0.00 | 0.00 | 0.00 | 95 | 1018.9 |
| 20260906095615 | 19 | 196 | 3.2 | 6.4 | 0.00 | 0.00 | 0.00 | 95 | 1018.9 |
| 20260906095540 | 19 | 196 | 3.2 | 6.4 | 0.00 | 0.00 | 0.00 | 95 | 1018.9 |
| 20260906095357 | 20 | 196 | 3.2 | 6.4 | 0.00 | 0.00 | 0.00 | 95 | 1018.8 |
| 20260906095305 | 20 | 196 | 3.2 | 6.4 | 0.00 | 0.00 | 0.00 | 95 | 1018.8 |
| 20260906095206 | 20 | 196 | 3.2 | 6.4 | 0.00 | 0.00 | 0.00 | 95 | 1018.8 |
| 20260906095130 | 20 | 196 | 3.2 | 6.4 | 0.00 | 0.00 | 0.00 | 96 | 1018.8 |
| 20260906094957 | 20 | 196 | 3.2 | 6.4 | 0.00 | 0.00 | 0.00 | 95 | 1018.7 |
| 20260906094921 | 20 | 196 | 3.2 | 6.4 | 0.00 | 0.00 | 0.00 | 95 | 1018.7 |
| 20260906094759 | 20 | 196 | 4.8 | 6.4 | 0.00 | 0.00 | 0.00 | 95 | 1018.5 |
| 20260906094704 | 20 | 196 | 4.8 | 6.4 | 0.00 | 0.00 | 0.00 | 95 | 1018.6 |
| 20260906094609 | 20 | 196 | 4.8 | 6.4 | 0.00 | 0.00 | 0.00 | 95 | 1018.6 |
| 20260906094458 | 20 | 196 | 4.8 | 6.4 | 0.00 | 0.00 | 0.00 | 95 | 1018.5 |
| 20260906094403 | 20 | 196 | 4.8 | 6.4 | 0.00 | 0.00 | 0.00 | 95 | 1018.5 |
| 20260906094308 | 20 | 196 | 4.8 | 6.4 | 0.00 | 0.00 | 0.00 | 95 | 1018.5 |
| 20260906094213 | 20 | 196 | 4.8 | 6.4 | 0.00 | 0.00 | 0.00 | 95 | 1018.5 |
| 20260906094138 | 20 | 196 | 4.8 | 6.4 | 0.00 | 0.00 | 0.00 | 95 | 1018.6 |
| 20260906094042 | 20 | 196 | 3.2 | 6.4 | 0.00 | 0.00 | 0.00 | 95 | 1018.5 |
| 20260906093859 | 20 | 196 | 3.2 | 6.4 | 0.00 | 0.00 | 0.00 | 95 | 1018.6 |
| 20260906093823 | 20 | 196 | 3.2 | 6.4 | 0.00 | 0.00 | 0.00 | 95 | 1018.6 |
| 20260906093711 | 20 | 196 | 3.2 | 6.4 | 0.00 | 0.00 | 0.00 | 95 | 1018.6 |
| 20260906093615 | 20 | 196 | 3.2 | 6.4 | 0.00 | 0.00 | 0.00 | 95 | 1018.7 |
| 20260906093500 | 20 | 196 | 4.8 | 6.4 | 0.00 | 0.00 | 0.00 | 95 | 1018.7 |
| 20260906093404 | 20 | 196 | 4.8 | 6.4 | 0.00 | 0.00 | 0.00 | 95 | 1018.6 |
| 20260906093309 | 20 | 196 | 4.8 | 6.4 | 0.00 | 0.00 | 0.00 | 95 | 1018.6 |
| 20260906093234 | 20 | 196 | 4.8 | 6.4 | 0.00 | 0.00 | 0.00 | 95 | 1018.6 |
| 20260906093121 | 20 | 196 | 4.8 | 6.4 | 0.00 | 0.00 | 0.00 | 95 | 1018.5 |
| 20260906093023 | 20 | 196 | 4.8 | 6.4 | 0.00 | 0.00 | 0.00 | 95 | 1018.5 |
| 20260906092901 | 20 | 196 | 4.8 | 6.4 | 0.00 | 0.00 | 0.00 | 95 | 1018.4 |
| 20260906092805 | 20 | 196 | 3.2 | 6.4 | 0.00 | 0.00 | 0.00 | 96 | 1018.5 |
| 20260906092710 | 20 | 196 | 3.2 | 6.4 | 0.00 | 0.00 | 0.00 | 96 | 1018.5 |
| 20260906092634 | 20 | 196 | 1.6 | 8.0 | 0.00 | 0.00 | 0.00 | 96 | 1018.4 |
| 20260906092458 | 20 | 196 | 3.2 | 8.0 | 0.00 | 0.00 | 0.00 | 96 | 1018.4 |
| 20260906092406 | 20 | 196 | 3.2 | 8.0 | 0.00 | 0.00 | 0.00 | 96 | 1018.4 |
| 20260906092311 | 20 | 196 | 3.2 | 8.0 | 0.00 | 0.00 | 0.00 | 96 | 1018.4 |
| 20260906092216 | 20 | 196 | 4.8 | 8.0 | 0.00 | 0.00 | 0.00 | 96 | 1018.4 |
| 20260906092120 | 20 | 196 | 4.8 | 8.0 | 0.00 | 0.00 | 0.00 | 96 | 1018.3 |
| 20260906092004 | 20 | 196 | 4.8 | 8.0 | 0.00 | 0.00 | 0.00 | 96 | 1018.3 |
| 20260906091908 | 20 | 196 | 6.4 | 8.0 | 0.00 | 0.00 | 0.00 | 96 | 1018.3 |
| 20260906091757 | 20 | 196 | 6.4 | 8.0 | 0.00 | 0.00 | 0.00 | 96 | 1018.3 |
| 20260906091722 | 20 | 196 | 6.4 | 8.0 | 0.00 | 0.00 | 0.00 | 96 | 1018.3 |
| 20260906091605 | 20 | 192 | 6.4 | 8.0 | 0.00 | 0.00 | 0.00 | 96 | 1018.2 |
| 20260906091509 | 20 | 192 | 6.4 | 8.0 | 0.00 | 0.00 | 0.00 | 96 | 1018.2 |
| 20260906091434 | 20 | 191 | 4.8 | 8.0 | 0.00 | 0.00 | 0.00 | 96 | 1018.3 |
| 20260906091258 | 20 | 191 | 4.8 | 8.0 | 0.00 | 0.00 | 0.00 | 96 | 1018.3 |
| 20260906091202 | 20 | 191 | 4.8 | 8.0 | 0.00 | 0.00 | 0.00 | 96 | 1018.3 |
| 20260906091111 | 20 | 191 | 4.8 | 8.0 | 0.00 | 0.00 | 0.00 | 96 | 1018.3 |
| 20260906091016 | 20 | 190 | 4.8 | 8.0 | 0.00 | 0.00 | 0.00 | 96 | 1018.3 |
| 20260906090920 | 20 | 190 | 4.8 | 8.0 | 0.00 | 0.00 | 0.00 | 96 | 1018.3 |
| 20260906090757 | 20 | 190 | 4.8 | 8.0 | 0.00 | 0.00 | 0.00 | 96 | 1018.4 |
| 20260906090722 | 20 | 190 | 4.8 | 8.0 | 0.00 | 0.00 | 0.00 | 96 | 1018.3 |
| 20260906090605 | 20 | 190 | 4.8 | 8.0 | 0.00 | 0.00 | 0.00 | 96 | 1018.4 |
| 20260906090530 | 20 | 190 | 3.2 | 8.0 | 0.00 | 0.00 | 0.00 | 96 | 1018.4 |
| 20260906090418 | 20 | 190 | 4.8 | 8.0 | 0.00 | 0.00 | 0.00 | 96 | 1018.4 |
| 20260906090302 | 20 | 190 | 4.8 | 8.0 | 0.00 | 0.00 | 0.00 | 96 | 1018.4 |
| 20260906090206 | 20 | 190 | 4.8 | 8.0 | 0.00 | 0.00 | 0.00 | 96 | 1018.4 |
| 20260906090111 | 20 | 194 | 4.8 | 8.0 | 0.00 | 0.00 | 0.00 | 96 | 1018.4 |
| 20260906090035 | 20 | 194 | 4.8 | 8.0 | 0.00 | 0.00 | 0.00 | 96 | 1018.5 |
| 20260906085900 | 20 | 194 | 6.4 | 8.0 | 0.00 | 0.00 | 0.00 | 96 | 1018.5 |
| 20260906085809 | 20 | 193 | 4.8 | 8.0 | 0.00 | 0.00 | 0.00 | 96 | 1018.5 |
| 20260906085713 | 20 | 192 | 4.8 | 8.0 | 0.00 | 0.00 | 0.00 | 96 | 1018.4 |
| 20260906085558 | 20 | 192 | 4.8 | 8.0 | 0.00 | 0.00 | 0.00 | 96 | 1018.3 |
| 20260906085522 | 20 | 192 | 4.8 | 8.0 | 0.00 | 0.00 | 0.00 | 96 | 1018.4 |
| 20260906085406 | 20 | 192 | 4.8 | 6.4 | 0.00 | 0.00 | 0.00 | 96 | 1018.4 |
| 20260906085331 | 20 | 192 | 4.8 | 6.4 | 0.00 | 0.00 | 0.00 | 96 | 1018.3 |
| 20260906085234 | 20 | 192 | 4.8 | 6.4 | 0.00 | 0.00 | 0.00 | 96 | 1018.3 |
| 20260906085102 | 20 | 192 | 3.2 | 6.4 | 0.00 | 0.00 | 0.00 | 96 | 1018.3 |
| 20260906085007 | 20 | 192 | 3.2 | 6.4 | 0.00 | 0.00 | 0.00 | 96 | 1018.3 |
| 20260906084931 | 20 | 192 | 3.2 | 6.4 | 0.00 | 0.00 | 0.00 | 96 | 1018.3 |
| 20260906084816 | 19 | 192 | 4.8 | 6.4 | 0.00 | 0.00 | 0.00 | 96 | 1018.3 |
| 20260906084721 | 19 | 192 | 3.2 | 6.4 | 0.00 | 0.00 | 0.00 | 96 | 1018.3 |
| 20260906084558 | 19 | 192 | 3.2 | 6.4 | 0.00 | 0.00 | 0.00 | 96 | 1018.3 |
| 20260906084523 | 19 | 192 | 4.8 | 6.4 | 0.00 | 0.00 | 0.00 | 96 | 1018.3 |
| 20260906084410 | 19 | 192 | 4.8 | 6.4 | 0.00 | 0.00 | 0.00 | 96 | 1018.3 |
| 20260906084315 | 19 | 192 | 4.8 | 6.4 | 0.00 | 0.00 | 0.00 | 96 | 1018.3 |
| 20260906084159 | 19 | 191 | 3.2 | 4.8 | 0.00 | 0.00 | 0.00 | 96 | 1018.2 |
| 20260906084104 | 19 | 191 | 3.2 | 4.8 | 0.00 | 0.00 | 0.00 | 96 | 1018.2 |
| 20260906084009 | 19 | 191 | 3.2 | 4.8 | 0.00 | 0.00 | 0.00 | 96 | 1018.2 |
| 20260906083913 | 19 | 191 | 3.2 | 4.8 | 0.00 | 0.00 | 0.00 | 96 | 1018.3 |
| 20260906083801 | 19 | 191 | 3.2 | 4.8 | 0.00 | 0.00 | 0.00 | 96 | 1018.3 |
| 20260906083706 | 19 | 191 | 3.2 | 4.8 | 0.00 | 0.00 | 0.00 | 96 | 1018.3 |
| 20260906083611 | 19 | 191 | 3.2 | 4.8 | 0.00 | 0.00 | 0.00 | 96 | 1018.3 |
| 20260906083515 | 19 | 191 | 1.6 | 3.2 | 0.00 | 0.00 | 0.00 | 96 | 1018.3 |
| 20260906083419 | 19 | 191 | 1.6 | 3.2 | 0.00 | 0.00 | 0.00 | 95 | 1018.3 |
| 20260906083257 | 19 | 191 | 3.2 | 3.2 | 0.00 | 0.00 | 0.00 | 95 | 1018.4 |
| 20260906083205 | 19 | 191 | 1.6 | 3.2 | 0.00 | 0.00 | 0.00 | 95 | 1018.3 |
| 20260906083110 | 19 | 191 | 1.6 | 3.2 | 0.00 | 0.00 | 0.00 | 95 | 1018.3 |
| 20260906083035 | 19 | 191 | 1.6 | 3.2 | 0.00 | 0.00 | 0.00 | 95 | 1018.4 |
| 20260906082918 | 19 | 191 | 1.6 | 3.2 | 0.00 | 0.00 | 0.00 | 95 | 1018.3 |
| 20260906082801 | 19 | 191 | 1.6 | 3.2 | 0.00 | 0.00 | 0.00 | 95 | 1018.4 |
| 20260906082706 | 19 | 191 | 1.6 | 3.2 | 0.00 | 0.00 | 0.00 | 95 | 1018.4 |
| 20260906082609 | 19 | 191 | 3.2 | 3.2 | 0.00 | 0.00 | 0.00 | 95 | 1018.3 |
| 20260906082518 | 19 | 191 | 3.2 | 3.2 | 0.00 | 0.00 | 0.00 | 95 | 1018.4 |
| 20260906082421 | 19 | 191 | 3.2 | 3.2 | 0.00 | 0.00 | 0.00 | 95 | 1018.4 |
| 20260906082259 | 19 | 191 | 1.6 | 4.8 | 0.00 | 0.00 | 0.00 | 95 | 1018.3 |
| 20260906082204 | 19 | 191 | 1.6 | 4.8 | 0.00 | 0.00 | 0.00 | 95 | 1018.4 |
| 20260906082109 | 19 | 191 | 0.0 | 4.8 | 0.00 | 0.00 | 0.00 | 95 | 1018.4 |
| 20260906082013 | 19 | 191 | 0.0 | 4.8 | 0.00 | 0.00 | 0.00 | 95 | 1018.4 |
| 20260906081916 | 19 | 191 | 1.6 | 4.8 | 0.00 | 0.00 | 0.00 | 95 | 1018.4 |
| 20260906081804 | 19 | 191 | 0.0 | 4.8 | 0.00 | 0.00 | 0.00 | 95 | 1018.4 |
| 20260906081708 | 19 | 191 | 1.6 | 4.8 | 0.00 | 0.00 | 0.00 | 95 | 1018.4 |
| 20260906081611 | 19 | 191 | 1.6 | 4.8 | 0.00 | 0.00 | 0.00 | 95 | 1018.4 |
| 20260906081516 | 19 | 191 | 3.2 | 4.8 | 0.00 | 0.00 | 0.00 | 95 | 1018.5 |
| 20260906081422 | 19 | 191 | 3.2 | 4.8 | 0.00 | 0.00 | 0.00 | 96 | 1018.5 |
| 20260906081259 | 19 | 192 | 3.2 | 4.8 | 0.00 | 0.00 | 0.00 | 96 | 1018.4 |
| 20260906081207 | 19 | 192 | 3.2 | 4.8 | 0.00 | 0.00 | 0.00 | 96 | 1018.4 |
| 20260906081132 | 19 | 192 | 3.2 | 4.8 | 0.00 | 0.00 | 0.00 | 95 | 1018.5 |
| 20260906081016 | 19 | 192 | 3.2 | 4.8 | 0.00 | 0.00 | 0.00 | 95 | 1018.4 |
| 20260906080920 | 19 | 192 | 3.2 | 4.8 | 0.00 | 0.00 | 0.00 | 95 | 1018.4 |
| 20260906080825 | 19 | 192 | 3.2 | 4.8 | 0.00 | 0.00 | 0.00 | 95 | 1018.3 |
| 20260906080708 | 19 | 192 | 3.2 | 4.8 | 0.00 | 0.00 | 0.00 | 95 | 1018.3 |
| 20260906080613 | 19 | 192 | 3.2 | 4.8 | 0.00 | 0.00 | 0.00 | 95 | 1018.3 |
| 20260906080518 | 19 | 192 | 3.2 | 4.8 | 0.00 | 0.00 | 0.00 | 95 | 1018.4 |
| 20260906080406 | 19 | 192 | 3.2 | 4.8 | 0.00 | 0.00 | 0.00 | 95 | 1018.4 |
| 20260906080311 | 19 | 192 | 3.2 | 4.8 | 0.00 | 0.00 | 0.00 | 95 | 1018.4 |
| 20260906080215 | 19 | 192 | 1.6 | 4.8 | 0.00 | 0.00 | 0.00 | 95 | 1018.4 |
| 20260906080120 | 19 | 192 | 3.2 | 4.8 | 0.00 | 0.00 | 0.00 | 95 | 1018.4 |
| 20260906080004 | 19 | 192 | 3.2 | 4.8 | 0.00 | 0.00 | 0.00 | 95 | 1018.4 |
| 20260906075909 | 19 | 192 | 1.6 | 4.8 | 0.00 | 0.00 | 0.00 | 95 | 1018.4 |
| 20260906075819 | 19 | 192 | 3.2 | 4.8 | 0.00 | 0.00 | 0.00 | 95 | 1018.4 |
| 20260906075657 | 19 | 192 | 3.2 | 4.8 | 0.00 | 0.00 | 0.00 | 95 | 1018.4 |
| 20260906075602 | 19 | 192 | 3.2 | 4.8 | 0.00 | 0.00 | 0.00 | 94 | 1018.4 |
| 20260906075507 | 19 | 192 | 3.2 | 4.8 | 0.00 | 0.00 | 0.00 | 94 | 1018.4 |
| 20260906075412 | 19 | 192 | 3.2 | 4.8 | 0.00 | 0.00 | 0.00 | 94 | 1018.3 |
| 20260906075316 | 19 | 192 | 3.2 | 4.8 | 0.00 | 0.00 | 0.00 | 94 | 1018.3 |
| 20260906075203 | 19 | 192 | 3.2 | 4.8 | 0.00 | 0.00 | 0.00 | 94 | 1018.4 |
| 20260906075128 | 19 | 192 | 3.2 | 4.8 | 0.00 | 0.00 | 0.00 | 94 | 1018.4 |
| 20260906075012 | 19 | 192 | 1.6 | 4.8 | 0.00 | 0.00 | 0.00 | 94 | 1018.4 |
| 20260906074914 | 19 | 192 | 1.6 | 4.8 | 0.00 | 0.00 | 0.00 | 94 | 1018.4 |
| 20260906074819 | 19 | 192 | 1.6 | 4.8 | 0.00 | 0.00 | 0.00 | 94 | 1018.5 |
| 20260906074657 | 19 | 192 | 3.2 | 4.8 | 0.00 | 0.00 | 0.00 | 95 | 1018.4 |
| 20260906074606 | 19 | 192 | 3.2 | 4.8 | 0.00 | 0.00 | 0.00 | 94 | 1018.4 |
| 20260906074531 | 19 | 192 | 3.2 | 4.8 | 0.00 | 0.00 | 0.00 | 95 | 1018.5 |
| 20260906074434 | 19 | 192 | 1.6 | 4.8 | 0.00 | 0.00 | 0.00 | 94 | 1018.4 |
| 20260906074258 | 19 | 192 | 3.2 | 4.8 | 0.00 | 0.00 | 0.00 | 95 | 1018.4 |
| 20260906074203 | 20 | 192 | 3.2 | 4.8 | 0.00 | 0.00 | 0.00 | 95 | 1018.4 |
| 20260906074107 | 20 | 192 | 3.2 | 4.8 | 0.00 | 0.00 | 0.00 | 95 | 1018.4 |
| 20260906074011 | 20 | 192 | 3.2 | 4.8 | 0.00 | 0.00 | 0.00 | 94 | 1018.5 |
| 20260906073921 | 20 | 192 | 3.2 | 4.8 | 0.00 | 0.00 | 0.00 | 94 | 1018.4 |
| 20260906073803 | 20 | 192 | 3.2 | 4.8 | 0.00 | 0.00 | 0.00 | 94 | 1018.4 |
| 20260906073727 | 20 | 192 | 1.6 | 4.8 | 0.00 | 0.00 | 0.00 | 94 | 1018.4 |
| 20260906073610 | 20 | 192 | 1.6 | 4.8 | 0.00 | 0.00 | 0.00 | 94 | 1018.5 |
| 20260906073515 | 20 | 192 | 3.2 | 4.8 | 0.00 | 0.00 | 0.00 | 94 | 1018.4 |
| 20260906073421 | 20 | 192 | 3.2 | 4.8 | 0.00 | 0.00 | 0.00 | 94 | 1018.4 |
| 20260906073258 | 20 | 192 | 3.2 | 4.8 | 0.00 | 0.00 | 0.00 | 94 | 1018.4 |
| 20260906073207 | 20 | 192 | 1.6 | 4.8 | 0.00 | 0.00 | 0.00 | 94 | 1018.4 |
| 20260906073111 | 20 | 192 | 1.6 | 3.2 | 0.00 | 0.00 | 0.00 | 94 | 1018.5 |
| 20260906073016 | 20 | 192 | 1.6 | 3.2 | 0.00 | 0.00 | 0.00 | 94 | 1018.4 |
| 20260906072942 | 20 | 192 | 3.2 | 3.2 | 0.00 | 0.00 | 0.00 | 94 | 1018.4 |
| 20260906072759 | 20 | 192 | 1.6 | 3.2 | 0.00 | 0.00 | 0.00 | 94 | 1018.4 |
| 20260906072704 | 20 | 192 | 3.2 | 3.2 | 0.00 | 0.00 | 0.00 | 94 | 1018.5 |
| 20260906072609 | 20 | 192 | 1.6 | 3.2 | 0.00 | 0.00 | 0.00 | 94 | 1018.5 |
| 20260906072457 | 20 | 192 | 1.6 | 3.2 | 0.00 | 0.00 | 0.00 | 94 | 1018.6 |
| 20260906072421 | 20 | 192 | 1.6 | 3.2 | 0.00 | 0.00 | 0.00 | 94 | 1018.6 |
| 20260906072259 | 20 | 192 | 0.0 | 1.6 | 0.00 | 0.00 | 0.00 | 94 | 1018.6 |
| 20260906072204 | 20 | 192 | 0.0 | 3.2 | 0.00 | 0.00 | 0.00 | 94 | 1018.6 |
| 20260906072108 | 20 | 192 | 0.0 | 3.2 | 0.00 | 0.00 | 0.00 | 94 | 1018.6 |
| 20260906071957 | 20 | 192 | 0.0 | 3.2 | 0.00 | 0.00 | 0.00 | 94 | 1018.6 |
| 20260906071901 | 20 | 192 | 0.0 | 4.8 | 0.00 | 0.00 | 0.00 | 94 | 1018.6 |
| 20260906071807 | 20 | 192 | 0.0 | 4.8 | 0.00 | 0.00 | 0.00 | 94 | 1018.6 |
| 20260906071712 | 20 | 192 | 0.0 | 4.8 | 0.00 | 0.00 | 0.00 | 94 | 1018.6 |
| 20260906071637 | 20 | 192 | 0.0 | 4.8 | 0.00 | 0.00 | 0.00 | 94 | 1018.6 |
| 20260906071520 | 20 | 192 | 0.0 | 4.8 | 0.00 | 0.00 | 0.00 | 94 | 1018.6 |
| 20260906071404 | 20 | 192 | 1.6 | 4.8 | 0.00 | 0.00 | 0.00 | 94 | 1018.6 |
| 20260906071313 | 20 | 192 | 3.2 | 4.8 | 0.00 | 0.00 | 0.00 | 94 | 1018.6 |
| 20260906071157 | 20 | 192 | 3.2 | 4.8 | 0.00 | 0.00 | 0.00 | 94 | 1018.6 |
| 20260906071102 | 20 | 192 | 3.2 | 4.8 | 0.00 | 0.00 | 0.00 | 94 | 1018.6 |
| 20260906071007 | 20 | 192 | 3.2 | 4.8 | 0.00 | 0.00 | 0.00 | 94 | 1018.6 |
| 20260906070911 | 20 | 192 | 3.2 | 4.8 | 0.00 | 0.00 | 0.00 | 94 | 1018.6 |
| 20260906070815 | 20 | 192 | 3.2 | 4.8 | 0.00 | 0.00 | 0.00 | 94 | 1018.6 |
| 20260906070704 | 20 | 192 | 3.2 | 4.8 | 0.00 | 0.00 | 0.00 | 94 | 1018.6 |
| 20260906070628 | 20 | 192 | 1.6 | 4.8 | 0.00 | 0.00 | 0.00 | 94 | 1018.6 |
| 20260906070533 | 20 | 192 | 3.2 | 4.8 | 0.00 | 0.00 | 0.00 | 94 | 1018.6 |
| 20260906070417 | 20 | 192 | 3.2 | 4.8 | 0.00 | 0.00 | 0.00 | 94 | 1018.6 |
| 20260906070342 | 20 | 192 | 3.2 | 4.8 | 0.00 | 0.00 | 0.00 | 94 | 1018.7 |
| 20260906070158 | 20 | 192 | 3.2 | 4.8 | 0.00 | 0.00 | 0.00 | 94 | 1018.6 |
| 20260906070123 | 20 | 192 | 3.2 | 4.8 | 0.00 | 0.00 | 0.00 | 94 | 1018.7 |
| 20260906070006 | 20 | 192 | 3.2 | 4.8 | 0.00 | 0.00 | 0.00 | 94 | 1018.7 |
| 20260906065932 | 20 | 192 | 4.8 | 4.8 | 0.00 | 0.00 | 0.00 | 94 | 1018.8 |
| 20260906065819 | 20 | 192 | 3.2 | 4.8 | 0.00 | 0.00 | 0.00 | 94 | 1018.8 |
| 20260906065723 | 20 | 192 | 3.2 | 4.8 | 0.00 | 0.00 | 0.00 | 94 | 1018.8 |
| 20260906065607 | 20 | 192 | 1.6 | 4.8 | 0.00 | 0.00 | 0.00 | 94 | 1018.8 |
| 20260906065512 | 20 | 192 | 1.6 | 4.8 | 0.00 | 0.00 | 0.00 | 94 | 1018.9 |
| 20260906065416 | 20 | 192 | 1.6 | 4.8 | 0.00 | 0.00 | 0.00 | 94 | 1018.8 |
| 20260906065342 | 20 | 192 | 1.6 | 4.8 | 0.00 | 0.00 | 0.00 | 94 | 1018.8 |
| 20260906065158 | 20 | 192 | 3.2 | 4.8 | 0.00 | 0.00 | 0.00 | 94 | 1018.9 |
| 20260906065106 | 20 | 192 | 3.2 | 4.8 | 0.00 | 0.00 | 0.00 | 94 | 1018.9 |
| 20260906065010 | 20 | 192 | 3.2 | 4.8 | 0.00 | 0.00 | 0.00 | 94 | 1018.8 |
| 20260906064915 | 20 | 192 | 3.2 | 4.8 | 0.00 | 0.00 | 0.00 | 94 | 1018.8 |
| 20260906064821 | 20 | 192 | 3.2 | 6.4 | 0.00 | 0.00 | 0.00 | 93 | 1018.9 |
| 20260906064659 | 20 | 192 | 1.6 | 6.4 | 0.00 | 0.00 | 0.00 | 94 | 1018.8 |
| 20260906064604 | 20 | 192 | 1.6 | 6.4 | 0.00 | 0.00 | 0.00 | 94 | 1018.9 |
| 20260906064532 | 20 | 192 | 1.6 | 6.4 | 0.00 | 0.00 | 0.00 | 94 | 1018.9 |
| 20260906064415 | 20 | 192 | 0.0 | 6.4 | 0.00 | 0.00 | 0.00 | 94 | 1018.8 |
| 20260906064320 | 20 | 192 | 0.0 | 6.4 | 0.00 | 0.00 | 0.00 | 94 | 1018.8 |
| 20260906064203 | 20 | 192 | 1.6 | 6.4 | 0.00 | 0.00 | 0.00 | 94 | 1018.9 |
| 20260906064127 | 20 | 192 | 3.2 | 6.4 | 0.00 | 0.00 | 0.00 | 94 | 1018.9 |
| 20260906064031 | 20 | 192 | 3.2 | 6.4 | 0.00 | 0.00 | 0.00 | 94 | 1018.8 |
| 20260906063915 | 20 | 192 | 3.2 | 6.4 | 0.00 | 0.00 | 0.00 | 94 | 1018.8 |
| 20260906063819 | 20 | 192 | 1.6 | 6.4 | 0.00 | 0.00 | 0.00 | 94 | 1018.8 |
| 20260906063705 | 20 | 192 | 3.2 | 6.4 | 0.00 | 0.00 | 0.00 | 94 | 1018.8 |
| 20260906063610 | 20 | 192 | 3.2 | 6.4 | 0.00 | 0.00 | 0.00 | 94 | 1018.8 |
| 20260906063515 | 20 | 192 | 4.8 | 6.4 | 0.00 | 0.00 | 0.00 | 94 | 1018.8 |
| 20260906063419 | 20 | 192 | 4.8 | 6.4 | 0.00 | 0.00 | 0.00 | 94 | 1018.8 |
| 20260906063322 | 20 | 192 | 4.8 | 6.4 | 0.00 | 0.00 | 0.00 | 93 | 1018.8 |
| 20260906063158 | 20 | 192 | 4.8 | 6.4 | 0.00 | 0.00 | 0.00 | 93 | 1018.8 |
| 20260906063108 | 20 | 192 | 4.8 | 6.4 | 0.00 | 0.00 | 0.00 | 93 | 1018.8 |
| 20260906063012 | 20 | 192 | 4.8 | 6.4 | 0.00 | 0.00 | 0.00 | 93 | 1018.8 |
| 20260906062857 | 20 | 192 | 6.4 | 6.4 | 0.00 | 0.00 | 0.00 | 93 | 1018.8 |
| 20260906062822 | 20 | 192 | 6.4 | 6.4 | 0.00 | 0.00 | 0.00 | 93 | 1018.8 |
| 20260906062706 | 20 | 192 | 4.8 | 6.4 | 0.00 | 0.00 | 0.00 | 93 | 1018.8 |
| 20260906062610 | 20 | 192 | 6.4 | 6.4 | 0.00 | 0.00 | 0.00 | 93 | 1018.8 |
| 20260906062458 | 20 | 192 | 4.8 | 6.4 | 0.00 | 0.00 | 0.00 | 94 | 1018.7 |
| 20260906062421 | 20 | 192 | 6.4 | 6.4 | 0.00 | 0.00 | 0.00 | 94 | 1018.7 |
| 20260906062259 | 20 | 192 | 4.8 | 6.4 | 0.00 | 0.00 | 0.00 | 94 | 1018.8 |
| 20260906062223 | 20 | 192 | 4.8 | 6.4 | 0.00 | 0.00 | 0.00 | 94 | 1018.8 |
| 20260906062105 | 20 | 192 | 4.8 | 6.4 | 0.00 | 0.00 | 0.00 | 93 | 1018.7 |
| 20260906062010 | 20 | 192 | 4.8 | 6.4 | 0.00 | 0.00 | 0.00 | 93 | 1018.7 |
| 20260906061915 | 20 | 192 | 4.8 | 6.4 | 0.00 | 0.00 | 0.00 | 93 | 1018.8 |
| 20260906061804 | 20 | 192 | 4.8 | 6.4 | 0.00 | 0.00 | 0.00 | 93 | 1018.8 |
| 20260906061708 | 20 | 191 | 4.8 | 6.4 | 0.00 | 0.00 | 0.00 | 92 | 1018.8 |
| 20260906061614 | 20 | 191 | 4.8 | 6.4 | 0.00 | 0.00 | 0.00 | 92 | 1018.7 |
| 20260906061457 | 20 | 191 | 4.8 | 6.4 | 0.00 | 0.00 | 0.00 | 92 | 1018.8 |
| 20260906061401 | 20 | 191 | 4.8 | 6.4 | 0.00 | 0.00 | 0.00 | 93 | 1018.8 |
| 20260906061326 | 20 | 191 | 3.2 | 6.4 | 0.00 | 0.00 | 0.00 | 93 | 1018.8 |
| 20260906061209 | 20 | 191 | 3.2 | 4.8 | 0.00 | 0.00 | 0.00 | 93 | 1018.8 |
| 20260906061138 | 20 | 191 | 3.2 | 4.8 | 0.00 | 0.00 | 0.00 | 93 | 1018.8 |
| 20260906061041 | 20 | 191 | 3.2 | 4.8 | 0.00 | 0.00 | 0.00 | 94 | 1018.8 |
| 20260906060859 | 20 | 191 | 3.2 | 4.8 | 0.00 | 0.00 | 0.00 | 93 | 1018.9 |
| 20260906060823 | 20 | 191 | 3.2 | 4.8 | 0.00 | 0.00 | 0.00 | 93 | 1018.9 |
| 20260906060701 | 20 | 191 | 3.2 | 6.4 | 0.00 | 0.00 | 0.00 | 93 | 1018.9 |
| 20260906060626 | 20 | 191 | 3.2 | 6.4 | 0.00 | 0.00 | 0.00 | 93 | 1018.9 |
| 20260906060509 | 20 | 191 | 3.2 | 6.4 | 0.00 | 0.00 | 0.00 | 93 | 1018.9 |
| 20260906060419 | 20 | 191 | 3.2 | 6.4 | 0.00 | 0.00 | 0.00 | 93 | 1018.9 |
| 20260906060257 | 20 | 191 | 3.2 | 6.4 | 0.00 | 0.00 | 0.00 | 94 | 1018.8 |
| 20260906060221 | 20 | 191 | 3.2 | 6.4 | 0.00 | 0.00 | 0.00 | 94 | 1018.8 |
| 20260906060059 | 20 | 191 | 3.2 | 6.4 | 0.00 | 0.00 | 0.00 | 93 | 1018.8 |
| 20260906060003 | 20 | 191 | 3.2 | 6.4 | 0.00 | 0.00 | 0.00 | 93 | 1018.8 |
| 20260906055906 | 20 | 191 | 4.8 | 6.4 | 0.00 | 0.00 | 0.00 | 93 | 1018.8 |
| 20260906055831 | 20 | 191 | 4.8 | 4.8 | 0.00 | 0.00 | 0.00 | 93 | 1018.8 |
| 20260906055718 | 20 | 191 | 3.2 | 4.8 | 0.00 | 0.00 | 0.00 | 93 | 1018.8 |
| 20260906055622 | 20 | 191 | 3.2 | 4.8 | 0.00 | 0.00 | 0.00 | 93 | 1018.8 |
| 20260906055501 | 20 | 191 | 3.2 | 4.8 | 0.00 | 0.00 | 0.00 | 93 | 1018.7 |
| 20260906055426 | 20 | 191 | 3.2 | 4.8 | 0.00 | 0.00 | 0.00 | 93 | 1018.9 |
| 20260906055329 | 20 | 191 | 3.2 | 4.8 | 0.00 | 0.00 | 0.00 | 93 | 1018.9 |
| 20260906055235 | 20 | 191 | 3.2 | 4.8 | 0.00 | 0.00 | 0.00 | 93 | 1018.8 |
| 20260906055119 | 20 | 191 | 1.6 | 4.8 | 0.00 | 0.00 | 0.00 | 93 | 1018.8 |
| 20260906055003 | 20 | 191 | 1.6 | 4.8 | 0.00 | 0.00 | 0.00 | 93 | 1018.8 |
| 20260906054912 | 20 | 191 | 1.6 | 4.8 | 0.00 | 0.00 | 0.00 | 94 | 1018.8 |
| 20260906054837 | 20 | 191 | 1.6 | 4.8 | 0.00 | 0.00 | 0.00 | 94 | 1018.8 |
| 20260906054720 | 20 | 191 | 1.6 | 4.8 | 0.00 | 0.00 | 0.00 | 94 | 1018.9 |
| 20260906054558 | 20 | 191 | 3.2 | 4.8 | 0.00 | 0.00 | 0.00 | 94 | 1018.8 |
| 20260906054503 | 20 | 191 | 3.2 | 4.8 | 0.00 | 0.00 | 0.00 | 94 | 1018.8 |
| 20260906054407 | 20 | 191 | 1.6 | 4.8 | 0.00 | 0.00 | 0.00 | 94 | 1018.8 |
| 20260906054333 | 20 | 191 | 3.2 | 4.8 | 0.00 | 0.00 | 0.00 | 94 | 1018.8 |
| 20260906054219 | 20 | 191 | 3.2 | 4.8 | 0.00 | 0.00 | 0.00 | 94 | 1018.8 |
| 20260906054057 | 20 | 191 | 1.6 | 4.8 | 0.00 | 0.00 | 0.00 | 94 | 1018.8 |
| 20260906054001 | 20 | 192 | 1.6 | 3.2 | 0.00 | 0.00 | 0.00 | 94 | 1018.8 |
| 20260906053926 | 20 | 191 | 1.6 | 3.2 | 0.00 | 0.00 | 0.00 | 94 | 1018.8 |
| 20260906053809 | 20 | 191 | 0.0 | 3.2 | 0.00 | 0.00 | 0.00 | 94 | 1018.8 |
| 20260906053714 | 20 | 191 | 0.0 | 0.0 | 0.00 | 0.00 | 0.00 | 94 | 1018.8 |
| 20260906053603 | 20 | 191 | 0.0 | 0.0 | 0.00 | 0.00 | 0.00 | 94 | 1018.8 |
| 20260906053507 | 20 | 191 | 0.0 | 0.0 | 0.00 | 0.00 | 0.00 | 94 | 1018.8 |
| 20260906053412 | 20 | 191 | 0.0 | 0.0 | 0.00 | 0.00 | 0.00 | 94 | 1018.8 |
| 20260906053257 | 20 | 191 | 0.0 | 0.0 | 0.00 | 0.00 | 0.00 | 94 | 1018.8 |
| 20260906053201 | 20 | 191 | 0.0 | 0.0 | 0.00 | 0.00 | 0.00 | 94 | 1018.8 |
| 20260906053107 | 20 | 191 | 0.0 | 0.0 | 0.00 | 0.00 | 0.00 | 94 | 1018.8 |
| 20260906053031 | 20 | 191 | 0.0 | 0.0 | 0.00 | 0.00 | 0.00 | 94 | 1018.7 |
| 20260906052919 | 20 | 191 | 0.0 | 0.0 | 0.00 | 0.00 | 0.00 | 94 | 1018.8 |
| 20260906052757 | 20 | 191 | 0.0 | 0.0 | 0.00 | 0.00 | 0.00 | 93 | 1018.8 |
| 20260906052721 | 20 | 191 | 0.0 | 1.6 | 0.00 | 0.00 | 0.00 | 93 | 1018.8 |
| 20260906052558 | 20 | 191 | 0.0 | 1.6 | 0.00 | 0.00 | 0.00 | 93 | 1018.8 |
| 20260906052504 | 20 | 191 | 0.0 | 3.2 | 0.00 | 0.00 | 0.00 | 93 | 1018.9 |
| 20260906052409 | 20 | 191 | 0.0 | 3.2 | 0.00 | 0.00 | 0.00 | 93 | 1018.9 |
| 20260906052257 | 20 | 191 | 0.0 | 3.2 | 0.00 | 0.00 | 0.00 | 94 | 1018.8 |
| 20260906052221 | 20 | 191 | 0.0 | 4.8 | 0.00 | 0.00 | 0.00 | 94 | 1018.8 |
| 20260906052058 | 20 | 191 | 0.0 | 4.8 | 0.00 | 0.00 | 0.00 | 94 | 1018.9 |
| 20260906052004 | 20 | 191 | 0.0 | 4.8 | 0.00 | 0.00 | 0.00 | 94 | 1018.9 |
| 20260906051909 | 20 | 191 | 0.0 | 4.8 | 0.00 | 0.00 | 0.00 | 94 | 1018.9 |
| 20260906051833 | 20 | 191 | 1.6 | 4.8 | 0.00 | 0.00 | 0.00 | 94 | 1018.9 |
| 20260906051721 | 20 | 191 | 1.6 | 4.8 | 0.00 | 0.00 | 0.00 | 94 | 1018.9 |
| 20260906051559 | 20 | 191 | 1.6 | 4.8 | 0.00 | 0.00 | 0.00 | 94 | 1018.8 |
| 20260906051523 | 20 | 191 | 3.2 | 4.8 | 0.00 | 0.00 | 0.00 | 94 | 1018.8 |
| 20260906051401 | 20 | 191 | 3.2 | 4.8 | 0.00 | 0.00 | 0.00 | 94 | 1018.8 |
| 20260906051305 | 20 | 191 | 3.2 | 4.8 | 0.00 | 0.00 | 0.00 | 94 | 1018.8 |
| 20260906051231 | 20 | 191 | 3.2 | 4.8 | 0.00 | 0.00 | 0.00 | 94 | 1018.8 |
| 20260906051135 | 20 | 192 | 3.2 | 4.8 | 0.00 | 0.00 | 0.00 | 94 | 1018.8 |
| 20260906051001 | 20 | 192 | 3.2 | 4.8 | 0.00 | 0.00 | 0.00 | 94 | 1018.7 |
| 20260906050906 | 20 | 192 | 1.6 | 3.2 | 0.00 | 0.00 | 0.00 | 94 | 1018.7 |
| 20260906050831 | 20 | 192 | 1.6 | 3.2 | 0.00 | 0.00 | 0.00 | 94 | 1018.7 |
| 20260906050735 | 20 | 192 | 0.0 | 1.6 | 0.00 | 0.00 | 0.00 | 94 | 1018.8 |
| 20260906050618 | 20 | 192 | 0.0 | 3.2 | 0.00 | 0.00 | 0.00 | 94 | 1018.7 |
| 20260906050542 | 20 | 192 | 0.0 | 3.2 | 0.00 | 0.00 | 0.00 | 94 | 1018.7 |
| 20260906050358 | 20 | 192 | 0.0 | 3.2 | 0.00 | 0.00 | 0.00 | 94 | 1018.7 |
| 20260906050302 | 20 | 192 | 0.0 | 3.2 | 0.00 | 0.00 | 0.00 | 94 | 1018.7 |
| 20260906050211 | 20 | 192 | 0.0 | 3.2 | 0.00 | 0.00 | 0.00 | 94 | 1018.7 |
| 20260906050107 | 20 | 192 | 0.0 | 3.2 | 0.00 | 0.00 | 0.00 | 94 | 1018.8 |
| 20260906050012 | 20 | 192 | 1.6 | 3.2 | 0.00 | 0.00 | 0.00 | 94 | 1018.8 |
| 20260906045937 | 20 | 192 | 1.6 | 3.2 | 0.00 | 0.00 | 0.00 | 94 | 1018.7 |
| 20260906045800 | 20 | 192 | 1.6 | 3.2 | 0.00 | 0.00 | 0.00 | 94 | 1018.7 |
| 20260906045705 | 20 | 192 | 0.0 | 3.2 | 0.00 | 0.00 | 0.00 | 94 | 1018.7 |
| 20260906045614 | 20 | 192 | 0.0 | 3.2 | 0.00 | 0.00 | 0.00 | 94 | 1018.7 |
| 20260906045458 | 20 | 192 | 0.0 | 3.2 | 0.00 | 0.00 | 0.00 | 94 | 1018.8 |
| 20260906045424 | 20 | 192 | 0.0 | 3.2 | 0.00 | 0.00 | 0.00 | 93 | 1018.7 |
| 20260906045326 | 20 | 192 | 0.0 | 3.2 | 0.00 | 0.00 | 0.00 | 94 | 1018.7 |
| 20260906045209 | 20 | 192 | 0.0 | 3.2 | 0.00 | 0.00 | 0.00 | 93 | 1018.7 |
| 20260906045112 | 20 | 192 | 1.6 | 3.2 | 0.00 | 0.00 | 0.00 | 93 | 1018.8 |
| 20260906045016 | 20 | 192 | 1.6 | 3.2 | 0.00 | 0.00 | 0.00 | 94 | 1018.8 |
| 20260906044905 | 20 | 192 | 1.6 | 3.2 | 0.00 | 0.00 | 0.00 | 93 | 1018.8 |
| 20260906044809 | 20 | 192 | 1.6 | 3.2 | 0.00 | 0.00 | 0.00 | 93 | 1018.8 |
| 20260906044713 | 20 | 192 | 1.6 | 3.2 | 0.00 | 0.00 | 0.00 | 93 | 1018.8 |
| 20260906044618 | 20 | 192 | 0.0 | 3.2 | 0.00 | 0.00 | 0.00 | 93 | 1018.8 |
| 20260906044521 | 20 | 192 | 0.0 | 3.2 | 0.00 | 0.00 | 0.00 | 93 | 1018.8 |
| 20260906044400 | 20 | 192 | 0.0 | 3.2 | 0.00 | 0.00 | 0.00 | 93 | 1018.8 |
| 20260906044304 | 20 | 192 | 1.6 | 3.2 | 0.00 | 0.00 | 0.00 | 93 | 1018.9 |
| 20260906044213 | 20 | 192 | 1.6 | 3.2 | 0.00 | 0.00 | 0.00 | 93 | 1018.9 |
| 20260906044117 | 20 | 192 | 1.6 | 3.2 | 0.00 | 0.00 | 0.00 | 93 | 1018.8 |
| 20260906044042 | 20 | 192 | 1.6 | 3.2 | 0.00 | 0.00 | 0.00 | 93 | 1018.8 |
| 20260906043859 | 20 | 192 | 1.6 | 3.2 | 0.00 | 0.00 | 0.00 | 93 | 1018.8 |
| 20260906043805 | 20 | 192 | 1.6 | 3.2 | 0.00 | 0.00 | 0.00 | 93 | 1018.8 |
| 20260906043709 | 20 | 192 | 1.6 | 3.2 | 0.00 | 0.00 | 0.00 | 93 | 1018.8 |
| 20260906043558 | 20 | 192 | 1.6 | 3.2 | 0.00 | 0.00 | 0.00 | 93 | 1018.8 |
| 20260906043523 | 20 | 192 | 1.6 | 3.2 | 0.00 | 0.00 | 0.00 | 93 | 1018.8 |
| 20260906043426 | 20 | 192 | 1.6 | 3.2 | 0.00 | 0.00 | 0.00 | 93 | 1018.8 |
| 20260906043309 | 20 | 192 | 1.6 | 3.2 | 0.00 | 0.00 | 0.00 | 93 | 1018.8 |
| 20260906043215 | 20 | 192 | 1.6 | 1.6 | 0.00 | 0.00 | 0.00 | 93 | 1018.9 |
| 20260906043058 | 20 | 192 | 1.6 | 1.6 | 0.00 | 0.00 | 0.00 | 93 | 1018.9 |
| 20260906043023 | 20 | 192 | 0.0 | 1.6 | 0.00 | 0.00 | 0.00 | 93 | 1018.9 |
| 20260906042906 | 20 | 192 | 0.0 | 0.0 | 0.00 | 0.00 | 0.00 | 93 | 1018.9 |
| 20260906042814 | 20 | 192 | 0.0 | 0.0 | 0.00 | 0.00 | 0.00 | 93 | 1018.9 |
| 20260906042659 | 20 | 192 | 0.0 | 0.0 | 0.00 | 0.00 | 0.00 | 93 | 1018.9 |
| 20260906042603 | 20 | 192 | 0.0 | 0.0 | 0.00 | 0.00 | 0.00 | 93 | 1018.9 |
| 20260906042527 | 20 | 192 | 0.0 | 0.0 | 0.00 | 0.00 | 0.00 | 93 | 1018.9 |
| 20260906042411 | 20 | 192 | 0.0 | 0.0 | 0.00 | 0.00 | 0.00 | 93 | 1018.9 |
| 20260906042315 | 20 | 192 | 0.0 | 0.0 | 0.00 | 0.00 | 0.00 | 93 | 1018.9 |
| 20260906042205 | 20 | 192 | 0.0 | 0.0 | 0.00 | 0.00 | 0.00 | 92 | 1018.9 |
| 20260906042109 | 20 | 192 | 0.0 | 1.6 | 0.00 | 0.00 | 0.00 | 92 | 1018.9 |
| 20260906042014 | 20 | 192 | 0.0 | 1.6 | 0.00 | 0.00 | 0.00 | 92 | 1018.9 |
| 20260906041858 | 20 | 192 | 0.0 | 3.2 | 0.00 | 0.00 | 0.00 | 92 | 1018.9 |
| 20260906041804 | 20 | 192 | 0.0 | 3.2 | 0.00 | 0.00 | 0.00 | 92 | 1018.9 |
| 20260906041707 | 20 | 192 | 0.0 | 3.2 | 0.00 | 0.00 | 0.00 | 92 | 1018.9 |
| 20260906041631 | 20 | 192 | 0.0 | 3.2 | 0.00 | 0.00 | 0.00 | 92 | 1018.9 |
| 20260906041520 | 20 | 192 | 0.0 | 3.2 | 0.00 | 0.00 | 0.00 | 92 | 1018.9 |
| 20260906041358 | 20 | 192 | 0.0 | 3.2 | 0.00 | 0.00 | 0.00 | 92 | 1018.9 |
| 20260906041302 | 20 | 192 | 1.6 | 3.2 | 0.00 | 0.00 | 0.00 | 92 | 1018.9 |
| 20260906041228 | 20 | 192 | 1.6 | 3.2 | 0.00 | 0.00 | 0.00 | 92 | 1018.9 |
| 20260906041111 | 20 | 192 | 1.6 | 3.2 | 0.00 | 0.00 | 0.00 | 92 | 1018.9 |
| 20260906041015 | 20 | 192 | 1.6 | 3.2 | 0.00 | 0.00 | 0.00 | 92 | 1018.9 |
| 20260906040904 | 20 | 192 | 1.6 | 3.2 | 0.00 | 0.00 | 0.00 | 92 | 1018.9 |
| 20260906040809 | 20 | 192 | 1.6 | 3.2 | 0.00 | 0.00 | 0.00 | 92 | 1018.9 |
| 20260906040713 | 20 | 192 | 0.0 | 3.2 | 0.00 | 0.00 | 0.00 | 92 | 1018.9 |
| 20260906040618 | 20 | 192 | 1.6 | 3.2 | 0.00 | 0.00 | 0.00 | 92 | 1018.9 |
| 20260906040502 | 20 | 192 | 1.6 | 3.2 | 0.00 | 0.00 | 0.00 | 92 | 1018.8 |
| 20260906040408 | 20 | 192 | 1.6 | 3.2 | 0.00 | 0.00 | 0.00 | 92 | 1018.8 |
| 20260906040311 | 20 | 192 | 1.6 | 3.2 | 0.00 | 0.00 | 0.00 | 92 | 1018.8 |
| 20260906040220 | 20 | 192 | 1.6 | 3.2 | 0.00 | 0.00 | 0.00 | 92 | 1018.9 |
| 20260906040057 | 20 | 192 | 0.0 | 3.2 | 0.00 | 0.00 | 0.00 | 92 | 1018.9 |
| 20260906040002 | 20 | 192 | 0.0 | 3.2 | 0.00 | 0.00 | 0.00 | 92 | 1018.9 |
| 20260906035906 | 20 | 192 | 0.0 | 3.2 | 0.00 | 0.00 | 0.00 | 92 | 1018.9 |
| 20260906035811 | 20 | 192 | 0.0 | 3.2 | 0.00 | 0.00 | 0.00 | 92 | 1018.9 |
| 20260906035700 | 20 | 192 | 1.6 | 3.2 | 0.00 | 0.00 | 0.00 | 92 | 1018.9 |
| 20260906035603 | 20 | 192 | 1.6 | 3.2 | 0.00 | 0.00 | 0.00 | 92 | 1018.9 |
| 20260906035508 | 20 | 192 | 1.6 | 3.2 | 0.00 | 0.00 | 0.00 | 92 | 1018.9 |
| 20260906035432 | 20 | 192 | 1.6 | 3.2 | 0.00 | 0.00 | 0.00 | 92 | 1018.9 |
| 20260906035315 | 20 | 192 | 1.6 | 3.2 | 0.00 | 0.00 | 0.00 | 92 | 1018.8 |
| 20260906035220 | 20 | 192 | 1.6 | 3.2 | 0.00 | 0.00 | 0.00 | 92 | 1018.9 |
| 20260906035057 | 20 | 192 | 1.6 | 1.6 | 0.00 | 0.00 | 0.00 | 92 | 1018.8 |
| 20260906035026 | 20 | 192 | 0.0 | 1.6 | 0.00 | 0.00 | 0.00 | 92 | 1018.9 |
| 20260906034909 | 20 | 192 | 0.0 | 0.0 | 0.00 | 0.00 | 0.00 | 92 | 1018.9 |
| 20260906034813 | 20 | 192 | 0.0 | 0.0 | 0.00 | 0.00 | 0.00 | 92 | 1018.8 |
| 20260906034736 | 20 | 192 | 0.0 | 0.0 | 0.00 | 0.00 | 0.00 | 92 | 1018.9 |
| 20260906034601 | 20 | 192 | 0.0 | 0.0 | 0.00 | 0.00 | 0.00 | 91 | 1018.9 |
| 20260906034505 | 20 | 192 | 0.0 | 1.6 | 0.00 | 0.00 | 0.00 | 91 | 1018.9 |
| 20260906034430 | 20 | 192 | 0.0 | 3.2 | 0.00 | 0.00 | 0.00 | 91 | 1018.9 |
| 20260906034258 | 20 | 192 | 0.0 | 3.2 | 0.00 | 0.00 | 0.00 | 91 | 1018.9 |
| 20260906034203 | 20 | 192 | 0.0 | 3.2 | 0.00 | 0.00 | 0.00 | 91 | 1018.9 |
| 20260906034106 | 20 | 192 | 0.0 | 3.2 | 0.00 | 0.00 | 0.00 | 91 | 1018.9 |
| 20260906034012 | 20 | 192 | 0.0 | 3.2 | 0.00 | 0.00 | 0.00 | 91 | 1018.9 |
| 20260906033936 | 20 | 192 | 0.0 | 3.2 | 0.00 | 0.00 | 0.00 | 91 | 1018.9 |
| 20260906033800 | 20 | 192 | 1.6 | 3.2 | 0.00 | 0.00 | 0.00 | 91 | 1018.9 |
| 20260906033708 | 20 | 192 | 1.6 | 3.2 | 0.00 | 0.00 | 0.00 | 91 | 1018.9 |
| 20260906033612 | 20 | 192 | 1.6 | 3.2 | 0.00 | 0.00 | 0.00 | 91 | 1018.9 |
| 20260906033517 | 20 | 192 | 3.2 | 3.2 | 0.00 | 0.00 | 0.00 | 91 | 1019.0 |
| 20260906033402 | 20 | 192 | 3.2 | 3.2 | 0.00 | 0.00 | 0.00 | 91 | 1018.9 |
| 20260906033327 | 20 | 192 | 3.2 | 3.2 | 0.00 | 0.00 | 0.00 | 91 | 1018.9 |
| 20260906033209 | 20 | 192 | 3.2 | 3.2 | 0.00 | 0.00 | 0.00 | 91 | 1018.9 |
| 20260906033113 | 20 | 192 | 3.2 | 3.2 | 0.00 | 0.00 | 0.00 | 90 | 1018.9 |
| 20260906033021 | 20 | 192 | 1.6 | 3.2 | 0.00 | 0.00 | 0.00 | 90 | 1018.9 |
| 20260906032926 | 20 | 192 | 1.6 | 3.2 | 0.00 | 0.00 | 0.00 | 90 | 1019.0 |
| 20260906032809 | 20 | 192 | 1.6 | 3.2 | 0.00 | 0.00 | 0.00 | 90 | 1019.0 |
| 20260906032713 | 20 | 192 | 0.0 | 3.2 | 0.00 | 0.00 | 0.00 | 90 | 1019.0 |
| 20260906032558 | 20 | 192 | 0.0 | 0.0 | 0.00 | 0.00 | 0.00 | 90 | 1019.0 |
| 20260906032504 | 20 | 192 | 0.0 | 0.0 | 0.00 | 0.00 | 0.00 | 90 | 1019.0 |
| 20260906032428 | 20 | 192 | 0.0 | 1.6 | 0.00 | 0.00 | 0.00 | 90 | 1019.0 |
| 20260906032256 | 20 | 192 | 0.0 | 1.6 | 0.00 | 0.00 | 0.00 | 90 | 1019.1 |
| 20260906032202 | 20 | 192 | 0.0 | 1.6 | 0.00 | 0.00 | 0.00 | 89 | 1019.0 |
| 20260906032107 | 20 | 192 | 0.0 | 1.6 | 0.00 | 0.00 | 0.00 | 89 | 1019.1 |
| 20260906032011 | 20 | 192 | 0.0 | 1.6 | 0.00 | 0.00 | 0.00 | 89 | 1019.1 |
| 20260906031936 | 20 | 192 | 0.0 | 1.6 | 0.00 | 0.00 | 0.00 | 89 | 1019.1 |
| 20260906031800 | 20 | 192 | 0.0 | 1.6 | 0.00 | 0.00 | 0.00 | 89 | 1019.1 |
| 20260906031708 | 20 | 192 | 0.0 | 1.6 | 0.00 | 0.00 | 0.00 | 89 | 1019.1 |
| 20260906031613 | 20 | 192 | 0.0 | 1.6 | 0.00 | 0.00 | 0.00 | 89 | 1019.2 |
| 20260906031519 | 21 | 192 | 0.0 | 1.6 | 0.00 | 0.00 | 0.00 | 89 | 1019.1 |
| 20260906031444 | 21 | 192 | 0.0 | 1.6 | 0.00 | 0.00 | 0.00 | 89 | 1019.1 |
| 20260906031300 | 21 | 192 | 0.0 | 1.6 | 0.00 | 0.00 | 0.00 | 89 | 1019.0 |
| 20260906031204 | 21 | 192 | 0.0 | 3.2 | 0.00 | 0.00 | 0.00 | 89 | 1019.1 |
| 20260906031109 | 21 | 192 | 0.0 | 3.2 | 0.00 | 0.00 | 0.00 | 89 | 1019.1 |
| 20260906031017 | 21 | 192 | 0.0 | 3.2 | 0.00 | 0.00 | 0.00 | 89 | 1019.0 |
| 20260906030942 | 21 | 192 | 0.0 | 3.2 | 0.00 | 0.00 | 0.00 | 88 | 1019.1 |
| 20260906030759 | 21 | 192 | 0.0 | 3.2 | 0.00 | 0.00 | 0.00 | 89 | 1019.1 |
| 20260906030704 | 21 | 192 | 0.0 | 3.2 | 0.00 | 0.00 | 0.00 | 89 | 1019.0 |
| 20260906030608 | 21 | 192 | 1.6 | 3.2 | 0.00 | 0.00 | 0.00 | 89 | 1019.0 |
| 20260906030514 | 21 | 192 | 1.6 | 3.2 | 0.00 | 0.00 | 0.00 | 89 | 1019.1 |
| 20260906030422 | 21 | 192 | 1.6 | 3.2 | 0.00 | 0.00 | 0.00 | 89 | 1019.0 |
| 20260906030258 | 21 | 192 | 1.6 | 3.2 | 0.00 | 0.00 | 0.00 | 89 | 1019.1 |
| 20260906030202 | 21 | 192 | 1.6 | 3.2 | 0.00 | 0.00 | 0.00 | 89 | 1019.1 |
| 20260906030108 | 21 | 192 | 1.6 | 3.2 | 0.00 | 0.00 | 0.00 | 89 | 1019.0 |
| 20260906030012 | 21 | 192 | 1.6 | 3.2 | 0.00 | 0.00 | 0.00 | 89 | 1019.0 |
| 20260906025916 | 21 | 192 | 1.6 | 3.2 | 0.00 | 0.00 | 0.00 | 88 | 1019.1 |
| 20260906025804 | 21 | 192 | 1.6 | 1.6 | 0.00 | 0.00 | 0.00 | 88 | 1019.1 |
| 20260906025706 | 21 | 192 | 1.6 | 1.6 | 0.00 | 0.00 | 0.00 | 87 | 1019.1 |
| 20260906025609 | 21 | 192 | 0.0 | 1.6 | 0.00 | 0.00 | 0.00 | 87 | 1019.1 |
| 20260906025514 | 21 | 192 | 0.0 | 1.6 | 0.00 | 0.00 | 0.00 | 87 | 1019.1 |
| 20260906025401 | 21 | 192 | 0.0 | 1.6 | 0.00 | 0.00 | 0.00 | 87 | 1019.2 |
| 20260906025324 | 21 | 192 | 0.0 | 1.6 | 0.00 | 0.00 | 0.00 | 87 | 1019.2 |
| 20260906025208 | 21 | 192 | 0.0 | 1.6 | 0.00 | 0.00 | 0.00 | 87 | 1019.2 |
| 20260906025057 | 21 | 192 | 0.0 | 1.6 | 0.00 | 0.00 | 0.00 | 87 | 1019.3 |
| 20260906025022 | 21 | 192 | 0.0 | 1.6 | 0.00 | 0.00 | 0.00 | 87 | 1019.3 |
| 20260906024859 | 21 | 192 | 0.0 | 0.0 | 0.00 | 0.00 | 0.00 | 87 | 1019.4 |
| 20260906024803 | 21 | 192 | 0.0 | 0.0 | 0.00 | 0.00 | 0.00 | 87 | 1019.3 |
| 20260906024729 | 21 | 192 | 0.0 | 0.0 | 0.00 | 0.00 | 0.00 | 87 | 1019.3 |
| 20260906024632 | 21 | 192 | 0.0 | 0.0 | 0.00 | 0.00 | 0.00 | 87 | 1019.3 |
| 20260906024500 | 21 | 192 | 0.0 | 0.0 | 0.00 | 0.00 | 0.00 | 87 | 1019.2 |
| 20260906024405 | 21 | 192 | 0.0 | 0.0 | 0.00 | 0.00 | 0.00 | 87 | 1019.2 |
| 20260906024329 | 21 | 192 | 0.0 | 0.0 | 0.00 | 0.00 | 0.00 | 87 | 1019.2 |
| 20260906024213 | 21 | 192 | 0.0 | 0.0 | 0.00 | 0.00 | 0.00 | 86 | 1019.1 |
| 20260906024058 | 21 | 192 | 0.0 | 0.0 | 0.00 | 0.00 | 0.00 | 86 | 1019.1 |
| 20260906024004 | 21 | 192 | 0.0 | 0.0 | 0.00 | 0.00 | 0.00 | 86 | 1019.1 |
| 20260906023908 | 21 | 192 | 0.0 | 0.0 | 0.00 | 0.00 | 0.00 | 86 | 1019.1 |
| 20260906023837 | 21 | 192 | 0.0 | 0.0 | 0.00 | 0.00 | 0.00 | 86 | 1019.1 |
| 20260906023700 | 21 | 192 | 0.0 | 0.0 | 0.00 | 0.00 | 0.00 | 86 | 1019.0 |
| 20260906023624 | 21 | 192 | 0.0 | 0.0 | 0.00 | 0.00 | 0.00 | 86 | 1019.0 |
| 20260906023528 | 21 | 192 | 0.0 | 0.0 | 0.00 | 0.00 | 0.00 | 86 | 1018.9 |
| 20260906023412 | 21 | 192 | 0.0 | 0.0 | 0.00 | 0.00 | 0.00 | 86 | 1018.9 |
| 20260906023257 | 21 | 192 | 0.0 | 0.0 | 0.00 | 0.00 | 0.00 | 86 | 1018.9 |
| 20260906023201 | 21 | 192 | 0.0 | 0.0 | 0.00 | 0.00 | 0.00 | 86 | 1018.9 |
| 20260906023110 | 21 | 192 | 0.0 | 0.0 | 0.00 | 0.00 | 0.00 | 86 | 1018.9 |
| 20260906023014 | 21 | 192 | 0.0 | 0.0 | 0.00 | 0.00 | 0.00 | 85 | 1018.9 |
| 20260906022920 | 21 | 192 | 0.0 | 1.6 | 0.00 | 0.00 | 0.00 | 85 | 1018.8 |
| 20260906022757 | 21 | 192 | 0.0 | 1.6 | 0.00 | 0.00 | 0.00 | 85 | 1018.8 |
| 20260906022721 | 21 | 192 | 0.0 | 1.6 | 0.00 | 0.00 | 0.00 | 85 | 1018.9 |
| 20260906022604 | 21 | 192 | 0.0 | 1.6 | 0.00 | 0.00 | 0.00 | 85 | 1018.8 |
| 20260906022513 | 21 | 192 | 0.0 | 1.6 | 0.00 | 0.00 | 0.00 | 85 | 1018.8 |
| 20260906022417 | 21 | 192 | 0.0 | 3.2 | 0.00 | 0.00 | 0.00 | 84 | 1018.8 |
| 20260906022301 | 21 | 192 | 0.0 | 3.2 | 0.00 | 0.00 | 0.00 | 84 | 1018.9 |
| 20260906022206 | 21 | 192 | 0.0 | 3.2 | 0.00 | 0.00 | 0.00 | 84 | 1018.8 |
| 20260906022130 | 22 | 192 | 0.0 | 3.2 | 0.00 | 0.00 | 0.00 | 84 | 1018.7 |
| 20260906022032 | 22 | 192 | 1.6 | 3.2 | 0.00 | 0.00 | 0.00 | 84 | 1018.7 |
| 20260906021915 | 22 | 192 | 1.6 | 3.2 | 0.00 | 0.00 | 0.00 | 84 | 1018.7 |
| 20260906021805 | 22 | 192 | 1.6 | 3.2 | 0.00 | 0.00 | 0.00 | 84 | 1018.6 |
| 20260906021709 | 22 | 192 | 1.6 | 4.8 | 0.00 | 0.00 | 0.00 | 84 | 1018.6 |
| 20260906021614 | 22 | 192 | 1.6 | 4.8 | 0.00 | 0.00 | 0.00 | 84 | 1018.7 |
| 20260906021519 | 22 | 192 | 1.6 | 4.8 | 0.00 | 0.00 | 0.00 | 84 | 1018.5 |
| 20260906021357 | 22 | 192 | 1.6 | 4.8 | 0.00 | 0.00 | 0.00 | 84 | 1018.5 |
| 20260906021321 | 22 | 192 | 1.6 | 4.8 | 0.00 | 0.00 | 0.00 | 85 | 1018.5 |
| 20260906021205 | 22 | 192 | 3.2 | 4.8 | 0.00 | 0.00 | 0.00 | 85 | 1018.4 |
| 20260906021113 | 22 | 192 | 3.2 | 4.8 | 0.00 | 0.00 | 0.00 | 84 | 1018.4 |
| 20260906021016 | 22 | 192 | 3.2 | 4.8 | 0.00 | 0.00 | 0.00 | 84 | 1018.4 |
| 20260906020920 | 22 | 192 | 3.2 | 4.8 | 0.00 | 0.00 | 0.00 | 84 | 1018.4 |
| 20260906020757 | 22 | 192 | 3.2 | 4.8 | 0.00 | 0.00 | 0.00 | 84 | 1018.4 |
| 20260906020702 | 22 | 192 | 4.8 | 4.8 | 0.00 | 0.00 | 0.00 | 84 | 1018.3 |
| 20260906020627 | 22 | 192 | 3.2 | 4.8 | 0.00 | 0.00 | 0.00 | 83 | 1018.3 |
| 20260906020510 | 22 | 192 | 3.2 | 4.8 | 0.00 | 0.00 | 0.00 | 83 | 1018.3 |
| 20260906020420 | 22 | 192 | 3.2 | 3.2 | 0.00 | 0.00 | 0.00 | 83 | 1018.3 |
| 20260906020257 | 22 | 192 | 1.6 | 3.2 | 0.00 | 0.00 | 0.00 | 83 | 1018.1 |
| 20260906020221 | 22 | 192 | 1.6 | 3.2 | 0.00 | 0.00 | 0.00 | 83 | 1018.1 |
| 20260906020059 | 22 | 192 | 1.6 | 3.2 | 0.00 | 0.00 | 0.00 | 83 | 1018.0 |
| 20260906020004 | 22 | 192 | 0.0 | 1.6 | 0.00 | 0.00 | 0.00 | 82 | 1018.0 |
| 20260906015909 | 22 | 192 | 0.0 | 1.6 | 0.00 | 0.00 | 0.00 | 82 | 1018.0 |
| 20260906015757 | 22 | 192 | 0.0 | 0.0 | 0.00 | 0.00 | 0.00 | 82 | 1017.9 |
| 20260906015702 | 22 | 192 | 0.0 | 0.0 | 0.00 | 0.00 | 0.00 | 82 | 1017.9 |
| 20260906015628 | 22 | 192 | 0.0 | 0.0 | 0.00 | 0.00 | 0.00 | 82 | 1017.9 |
| 20260906015511 | 23 | 192 | 0.0 | 1.6 | 0.00 | 0.00 | 0.00 | 82 | 1017.9 |
| 20260906015357 | 23 | 192 | 0.0 | 1.6 | 0.00 | 0.00 | 0.00 | 82 | 1017.8 |
| 20260906015301 | 23 | 192 | 0.0 | 1.6 | 0.00 | 0.00 | 0.00 | 82 | 1017.8 |
| 20260906015208 | 23 | 192 | 0.0 | 1.6 | 0.00 | 0.00 | 0.00 | 82 | 1017.7 |
| 20260906015112 | 23 | 192 | 0.0 | 1.6 | 0.00 | 0.00 | 0.00 | 81 | 1017.7 |
| 20260906015018 | 23 | 192 | 0.0 | 1.6 | 0.00 | 0.00 | 0.00 | 81 | 1017.7 |
| 20260906014901 | 23 | 192 | 0.0 | 1.6 | 0.00 | 0.00 | 0.00 | 81 | 1017.7 |
| 20260906014807 | 23 | 192 | 0.0 | 1.6 | 0.00 | 0.00 | 0.00 | 81 | 1017.7 |
| 20260906014711 | 23 | 192 | 0.0 | 1.6 | 0.00 | 0.00 | 0.00 | 81 | 1017.7 |
| 20260906014600 | 23 | 192 | 0.0 | 1.6 | 0.00 | 0.00 | 0.00 | 81 | 1017.6 |
| 20260906014504 | 23 | 192 | 0.0 | 1.6 | 0.00 | 0.00 | 0.00 | 80 | 1017.6 |
| 20260906014408 | 23 | 192 | 0.0 | 1.6 | 0.00 | 0.00 | 0.00 | 80 | 1017.5 |
| 20260906014311 | 23 | 192 | 0.0 | 1.6 | 0.00 | 0.00 | 0.00 | 80 | 1017.5 |
| 20260906014215 | 23 | 192 | 1.6 | 1.6 | 0.00 | 0.00 | 0.00 | 80 | 1017.5 |
| 20260906014101 | 23 | 192 | 0.0 | 3.2 | 0.00 | 0.00 | 0.00 | 80 | 1017.4 |
| 20260906014010 | 23 | 192 | 0.0 | 3.2 | 0.00 | 0.00 | 0.00 | 80 | 1017.4 |
| 20260906013935 | 23 | 192 | 0.0 | 3.2 | 0.00 | 0.00 | 0.00 | 79 | 1017.4 |
| 20260906013759 | 23 | 192 | 0.0 | 3.2 | 0.00 | 0.00 | 0.00 | 79 | 1017.4 |
| 20260906013702 | 23 | 192 | 0.0 | 4.8 | 0.00 | 0.00 | 0.00 | 79 | 1017.3 |
| 20260906013608 | 23 | 192 | 0.0 | 4.8 | 0.00 | 0.00 | 0.00 | 79 | 1017.3 |
| 20260906013512 | 23 | 192 | 0.0 | 6.4 | 0.00 | 0.00 | 0.00 | 79 | 1017.3 |
| 20260906013422 | 23 | 192 | 0.0 | 6.4 | 0.00 | 0.00 | 0.00 | 79 | 1017.4 |
| 20260906013259 | 24 | 192 | 1.6 | 6.4 | 0.00 | 0.00 | 0.00 | 79 | 1017.2 |
| 20260906013203 | 24 | 192 | 1.6 | 6.4 | 0.00 | 0.00 | 0.00 | 79 | 1017.2 |
| 20260906013107 | 24 | 192 | 1.6 | 6.4 | 0.00 | 0.00 | 0.00 | 78 | 1017.2 |
| 20260906013011 | 24 | 192 | 1.6 | 6.4 | 0.00 | 0.00 | 0.00 | 78 | 1017.2 |
| 20260906012915 | 24 | 192 | 3.2 | 6.4 | 0.00 | 0.00 | 0.00 | 78 | 1017.2 |
| 20260906012804 | 24 | 192 | 3.2 | 6.4 | 0.00 | 0.00 | 0.00 | 78 | 1017.2 |
| 20260906012729 | 24 | 192 | 3.2 | 6.4 | 0.00 | 0.00 | 0.00 | 78 | 1017.1 |
| 20260906012612 | 24 | 215 | 3.2 | 6.4 | 0.00 | 0.00 | 0.00 | 78 | 1017.1 |
| 20260906012456 | 24 | 215 | 4.8 | 6.4 | 0.00 | 0.00 | 0.00 | 77 | 1017.1 |
| 20260906012422 | 24 | 215 | 4.8 | 6.4 | 0.00 | 0.00 | 0.00 | 77 | 1017.1 |
| 20260906012306 | 24 | 216 | 4.8 | 6.4 | 0.00 | 0.00 | 0.00 | 77 | 1017.1 |
| 20260906012210 | 24 | 216 | 4.8 | 6.4 | 0.00 | 0.00 | 0.00 | 77 | 1017.1 |
| 20260906012058 | 24 | 216 | 4.8 | 6.4 | 0.00 | 0.00 | 0.00 | 77 | 1017.1 |
| 20260906012003 | 24 | 216 | 3.2 | 6.4 | 0.00 | 0.00 | 0.00 | 77 | 1017.1 |
| 20260906011928 | 24 | 216 | 3.2 | 6.4 | 0.00 | 0.00 | 0.00 | 77 | 1017.1 |
| 20260906011811 | 24 | 216 | 3.2 | 6.4 | 0.00 | 0.00 | 0.00 | 77 | 1017.1 |
| 20260906011716 | 25 | 216 | 3.2 | 6.4 | 0.00 | 0.00 | 0.00 | 76 | 1017.1 |
| 20260906011600 | 25 | 216 | 3.2 | 8.0 | 0.00 | 0.00 | 0.00 | 76 | 1017.1 |
| 20260906011509 | 25 | 216 | 3.2 | 9.7 | 0.00 | 0.00 | 0.00 | 76 | 1017.1 |
| 20260906011414 | 25 | 216 | 4.8 | 9.7 | 0.00 | 0.00 | 0.00 | 76 | 1017.1 |
| 20260906011259 | 25 | 216 | 4.8 | 9.7 | 0.00 | 0.00 | 0.00 | 76 | 1017.1 |
| 20260906011204 | 25 | 216 | 4.8 | 9.7 | 0.00 | 0.00 | 0.00 | 76 | 1017.1 |
| 20260906011107 | 25 | 216 | 4.8 | 9.7 | 0.00 | 0.00 | 0.00 | 76 | 1017.0 |
| 20260906011011 | 25 | 216 | 4.8 | 9.7 | 0.00 | 0.00 | 0.00 | 76 | 1017.0 |
| 20260906010920 | 25 | 216 | 4.8 | 9.7 | 0.00 | 0.00 | 0.00 | 76 | 1017.1 |
| 20260906010756 | 25 | 216 | 6.4 | 9.7 | 0.00 | 0.00 | 0.00 | 76 | 1016.9 |
| 20260906010700 | 25 | 215 | 4.8 | 9.7 | 0.00 | 0.00 | 0.00 | 76 | 1016.9 |
| 20260906010605 | 25 | 217 | 4.8 | 11.3 | 0.00 | 0.00 | 0.00 | 75 | 1016.9 |
| 20260906010509 | 25 | 204 | 4.8 | 11.3 | 0.00 | 0.00 | 0.00 | 75 | 1016.9 |
| 20260906010358 | 25 | 204 | 4.8 | 11.3 | 0.00 | 0.00 | 0.00 | 75 | 1016.8 |
| 20260906010302 | 25 | 204 | 6.4 | 11.3 | 0.00 | 0.00 | 0.00 | 75 | 1016.7 |
| 20260906010207 | 25 | 203 | 4.8 | 11.3 | 0.00 | 0.00 | 0.00 | 75 | 1016.7 |
| 20260906010111 | 25 | 178 | 4.8 | 11.3 | 0.00 | 0.00 | 0.00 | 75 | 1016.7 |
| 20260906005956 | 25 | 198 | 4.8 | 11.3 | 0.00 | 0.00 | 0.00 | 75 | 1016.6 |
| 20260906005902 | 25 | 198 | 6.4 | 11.3 | 0.00 | 0.00 | 0.00 | 75 | 1016.6 |
| 20260906005810 | 25 | 199 | 8.0 | 11.3 | 0.00 | 0.00 | 0.00 | 75 | 1016.6 |
| 20260906005714 | 25 | 192 | 6.4 | 11.3 | 0.00 | 0.00 | 0.00 | 74 | 1016.6 |
| 20260906005558 | 25 | 194 | 4.8 | 11.3 | 0.00 | 0.00 | 0.00 | 74 | 1016.6 |
| 20260906005503 | 25 | 220 | 4.8 | 14.5 | 0.00 | 0.00 | 0.00 | 74 | 1016.6 |
| 20260906005407 | 25 | 221 | 4.8 | 14.5 | 0.00 | 0.00 | 0.00 | 74 | 1016.6 |
| 20260906005330 | 26 | 236 | 1.6 | 14.5 | 0.00 | 0.00 | 0.00 | 74 | 1016.6 |
| 20260906005235 | 26 | 240 | 3.2 | 14.5 | 0.00 | 0.00 | 0.00 | 74 | 1016.6 |
| 20260906005122 | 26 | 240 | 4.8 | 14.5 | 0.00 | 0.00 | 0.00 | 74 | 1016.6 |
| 20260906005005 | 26 | 213 | 6.4 | 17.7 | 0.00 | 0.00 | 0.00 | 74 | 1016.5 |
| 20260906004908 | 26 | 212 | 9.7 | 17.7 | 0.00 | 0.00 | 0.00 | 74 | 1016.5 |
| 20260906004812 | 26 | 231 | 9.7 | 17.7 | 0.00 | 0.00 | 0.00 | 74 | 1016.5 |
| 20260906004737 | 26 | 242 | 9.7 | 20.9 | 0.00 | 0.00 | 0.00 | 74 | 1016.5 |
| 20260906004601 | 26 | 260 | 11.3 | 20.9 | 0.00 | 0.00 | 0.00 | 74 | 1016.5 |
| 20260906004504 | 26 | 218 | 9.7 | 20.9 | 0.00 | 0.00 | 0.00 | 74 | 1016.4 |
| 20260906004434 | 26 | 205 | 9.7 | 20.9 | 0.00 | 0.00 | 0.00 | 74 | 1016.4 |
| 20260906004318 | 26 | 234 | 9.7 | 20.9 | 0.00 | 0.00 | 0.00 | 74 | 1016.4 |
| 20260906004240 | 26 | 224 | 9.7 | 20.9 | 0.00 | 0.00 | 0.00 | 74 | 1016.3 |
| 20260906004057 | 26 | 224 | 8.0 | 20.9 | 0.00 | 0.00 | 0.00 | 74 | 1016.2 |
| 20260906004001 | 26 | 213 | 11.3 | 20.9 | 0.00 | 0.00 | 0.00 | 74 | 1016.2 |
| 20260906003905 | 26 | 198 | 12.9 | 20.9 | 0.00 | 0.00 | 0.00 | 74 | 1016.1 |
| 20260906003830 | 26 | 207 | 11.3 | 22.5 | 0.00 | 0.00 | 0.00 | 74 | 1016.1 |
| 20260906003659 | 26 | 211 | 9.7 | 16.1 | 0.00 | 0.00 | 0.00 | 74 | 1016.0 |
| 20260906003603 | 26 | 197 | 11.3 | 16.1 | 0.00 | 0.00 | 0.00 | 74 | 1016.0 |
| 20260906003507 | 26 | 195 | 11.3 | 16.1 | 0.00 | 0.00 | 0.00 | 74 | 1016.1 |
| 20260906003431 | 26 | 193 | 11.3 | 16.1 | 0.00 | 0.00 | 0.00 | 74 | 1016.1 |
| 20260906003316 | 26 | 211 | 11.3 | 16.1 | 0.00 | 0.00 | 0.00 | 74 | 1016.1 |
| 20260906003221 | 26 | 201 | 11.3 | 16.1 | 0.00 | 0.00 | 0.00 | 73 | 1016.2 |
| 20260906003105 | 26 | 219 | 11.3 | 16.1 | 0.00 | 0.00 | 0.00 | 74 | 1016.1 |
| 20260906003013 | 26 | 207 | 12.9 | 16.1 | 0.00 | 0.00 | 0.00 | 74 | 1016.1 |
| 20260906002858 | 26 | 197 | 11.3 | 14.5 | 0.00 | 0.00 | 0.00 | 74 | 1016.1 |
| 20260906002823 | 26 | 206 | 11.3 | 14.5 | 0.00 | 0.00 | 0.00 | 74 | 1016.1 |
| 20260906002706 | 26 | 202 | 11.3 | 14.5 | 0.00 | 0.00 | 0.00 | 74 | 1016.1 |
| 20260906002610 | 26 | 218 | 9.7 | 14.5 | 0.00 | 0.00 | 0.00 | 74 | 1016.1 |
| 20260906002534 | 26 | 209 | 9.7 | 12.9 | 0.00 | 0.00 | 0.00 | 74 | 1016.1 |
| 20260906002400 | 26 | 209 | 8.0 | 12.9 | 0.00 | 0.00 | 0.00 | 73 | 1016.2 |
| 20260906002306 | 26 | 209 | 8.0 | 14.5 | 0.00 | 0.00 | 0.00 | 73 | 1016.1 |
| 20260906002229 | 26 | 213 | 8.0 | 16.1 | 0.00 | 0.00 | 0.00 | 73 | 1016.1 |
| 20260906002132 | 26 | 208 | 9.7 | 16.1 | 0.00 | 0.00 | 0.00 | 73 | 1016.1 |
| 20260906002017 | 26 | 194 | 9.7 | 16.1 | 0.00 | 0.00 | 0.00 | 73 | 1016.1 |
| 20260906001942 | 26 | 206 | 9.7 | 16.1 | 0.00 | 0.00 | 0.00 | 73 | 1016.1 |
| 20260906001758 | 26 | 202 | 9.7 | 16.1 | 0.00 | 0.00 | 0.00 | 73 | 1016.0 |
| 20260906001703 | 26 | 196 | 11.3 | 16.1 | 0.00 | 0.00 | 0.00 | 73 | 1016.0 |
| 20260906001612 | 26 | 190 | 11.3 | 16.1 | 0.00 | 0.00 | 0.00 | 73 | 1016.0 |
| 20260906001458 | 26 | 220 | 11.3 | 16.1 | 0.00 | 0.00 | 0.00 | 73 | 1016.1 |
| 20260906001401 | 26 | 205 | 12.9 | 16.1 | 0.00 | 0.00 | 0.00 | 73 | 1016.1 |
| 20260906001230 | 27 | 206 | 9.7 | 17.7 | 0.00 | 0.00 | 0.00 | 73 | 1016.1 |
| 20260906001114 | 27 | 212 | 9.7 | 16.1 | 0.00 | 0.00 | 0.00 | 73 | 1016.2 |
| 20260906001023 | 27 | 196 | 11.3 | 16.1 | 0.00 | 0.00 | 0.00 | 73 | 1016.2 |
| 20260906000900 | 27 | 201 | 9.7 | 16.1 | 0.00 | 0.00 | 0.00 | 73 | 1016.2 |
| 20260906000804 | 27 | 190 | 8.0 | 12.9 | 0.00 | 0.00 | 0.00 | 72 | 1016.2 |
| 20260906000708 | 27 | 166 | 8.0 | 12.9 | 0.00 | 0.00 | 0.00 | 73 | 1016.2 |
| 20260906000614 | 27 | 189 | 8.0 | 12.9 | 0.00 | 0.00 | 0.00 | 72 | 1016.3 |
| 20260906000519 | 27 | 193 | 8.0 | 12.9 | 0.00 | 0.00 | 0.00 | 72 | 1016.3 |
| 20260906000422 | 27 | 196 | 8.0 | 12.9 | 0.00 | 0.00 | 0.00 | 72 | 1016.2 |
| 20260906000311 | 27 | 196 | 8.0 | 12.9 | 0.00 | 0.00 | 0.00 | 72 | 1016.2 |
| 20260906000216 | 27 | 209 | 8.0 | 12.9 | 0.00 | 0.00 | 0.00 | 72 | 1016.2 |
| 20260906000121 | 27 | 224 | 8.0 | 12.9 | 0.00 | 0.00 | 0.00 | 72 | 1016.3 |
| 20260905235958 | 27 | 209 | 9.7 | 12.9 | 0.00 | 0.00 | 0.00 | 72 | 1016.3 |
| 20260905235903 | 27 | 205 | 9.7 | 12.9 | 0.00 | 0.00 | 0.00 | 72 | 1016.3 |
| 20260905235828 | 27 | 204 | 9.7 | 12.9 | 0.00 | 0.00 | 0.00 | 72 | 1016.3 |
| 20260905235716 | 27 | 198 | 8.0 | 12.9 | 0.00 | 0.00 | 0.00 | 72 | 1016.3 |
| 20260905235619 | 27 | 222 | 6.4 | 12.9 | 0.00 | 0.00 | 0.00 | 72 | 1016.4 |
| 20260905235457 | 27 | 196 | 6.4 | 17.7 | 0.00 | 0.00 | 0.00 | 72 | 1016.4 |
| 20260905235400 | 27 | 196 | 8.0 | 17.7 | 0.00 | 0.00 | 0.00 | 72 | 1016.4 |
| 20260905235306 | 27 | 178 | 8.0 | 17.7 | 0.00 | 0.00 | 0.00 | 72 | 1016.4 |
| 20260905235208 | 27 | 197 | 6.4 | 17.7 | 0.00 | 0.00 | 0.00 | 72 | 1016.4 |
| 20260905235116 | 27 | 196 | 8.0 | 17.7 | 0.00 | 0.00 | 0.00 | 72 | 1016.4 |
| 20260905235019 | 27 | 142 | 8.0 | 17.7 | 0.00 | 0.00 | 0.00 | 72 | 1016.4 |
| 20260905234856 | 27 | 171 | 8.0 | 17.7 | 0.00 | 0.00 | 0.00 | 71 | 1016.2 |
| 20260905234823 | 27 | 158 | 11.3 | 17.7 | 0.00 | 0.00 | 0.00 | 71 | 1016.2 |
| 20260905234700 | 27 | 188 | 11.3 | 17.7 | 0.00 | 0.00 | 0.00 | 71 | 1016.3 |
| 20260905234624 | 27 | 194 | 9.7 | 16.1 | 0.00 | 0.00 | 0.00 | 71 | 1016.3 |
| 20260905234508 | 27 | 183 | 9.7 | 19.3 | 0.00 | 0.00 | 0.00 | 71 | 1016.3 |
| 20260905234416 | 27 | 199 | 9.7 | 19.3 | 0.00 | 0.00 | 0.00 | 71 | 1016.3 |
| 20260905234321 | 27 | 194 | 11.3 | 19.3 | 0.00 | 0.00 | 0.00 | 71 | 1016.3 |
| 20260905234158 | 27 | 170 | 9.7 | 19.3 | 0.00 | 0.00 | 0.00 | 71 | 1016.3 |
| 20260905234104 | 27 | 161 | 8.0 | 19.3 | 0.00 | 0.00 | 0.00 | 71 | 1016.3 |
| 20260905234009 | 27 | 157 | 8.0 | 19.3 | 0.00 | 0.00 | 0.00 | 71 | 1016.3 |
| 20260905233857 | 27 | 142 | 9.7 | 19.3 | 0.00 | 0.00 | 0.00 | 71 | 1016.2 |
| 20260905233822 | 27 | 194 | 11.3 | 19.3 | 0.00 | 0.00 | 0.00 | 71 | 1016.2 |
| 20260905233659 | 27 | 159 | 11.3 | 19.3 | 0.00 | 0.00 | 0.00 | 71 | 1016.2 |
| 20260905233603 | 27 | 169 | 8.0 | 17.7 | 0.00 | 0.00 | 0.00 | 71 | 1016.2 |
| 20260905233505 | 27 | 169 | 8.0 | 12.9 | 0.00 | 0.00 | 0.00 | 71 | 1016.2 |
| 20260905233429 | 27 | 170 | 8.0 | 12.9 | 0.00 | 0.00 | 0.00 | 70 | 1016.2 |
| 20260905233313 | 27 | 187 | 9.7 | 12.9 | 0.00 | 0.00 | 0.00 | 70 | 1016.3 |
| 20260905233201 | 27 | 163 | 9.7 | 14.5 | 0.00 | 0.00 | 0.00 | 70 | 1016.3 |
| 20260905233126 | 27 | 161 | 8.0 | 14.5 | 0.00 | 0.00 | 0.00 | 70 | 1016.2 |
| 20260905233010 | 27 | 155 | 9.7 | 14.5 | 0.00 | 0.00 | 0.00 | 70 | 1016.2 |
| 20260905232914 | 27 | 165 | 9.7 | 12.9 | 0.00 | 0.00 | 0.00 | 70 | 1016.3 |
| 20260905232759 | 27 | 171 | 6.4 | 14.5 | 0.00 | 0.00 | 0.00 | 70 | 1016.2 |
| 20260905232725 | 27 | 148 | 6.4 | 14.5 | 0.00 | 0.00 | 0.00 | 70 | 1016.2 |
| 20260905232628 | 27 | 143 | 8.0 | 19.3 | 0.00 | 0.00 | 0.00 | 70 | 1016.2 |
| 20260905232511 | 27 | 186 | 8.0 | 19.3 | 0.00 | 0.00 | 0.00 | 70 | 1016.2 |
| 20260905232359 | 27 | 150 | 6.4 | 19.3 | 0.00 | 0.00 | 0.00 | 70 | 1016.1 |
| 20260905232306 | 27 | 192 | 8.0 | 19.3 | 0.00 | 0.00 | 0.00 | 70 | 1016.1 |
| 20260905232228 | 27 | 142 | 8.0 | 19.3 | 0.00 | 0.00 | 0.00 | 70 | 1016.1 |
| 20260905232111 | 27 | 186 | 8.0 | 24.1 | 0.00 | 0.00 | 0.00 | 70 | 1016.1 |
| 20260905232016 | 27 | 162 | 8.0 | 24.1 | 0.00 | 0.00 | 0.00 | 70 | 1016.1 |
| 20260905231920 | 28 | 162 | 12.9 | 24.1 | 0.00 | 0.00 | 0.00 | 70 | 1016.0 |
| 20260905231824 | 28 | 165 | 14.5 | 24.1 | 0.00 | 0.00 | 0.00 | 69 | 1016.0 |
| 20260905231711 | 28 | 160 | 12.9 | 24.1 | 0.00 | 0.00 | 0.00 | 69 | 1016.0 |
| 20260905231616 | 28 | 180 | 12.9 | 24.1 | 0.00 | 0.00 | 0.00 | 69 | 1016.0 |
| 20260905231522 | 28 | 163 | 14.5 | 24.1 | 0.00 | 0.00 | 0.00 | 69 | 1016.0 |
| 20260905231404 | 28 | 196 | 14.5 | 24.1 | 0.00 | 0.00 | 0.00 | 69 | 1016.0 |
| 20260905231307 | 28 | 216 | 9.7 | 22.5 | 0.00 | 0.00 | 0.00 | 69 | 1016.0 |
| 20260905231212 | 28 | 167 | 6.4 | 20.9 | 0.00 | 0.00 | 0.00 | 69 | 1016.0 |
| 20260905231123 | 28 | 169 | 8.0 | 20.9 | 0.00 | 0.00 | 0.00 | 69 | 1016.0 |
| 20260905231001 | 28 | 196 | 11.3 | 20.9 | 0.00 | 0.00 | 0.00 | 69 | 1016.0 |
| 20260905230906 | 28 | 207 | 11.3 | 20.9 | 0.00 | 0.00 | 0.00 | 69 | 1016.0 |
| 20260905230830 | 28 | 177 | 12.9 | 20.9 | 0.00 | 0.00 | 0.00 | 69 | 1016.0 |
| 20260905230714 | 28 | 171 | 12.9 | 20.9 | 0.00 | 0.00 | 0.00 | 69 | 1015.9 |
| 20260905230600 | 28 | 219 | 14.5 | 22.5 | 0.00 | 0.00 | 0.00 | 69 | 1016.0 |
| 20260905230508 | 28 | 207 | 14.5 | 22.5 | 0.00 | 0.00 | 0.00 | 69 | 1016.0 |
| 20260905230414 | 28 | 192 | 12.9 | 22.5 | 0.00 | 0.00 | 0.00 | 69 | 1016.0 |
| 20260905230318 | 28 | 197 | 9.7 | 22.5 | 0.00 | 0.00 | 0.00 | 69 | 1015.9 |
| 20260905230221 | 28 | 194 | 9.7 | 22.5 | 0.00 | 0.00 | 0.00 | 69 | 1015.9 |
| 20260905230058 | 28 | 168 | 11.3 | 22.5 | 0.00 | 0.00 | 0.00 | 69 | 1015.8 |
| 20260905230002 | 28 | 174 | 9.7 | 22.5 | 0.00 | 0.00 | 0.00 | 69 | 1015.8 |
| 20260905225928 | 28 | 192 | 9.7 | 22.5 | 0.00 | 0.00 | 0.00 | 69 | 1015.8 |
| 20260905225815 | 28 | 192 | 14.5 | 22.5 | 0.00 | 0.00 | 0.00 | 68 | 1015.8 |
| 20260905225720 | 28 | 168 | 17.7 | 20.9 | 0.00 | 0.00 | 0.00 | 68 | 1015.7 |
| 20260905225604 | 28 | 202 | 16.1 | 20.9 | 0.00 | 0.00 | 0.00 | 68 | 1015.7 |
| 20260905225507 | 28 | 190 | 16.1 | 20.9 | 0.00 | 0.00 | 0.00 | 68 | 1015.8 |
| 20260905225411 | 28 | 205 | 14.5 | 24.1 | 0.00 | 0.00 | 0.00 | 68 | 1015.8 |
| 20260905225314 | 28 | 198 | 14.5 | 24.1 | 0.00 | 0.00 | 0.00 | 68 | 1015.7 |
| 20260905225159 | 28 | 201 | 12.9 | 24.1 | 0.00 | 0.00 | 0.00 | 68 | 1015.8 |
| 20260905225107 | 28 | 184 | 12.9 | 24.1 | 0.00 | 0.00 | 0.00 | 68 | 1015.7 |
| 20260905225011 | 28 | 186 | 12.9 | 24.1 | 0.00 | 0.00 | 0.00 | 68 | 1015.7 |
| 20260905224915 | 28 | 196 | 12.9 | 24.1 | 0.00 | 0.00 | 0.00 | 67 | 1015.7 |
| 20260905224800 | 28 | 195 | 12.9 | 24.1 | 0.00 | 0.00 | 0.00 | 68 | 1015.8 |
| 20260905224705 | 28 | 179 | 14.5 | 24.1 | 0.00 | 0.00 | 0.00 | 68 | 1015.8 |
| 20260905224629 | 28 | 205 | 14.5 | 24.1 | 0.00 | 0.00 | 0.00 | 68 | 1015.8 |
| 20260905224516 | 28 | 213 | 12.9 | 17.7 | 0.00 | 0.00 | 0.00 | 68 | 1015.8 |
| 20260905224421 | 28 | 161 | 12.9 | 17.7 | 0.00 | 0.00 | 0.00 | 68 | 1015.8 |
| 20260905224258 | 28 | 192 | 12.9 | 19.3 | 0.00 | 0.00 | 0.00 | 68 | 1015.8 |
| 20260905224204 | 28 | 170 | 12.9 | 22.5 | 0.00 | 0.00 | 0.00 | 68 | 1015.9 |
| 20260905224108 | 28 | 194 | 12.9 | 17.7 | 0.00 | 0.00 | 0.00 | 68 | 1015.9 |
| 20260905224032 | 28 | 141 | 12.9 | 24.1 | 0.00 | 0.00 | 0.00 | 68 | 1015.9 |
| 20260905223900 | 28 | 192 | 11.3 | 24.1 | 0.00 | 0.00 | 0.00 | 68 | 1015.9 |
| 20260905223804 | 28 | 136 | 11.3 | 24.1 | 0.00 | 0.00 | 0.00 | 68 | 1016.0 |
| 20260905223709 | 28 | 180 | 12.9 | 24.1 | 0.00 | 0.00 | 0.00 | 68 | 1016.0 |
| 20260905223615 | 28 | 188 | 11.3 | 24.1 | 0.00 | 0.00 | 0.00 | 68 | 1015.9 |
| 20260905223519 | 28 | 161 | 8.0 | 24.1 | 0.00 | 0.00 | 0.00 | 68 | 1015.9 |
| 20260905223444 | 28 | 154 | 9.7 | 24.1 | 0.00 | 0.00 | 0.00 | 68 | 1016.0 |
| 20260905223300 | 28 | 196 | 16.1 | 20.9 | 0.00 | 0.00 | 0.00 | 67 | 1016.1 |
| 20260905223208 | 28 | 144 | 14.5 | 24.1 | 0.00 | 0.00 | 0.00 | 67 | 1016.1 |
| 20260905223112 | 28 | 148 | 9.7 | 20.9 | 0.00 | 0.00 | 0.00 | 68 | 1016.1 |
| 20260905223037 | 28 | 157 | 9.7 | 20.9 | 0.00 | 0.00 | 0.00 | 67 | 1016.1 |
| 20260905222922 | 28 | 163 | 14.5 | 20.9 | 0.00 | 0.00 | 0.00 | 68 | 1016.1 |
| 20260905222824 | 28 | 196 | 14.5 | 20.9 | 0.00 | 0.00 | 0.00 | 68 | 1016.1 |
| 20260905222707 | 28 | 166 | 16.1 | 20.9 | 0.00 | 0.00 | 0.00 | 68 | 1016.1 |
| 20260905222610 | 28 | 202 | 14.5 | 20.9 | 0.00 | 0.00 | 0.00 | 68 | 1016.2 |
| 20260905222514 | 28 | 191 | 12.9 | 22.5 | 0.00 | 0.00 | 0.00 | 68 | 1016.2 |
| 20260905222419 | 28 | 166 | 11.3 | 22.5 | 0.00 | 0.00 | 0.00 | 67 | 1016.1 |
| 20260905222256 | 28 | 148 | 9.7 | 22.5 | 0.00 | 0.00 | 0.00 | 67 | 1016.2 |
| 20260905222202 | 28 | 138 | 6.4 | 22.5 | 0.00 | 0.00 | 0.00 | 68 | 1016.2 |
| 20260905222105 | 28 | 165 | 8.0 | 22.5 | 0.00 | 0.00 | 0.00 | 67 | 1016.2 |
| 20260905222010 | 28 | 187 | 9.7 | 22.5 | 0.00 | 0.00 | 0.00 | 67 | 1016.2 |
| 20260905221858 | 28 | 182 | 12.9 | 22.5 | 0.00 | 0.00 | 0.00 | 67 | 1016.2 |
| 20260905221823 | 28 | 140 | 14.5 | 22.5 | 0.00 | 0.00 | 0.00 | 67 | 1016.2 |
| 20260905221701 | 28 | 200 | 12.9 | 22.5 | 0.00 | 0.00 | 0.00 | 67 | 1016.3 |
| 20260905221624 | 28 | 190 | 9.7 | 17.7 | 0.00 | 0.00 | 0.00 | 67 | 1016.3 |
| 20260905221508 | 28 | 169 | 9.7 | 16.1 | 0.00 | 0.00 | 0.00 | 67 | 1016.3 |
| 20260905221412 | 28 | 143 | 11.3 | 16.1 | 0.00 | 0.00 | 0.00 | 67 | 1016.3 |
| 20260905221300 | 28 | 149 | 11.3 | 16.1 | 0.00 | 0.00 | 0.00 | 67 | 1016.4 |
| 20260905221206 | 28 | 152 | 11.3 | 16.1 | 0.00 | 0.00 | 0.00 | 67 | 1016.4 |
| 20260905221110 | 28 | 180 | 11.3 | 16.1 | 0.00 | 0.00 | 0.00 | 67 | 1016.4 |
| 20260905221034 | 28 | 148 | 11.3 | 19.3 | 0.00 | 0.00 | 0.00 | 67 | 1016.4 |
| 20260905220857 | 28 | 200 | 11.3 | 20.9 | 0.00 | 0.00 | 0.00 | 67 | 1016.4 |
| 20260905220823 | 28 | 172 | 11.3 | 20.9 | 0.00 | 0.00 | 0.00 | 67 | 1016.4 |
| 20260905220659 | 28 | 173 | 9.7 | 20.9 | 0.00 | 0.00 | 0.00 | 67 | 1016.4 |
| 20260905220609 | 28 | 186 | 11.3 | 20.9 | 0.00 | 0.00 | 0.00 | 66 | 1016.4 |
| 20260905220533 | 28 | 150 | 11.3 | 20.9 | 0.00 | 0.00 | 0.00 | 67 | 1016.4 |
| 20260905220436 | 28 | 164 | 11.3 | 20.9 | 0.00 | 0.00 | 0.00 | 66 | 1016.4 |
| 20260905220321 | 28 | 178 | 14.5 | 20.9 | 0.00 | 0.00 | 0.00 | 66 | 1016.3 |
| 20260905220158 | 28 | 142 | 12.9 | 20.9 | 0.00 | 0.00 | 0.00 | 66 | 1016.3 |
| 20260905220007 | 28 | 165 | 9.7 | 24.1 | 0.00 | 0.00 | 0.00 | 65 | 1016.2 |
| 20260905215916 | 28 | 173 | 8.0 | 24.1 | 0.00 | 0.00 | 0.00 | 67 | 1016.3 |
| 20260905215819 | 28 | 149 | 9.7 | 24.1 | 0.00 | 0.00 | 0.00 | 66 | 1016.3 |
| 20260905215744 | 28 | 146 | 11.3 | 24.1 | 0.00 | 0.00 | 0.00 | 66 | 1016.2 |
| 20260905215600 | 28 | 161 | 12.9 | 24.1 | 0.00 | 0.00 | 0.00 | 66 | 1016.3 |
| 20260905215504 | 28 | 165 | 16.1 | 24.1 | 0.00 | 0.00 | 0.00 | 66 | 1016.3 |
| 20260905215428 | 28 | 175 | 14.5 | 24.1 | 0.00 | 0.00 | 0.00 | 66 | 1016.3 |
| 20260905215312 | 28 | 153 | 9.7 | 24.1 | 0.00 | 0.00 | 0.00 | 68 | 1016.2 |
| 20260905215221 | 28 | 134 | 6.4 | 22.5 | 0.00 | 0.00 | 0.00 | 69 | 1016.2 |
| 20260905215058 | 28 | 149 | 9.7 | 22.5 | 0.00 | 0.00 | 0.00 | 68 | 1016.2 |
| 20260905215023 | 28 | 180 | 11.3 | 22.5 | 0.00 | 0.00 | 0.00 | 68 | 1016.2 |
| 20260905214901 | 28 | 155 | 11.3 | 22.5 | 0.00 | 0.00 | 0.00 | 68 | 1016.2 |
| 20260905214805 | 28 | 137 | 11.3 | 22.5 | 0.00 | 0.00 | 0.00 | 68 | 1016.2 |
| 20260905214709 | 28 | 156 | 12.9 | 22.5 | 0.00 | 0.00 | 0.00 | 67 | 1016.2 |
| 20260905214558 | 28 | 169 | 11.3 | 19.3 | 0.00 | 0.00 | 0.00 | 68 | 1016.2 |
| 20260905214503 | 28 | 126 | 11.3 | 19.3 | 0.00 | 0.00 | 0.00 | 68 | 1016.2 |
| 20260905214428 | 28 | 155 | 11.3 | 19.3 | 0.00 | 0.00 | 0.00 | 68 | 1016.1 |
| 20260905214310 | 28 | 165 | 11.3 | 19.3 | 0.00 | 0.00 | 0.00 | 68 | 1016.1 |
| 20260905214215 | 28 | 172 | 11.3 | 19.3 | 0.00 | 0.00 | 0.00 | 67 | 1016.1 |
| 20260905214059 | 28 | 155 | 14.5 | 19.3 | 0.00 | 0.00 | 0.00 | 67 | 1016.1 |
| 20260905214007 | 28 | 160 | 12.9 | 19.3 | 0.00 | 0.00 | 0.00 | 68 | 1016.2 |
| 20260905213911 | 28 | 187 | 11.3 | 19.3 | 0.00 | 0.00 | 0.00 | 69 | 1016.2 |
| 20260905213816 | 28 | 144 | 11.3 | 20.9 | 0.00 | 0.00 | 0.00 | 69 | 1016.1 |
| 20260905213720 | 28 | 169 | 9.7 | 16.1 | 0.00 | 0.00 | 0.00 | 69 | 1016.2 |
| 20260905213604 | 28 | 158 | 9.7 | 16.1 | 0.00 | 0.00 | 0.00 | 70 | 1016.3 |
| 20260905213509 | 28 | 155 | 11.3 | 22.5 | 0.00 | 0.00 | 0.00 | 69 | 1016.3 |
| 20260905213433 | 28 | 146 | 12.9 | 22.5 | 0.00 | 0.00 | 0.00 | 69 | 1016.2 |
| 20260905213301 | 28 | 165 | 11.3 | 22.5 | 0.00 | 0.00 | 0.00 | 70 | 1016.3 |
| 20260905213205 | 28 | 202 | 12.9 | 22.5 | 0.00 | 0.00 | 0.00 | 70 | 1016.3 |
| 20260905213110 | 28 | 164 | 12.9 | 22.5 | 0.00 | 0.00 | 0.00 | 70 | 1016.3 |
| 20260905213014 | 28 | 153 | 12.9 | 22.5 | 0.00 | 0.00 | 0.00 | 70 | 1016.2 |
| 20260905212859 | 28 | 139 | 14.5 | 22.5 | 0.00 | 0.00 | 0.00 | 70 | 1016.3 |
| 20260905212823 | 28 | 131 | 16.1 | 22.5 | 0.00 | 0.00 | 0.00 | 70 | 1016.3 |
| 20260905212727 | 28 | 151 | 14.5 | 22.5 | 0.00 | 0.00 | 0.00 | 70 | 1016.3 |
| 20260905212614 | 28 | 193 | 12.9 | 20.9 | 0.00 | 0.00 | 0.00 | 70 | 1016.3 |
| 20260905212459 | 28 | 152 | 9.7 | 24.1 | 0.00 | 0.00 | 0.00 | 70 | 1016.4 |
| 20260905212402 | 28 | 184 | 8.0 | 24.1 | 0.00 | 0.00 | 0.00 | 70 | 1016.4 |
| 20260905212306 | 28 | 142 | 11.3 | 24.1 | 0.00 | 0.00 | 0.00 | 70 | 1016.5 |
| 20260905212209 | 28 | 169 | 14.5 | 24.1 | 0.00 | 0.00 | 0.00 | 70 | 1016.5 |
| 20260905212114 | 28 | 176 | 14.5 | 24.1 | 0.00 | 0.00 | 0.00 | 69 | 1016.5 |
| 20260905212003 | 28 | 156 | 12.9 | 22.5 | 0.00 | 0.00 | 0.00 | 70 | 1016.6 |
| 20260905211928 | 28 | 171 | 14.5 | 20.9 | 0.00 | 0.00 | 0.00 | 70 | 1016.6 |
| 20260905211812 | 28 | 136 | 12.9 | 20.9 | 0.00 | 0.00 | 0.00 | 71 | 1016.5 |
| 20260905211657 | 28 | 192 | 12.9 | 20.9 | 0.00 | 0.00 | 0.00 | 70 | 1016.6 |
| 20260905211602 | 28 | 169 | 11.3 | 20.9 | 0.00 | 0.00 | 0.00 | 70 | 1016.7 |
| 20260905211527 | 28 | 194 | 12.9 | 20.9 | 0.00 | 0.00 | 0.00 | 71 | 1016.7 |
| 20260905211410 | 28 | 142 | 9.7 | 20.9 | 0.00 | 0.00 | 0.00 | 71 | 1016.7 |
| 20260905211259 | 28 | 134 | 8.0 | 17.7 | 0.00 | 0.00 | 0.00 | 71 | 1016.8 |
| 20260905211223 | 28 | 153 | 11.3 | 17.7 | 0.00 | 0.00 | 0.00 | 71 | 1016.8 |
| 20260905211100 | 28 | 173 | 12.9 | 17.7 | 0.00 | 0.00 | 0.00 | 71 | 1016.9 |
| 20260905211005 | 28 | 144 | 12.9 | 17.7 | 0.00 | 0.00 | 0.00 | 71 | 1017.0 |
| 20260905210909 | 28 | 165 | 11.3 | 17.7 | 0.00 | 0.00 | 0.00 | 71 | 1017.0 |
| 20260905210813 | 28 | 196 | 11.3 | 17.7 | 0.00 | 0.00 | 0.00 | 71 | 1017.0 |
| 20260905210702 | 28 | 175 | 12.9 | 17.7 | 0.00 | 0.00 | 0.00 | 70 | 1017.1 |
| 20260905210607 | 28 | 178 | 12.9 | 17.7 | 0.00 | 0.00 | 0.00 | 70 | 1017.1 |
| 20260905210512 | 28 | 146 | 11.3 | 17.7 | 0.00 | 0.00 | 0.00 | 70 | 1017.1 |
| 20260905210417 | 28 | 200 | 9.7 | 17.7 | 0.00 | 0.00 | 0.00 | 70 | 1017.1 |
| 20260905210321 | 28 | 159 | 9.7 | 17.7 | 0.00 | 0.00 | 0.00 | 71 | 1017.1 |
| 20260905210205 | 28 | 165 | 11.3 | 17.7 | 0.00 | 0.00 | 0.00 | 71 | 1017.1 |
| 20260905210109 | 28 | 153 | 9.7 | 14.5 | 0.00 | 0.00 | 0.00 | 71 | 1017.1 |
| 20260905205957 | 28 | 147 | 6.4 | 16.1 | 0.00 | 0.00 | 0.00 | 71 | 1017.2 |
| 20260905205923 | 28 | 197 | 6.4 | 16.1 | 0.00 | 0.00 | 0.00 | 71 | 1017.2 |
| 20260905205800 | 28 | 123 | 8.0 | 17.7 | 0.00 | 0.00 | 0.00 | 71 | 1017.1 |
| 20260905205704 | 28 | 186 | 8.0 | 17.7 | 0.00 | 0.00 | 0.00 | 71 | 1017.1 |
| 20260905205609 | 28 | 157 | 9.7 | 17.7 | 0.00 | 0.00 | 0.00 | 71 | 1017.1 |
| 20260905205459 | 28 | 138 | 8.0 | 17.7 | 0.00 | 0.00 | 0.00 | 70 | 1017.1 |
| 20260905205423 | 28 | 142 | 8.0 | 17.7 | 0.00 | 0.00 | 0.00 | 70 | 1017.1 |
| 20260905205300 | 28 | 175 | 11.3 | 17.7 | 0.00 | 0.00 | 0.00 | 70 | 1017.2 |
| 20260905205205 | 28 | 173 | 11.3 | 17.7 | 0.00 | 0.00 | 0.00 | 70 | 1017.2 |
| 20260905205109 | 28 | 153 | 11.3 | 19.3 | 0.00 | 0.00 | 0.00 | 70 | 1017.2 |
| 20260905205014 | 28 | 191 | 9.7 | 19.3 | 0.00 | 0.00 | 0.00 | 71 | 1017.1 |
| 20260905204920 | 28 | 135 | 8.0 | 17.7 | 0.00 | 0.00 | 0.00 | 70 | 1017.2 |
| 20260905204827 | 28 | 180 | 11.3 | 17.7 | 0.00 | 0.00 | 0.00 | 70 | 1017.1 |
| 20260905204728 | 28 | 189 | 12.9 | 17.7 | 0.00 | 0.00 | 0.00 | 70 | 1017.2 |
| 20260905204611 | 28 | 197 | 12.9 | 19.3 | 0.00 | 0.00 | 0.00 | 70 | 1017.2 |
| 20260905204516 | 28 | 188 | 9.7 | 19.3 | 0.00 | 0.00 | 0.00 | 71 | 1017.2 |
| 20260905204440 | 28 | 148 | 8.0 | 14.5 | 0.00 | 0.00 | 0.00 | 71 | 1017.2 |
| 20260905204257 | 28 | 161 | 9.7 | 16.1 | 0.00 | 0.00 | 0.00 | 71 | 1017.2 |
| 20260905204202 | 28 | 163 | 9.7 | 16.1 | 0.00 | 0.00 | 0.00 | 70 | 1017.2 |
| 20260905204110 | 28 | 165 | 8.0 | 16.1 | 0.00 | 0.00 | 0.00 | 70 | 1017.2 |
| 20260905204035 | 28 | 187 | 6.4 | 16.1 | 0.00 | 0.00 | 0.00 | 70 | 1017.2 |
| 20260905203917 | 28 | 178 | 6.4 | 16.1 | 0.00 | 0.00 | 0.00 | 71 | 1017.2 |
| 20260905203842 | 28 | 182 | 6.4 | 16.1 | 0.00 | 0.00 | 0.00 | 70 | 1017.2 |
| 20260905203658 | 28 | 186 | 11.3 | 16.1 | 0.00 | 0.00 | 0.00 | 69 | 1017.3 |
| 20260905203602 | 28 | 178 | 11.3 | 16.1 | 0.00 | 0.00 | 0.00 | 70 | 1017.3 |
| 20260905203507 | 28 | 188 | 11.3 | 16.1 | 0.00 | 0.00 | 0.00 | 70 | 1017.4 |
| 20260905203415 | 28 | 164 | 11.3 | 16.1 | 0.00 | 0.00 | 0.00 | 70 | 1017.4 |
| 20260905203320 | 28 | 185 | 9.7 | 16.1 | 0.00 | 0.00 | 0.00 | 70 | 1017.5 |
| 20260905203204 | 28 | 184 | 9.7 | 16.1 | 0.00 | 0.00 | 0.00 | 71 | 1017.5 |
| 20260905203129 | 28 | 183 | 11.3 | 16.1 | 0.00 | 0.00 | 0.00 | 71 | 1017.5 |
| 20260905203012 | 28 | 197 | 9.7 | 16.1 | 0.00 | 0.00 | 0.00 | 72 | 1017.5 |
| 20260905202857 | 27 | 187 | 6.4 | 11.3 | 0.00 | 0.00 | 0.00 | 71 | 1017.5 |
| 20260905202801 | 27 | 207 | 4.8 | 11.3 | 0.00 | 0.00 | 0.00 | 72 | 1017.6 |
| 20260905202709 | 27 | 142 | 4.8 | 12.9 | 0.00 | 0.00 | 0.00 | 72 | 1017.6 |
| 20260905202614 | 27 | 160 | 4.8 | 12.9 | 0.00 | 0.00 | 0.00 | 71 | 1017.6 |
| 20260905202518 | 27 | 136 | 6.4 | 12.9 | 0.00 | 0.00 | 0.00 | 72 | 1017.6 |
| 20260905202444 | 27 | 180 | 8.0 | 12.9 | 0.00 | 0.00 | 0.00 | 71 | 1017.6 |
| 20260905202300 | 27 | 163 | 8.0 | 12.9 | 0.00 | 0.00 | 0.00 | 71 | 1017.7 |
| 20260905202204 | 27 | 171 | 8.0 | 12.9 | 0.00 | 0.00 | 0.00 | 71 | 1017.7 |
| 20260905202113 | 27 | 171 | 8.0 | 12.9 | 0.00 | 0.00 | 0.00 | 71 | 1017.7 |
| 20260905202019 | 27 | 191 | 8.0 | 14.5 | 0.00 | 0.00 | 0.00 | 71 | 1017.8 |
| 20260905201856 | 27 | 190 | 8.0 | 14.5 | 0.00 | 0.00 | 0.00 | 72 | 1017.8 |
| 20260905201801 | 27 | 164 | 8.0 | 14.5 | 0.00 | 0.00 | 0.00 | 71 | 1017.8 |
| 20260905201706 | 27 | 177 | 6.4 | 14.5 | 0.00 | 0.00 | 0.00 | 72 | 1017.9 |
| 20260905201610 | 27 | 132 | 8.0 | 14.5 | 0.00 | 0.00 | 0.00 | 71 | 1017.9 |
| 20260905201459 | 27 | 190 | 8.0 | 14.5 | 0.00 | 0.00 | 0.00 | 72 | 1017.8 |
| 20260905201423 | 27 | 190 | 8.0 | 14.5 | 0.00 | 0.00 | 0.00 | 72 | 1017.8 |
| 20260905201300 | 27 | 190 | 11.3 | 14.5 | 0.00 | 0.00 | 0.00 | 71 | 1017.8 |
| 20260905201223 | 27 | 173 | 9.7 | 14.5 | 0.00 | 0.00 | 0.00 | 72 | 1017.8 |
| 20260905201101 | 27 | 217 | 6.4 | 9.7 | 0.00 | 0.00 | 0.00 | 72 | 1017.8 |
| 20260905201005 | 27 | 228 | 6.4 | 11.3 | 0.00 | 0.00 | 0.00 | 73 | 1017.8 |
| 20260905200914 | 27 | 218 | 6.4 | 11.3 | 0.00 | 0.00 | 0.00 | 72 | 1017.8 |
| 20260905200818 | 27 | 254 | 6.4 | 11.3 | 0.00 | 0.00 | 0.00 | 73 | 1017.9 |
| 20260905200722 | 27 | 255 | 4.8 | 11.3 | 0.00 | 0.00 | 0.00 | 73 | 1017.9 |
| 20260905200601 | 27 | 258 | 6.4 | 11.3 | 0.00 | 0.00 | 0.00 | 73 | 1018.0 |
| 20260905200505 | 27 | 257 | 8.0 | 11.3 | 0.00 | 0.00 | 0.00 | 73 | 1018.0 |
| 20260905200410 | 27 | 252 | 6.4 | 11.3 | 0.00 | 0.00 | 0.00 | 74 | 1018.0 |
| 20260905200259 | 27 | 262 | 4.8 | 11.3 | 0.00 | 0.00 | 0.00 | 74 | 1018.0 |
| 20260905200224 | 27 | 268 | 4.8 | 11.3 | 0.00 | 0.00 | 0.00 | 73 | 1018.2 |
| 20260905200129 | 27 | 217 | 4.8 | 11.3 | 0.00 | 0.00 | 0.00 | 73 | 1018.2 |
| 20260905200012 | 27 | 217 | 6.4 | 11.3 | 0.00 | 0.00 | 0.00 | 73 | 1018.1 |
| 20260905195857 | 27 | 221 | 8.0 | 11.3 | 0.00 | 0.00 | 0.00 | 74 | 1018.2 |
| 20260905195822 | 27 | 229 | 8.0 | 12.9 | 0.00 | 0.00 | 0.00 | 73 | 1018.2 |
| 20260905195700 | 27 | 223 | 8.0 | 12.9 | 0.00 | 0.00 | 0.00 | 73 | 1018.2 |
| 20260905195609 | 27 | 245 | 9.7 | 12.9 | 0.00 | 0.00 | 0.00 | 73 | 1018.2 |
| 20260905195533 | 27 | 223 | 6.4 | 12.9 | 0.00 | 0.00 | 0.00 | 74 | 1018.2 |
| 20260905195417 | 27 | 234 | 4.8 | 12.9 | 0.00 | 0.00 | 0.00 | 73 | 1018.1 |
| 20260905195301 | 27 | 234 | 6.4 | 12.9 | 0.00 | 0.00 | 0.00 | 73 | 1018.0 |
| 20260905195206 | 27 | 235 | 6.4 | 12.9 | 0.00 | 0.00 | 0.00 | 73 | 1018.2 |
| 20260905195111 | 27 | 198 | 4.8 | 12.9 | 0.00 | 0.00 | 0.00 | 73 | 1018.2 |
| 20260905195015 | 27 | 196 | 6.4 | 12.9 | 0.00 | 0.00 | 0.00 | 74 | 1018.1 |
| 20260905194924 | 27 | 197 | 8.0 | 14.5 | 0.00 | 0.00 | 0.00 | 75 | 1018.0 |
| 20260905194808 | 27 | 233 | 4.8 | 14.5 | 0.00 | 0.00 | 0.00 | 74 | 1018.0 |
| 20260905194712 | 27 | 232 | 6.4 | 14.5 | 0.00 | 0.00 | 0.00 | 74 | 1018.1 |
| 20260905194557 | 27 | 217 | 8.0 | 14.5 | 0.00 | 0.00 | 0.00 | 74 | 1018.1 |
| 20260905194503 | 27 | 219 | 6.4 | 14.5 | 0.00 | 0.00 | 0.00 | 74 | 1018.1 |
| 20260905194427 | 27 | 212 | 4.8 | 14.5 | 0.00 | 0.00 | 0.00 | 74 | 1018.1 |
| 20260905194310 | 27 | 250 | 8.0 | 14.5 | 0.00 | 0.00 | 0.00 | 73 | 1018.1 |
| 20260905194159 | 27 | 249 | 9.7 | 14.5 | 0.00 | 0.00 | 0.00 | 74 | 1018.2 |
| 20260905194123 | 27 | 233 | 9.7 | 12.9 | 0.00 | 0.00 | 0.00 | 74 | 1018.2 |
| 20260905194001 | 27 | 200 | 8.0 | 14.5 | 0.00 | 0.00 | 0.00 | 75 | 1018.2 |
| 20260905193905 | 27 | 236 | 9.7 | 14.5 | 0.00 | 0.00 | 0.00 | 74 | 1018.2 |
| 20260905193810 | 27 | 259 | 9.7 | 14.5 | 0.00 | 0.00 | 0.00 | 73 | 1018.2 |
| 20260905193714 | 27 | 267 | 9.7 | 14.5 | 0.00 | 0.00 | 0.00 | 74 | 1018.1 |
| 20260905193603 | 27 | 223 | 8.0 | 12.9 | 0.00 | 0.00 | 0.00 | 73 | 1018.2 |
| 20260905193508 | 27 | 219 | 8.0 | 12.9 | 0.00 | 0.00 | 0.00 | 74 | 1018.2 |
| 20260905193433 | 27 | 225 | 6.4 | 12.9 | 0.00 | 0.00 | 0.00 | 75 | 1018.2 |
| 20260905193315 | 27 | 296 | 6.4 | 11.3 | 0.00 | 0.00 | 0.00 | 75 | 1018.2 |
| 20260905193218 | 27 | 209 | 3.2 | 11.3 | 0.00 | 0.00 | 0.00 | 75 | 1018.3 |
| 20260905193122 | 27 | 215 | 1.6 | 11.3 | 0.00 | 0.00 | 0.00 | 75 | 1018.3 |
| 20260905193000 | 26 | 215 | 4.8 | 11.3 | 0.00 | 0.00 | 0.00 | 75 | 1018.3 |
| 20260905192909 | 26 | 215 | 6.4 | 11.3 | 0.00 | 0.00 | 0.00 | 75 | 1018.3 |
| 20260905192833 | 27 | 214 | 6.4 | 11.3 | 0.00 | 0.00 | 0.00 | 75 | 1018.3 |
| 20260905192657 | 27 | 211 | 6.4 | 11.3 | 0.00 | 0.00 | 0.00 | 75 | 1018.3 |
| 20260905192601 | 27 | 205 | 4.8 | 11.3 | 0.00 | 0.00 | 0.00 | 75 | 1018.3 |
| 20260905192507 | 27 | 192 | 4.8 | 11.3 | 0.00 | 0.00 | 0.00 | 75 | 1018.4 |
| 20260905192411 | 27 | 199 | 6.4 | 11.3 | 0.00 | 0.00 | 0.00 | 75 | 1018.4 |
| 20260905192320 | 27 | 198 | 6.4 | 11.3 | 0.00 | 0.00 | 0.00 | 75 | 1018.3 |
| 20260905192158 | 26 | 182 | 3.2 | 11.3 | 0.00 | 0.00 | 0.00 | 75 | 1018.4 |
| 20260905192103 | 26 | 179 | 3.2 | 11.3 | 0.00 | 0.00 | 0.00 | 75 | 1018.3 |
| 20260905192008 | 26 | 179 | 4.8 | 11.3 | 0.00 | 0.00 | 0.00 | 75 | 1018.3 |
| 20260905191933 | 26 | 179 | 8.0 | 11.3 | 0.00 | 0.00 | 0.00 | 75 | 1018.3 |
| 20260905191757 | 27 | 192 | 8.0 | 11.3 | 0.00 | 0.00 | 0.00 | 75 | 1018.3 |
| 20260905191705 | 26 | 205 | 6.4 | 12.9 | 0.00 | 0.00 | 0.00 | 75 | 1018.3 |
| 20260905191610 | 26 | 229 | 6.4 | 12.9 | 0.00 | 0.00 | 0.00 | 75 | 1018.3 |
| 20260905191514 | 26 | 234 | 8.0 | 12.9 | 0.00 | 0.00 | 0.00 | 76 | 1018.3 |
| 20260905191359 | 26 | 251 | 8.0 | 12.9 | 0.00 | 0.00 | 0.00 | 76 | 1018.3 |
| 20260905191302 | 26 | 228 | 6.4 | 11.3 | 0.00 | 0.00 | 0.00 | 76 | 1018.4 |
| 20260905191207 | 26 | 169 | 6.4 | 11.3 | 0.00 | 0.00 | 0.00 | 76 | 1018.4 |
| 20260905191116 | 26 | 196 | 6.4 | 11.3 | 0.00 | 0.00 | 0.00 | 76 | 1018.3 |
| 20260905191020 | 26 | 214 | 4.8 | 9.7 | 0.00 | 0.00 | 0.00 | 76 | 1018.3 |
| 20260905190857 | 26 | 190 | 6.4 | 11.3 | 0.00 | 0.00 | 0.00 | 77 | 1018.3 |
| 20260905190800 | 26 | 182 | 3.2 | 11.3 | 0.00 | 0.00 | 0.00 | 78 | 1018.3 |
| 20260905190705 | 26 | 218 | 1.6 | 14.5 | 0.00 | 0.00 | 0.00 | 77 | 1018.3 |
| 20260905190610 | 26 | 218 | 4.8 | 14.5 | 0.00 | 0.00 | 0.00 | 77 | 1018.3 |
| 20260905190459 | 26 | 218 | 4.8 | 14.5 | 0.00 | 0.00 | 0.00 | 76 | 1018.4 |
| 20260905190404 | 26 | 217 | 4.8 | 14.5 | 0.00 | 0.00 | 0.00 | 77 | 1018.3 |
| 20260905190310 | 26 | 216 | 6.4 | 14.5 | 0.00 | 0.00 | 0.00 | 77 | 1018.3 |
| 20260905190214 | 26 | 213 | 6.4 | 14.5 | 0.00 | 0.00 | 0.00 | 77 | 1018.3 |
| 20260905190100 | 26 | 211 | 8.0 | 14.5 | 0.00 | 0.00 | 0.00 | 77 | 1018.3 |
| 20260905190024 | 26 | 224 | 9.7 | 14.5 | 0.00 | 0.00 | 0.00 | 77 | 1018.3 |
| 20260905185911 | 26 | 204 | 8.0 | 14.5 | 0.00 | 0.00 | 0.00 | 78 | 1018.3 |
| 20260905185757 | 26 | 198 | 4.8 | 16.1 | 0.00 | 0.00 | 0.00 | 78 | 1018.3 |
| 20260905185721 | 26 | 254 | 4.8 | 16.1 | 0.00 | 0.00 | 0.00 | 78 | 1018.3 |
| 20260905185604 | 26 | 244 | 6.4 | 16.1 | 0.00 | 0.00 | 0.00 | 77 | 1018.3 |
| 20260905185509 | 26 | 244 | 8.0 | 16.1 | 0.00 | 0.00 | 0.00 | 77 | 1018.3 |
| 20260905185414 | 26 | 248 | 9.7 | 16.1 | 0.00 | 0.00 | 0.00 | 77 | 1018.3 |
| 20260905185305 | 26 | 250 | 11.3 | 16.1 | 0.00 | 0.00 | 0.00 | 77 | 1018.3 |
| 20260905185207 | 26 | 243 | 11.3 | 16.1 | 0.00 | 0.00 | 0.00 | 77 | 1018.3 |
| 20260905185112 | 26 | 208 | 11.3 | 16.1 | 0.00 | 0.00 | 0.00 | 77 | 1018.3 |
| 20260905184957 | 26 | 257 | 12.9 | 16.1 | 0.00 | 0.00 | 0.00 | 77 | 1018.4 |
| 20260905184902 | 26 | 250 | 12.9 | 16.1 | 0.00 | 0.00 | 0.00 | 78 | 1018.3 |
| 20260905184826 | 26 | 263 | 8.0 | 16.1 | 0.00 | 0.00 | 0.00 | 79 | 1018.3 |
| 20260905184710 | 26 | 254 | 4.8 | 12.9 | 0.00 | 0.00 | 0.00 | 81 | 1018.3 |
| 20260905184618 | 26 | 274 | 3.2 | 9.7 | 0.00 | 0.00 | 0.00 | 80 | 1018.3 |
| 20260905184543 | 25 | 96 | 3.2 | 9.7 | 0.00 | 0.00 | 0.00 | 79 | 1018.3 |
| 20260905184401 | 25 | 114 | 4.8 | 9.7 | 0.00 | 0.00 | 0.00 | 78 | 1018.3 |
| 20260905184305 | 25 | 119 | 3.2 | 12.9 | 0.00 | 0.00 | 0.00 | 78 | 1018.3 |
| 20260905184210 | 25 | 165 | 3.2 | 12.9 | 0.00 | 0.00 | 0.00 | 79 | 1018.3 |
| 20260905184003 | 25 | 166 | 4.8 | 12.9 | 0.00 | 0.00 | 0.00 | 79 | 1018.4 |
| 20260905183908 | 25 | 200 | 6.4 | 12.9 | 0.00 | 0.00 | 0.00 | 79 | 1018.4 |
| 20260905183813 | 25 | 200 | 8.0 | 12.9 | 0.00 | 0.00 | 0.00 | 79 | 1018.3 |
| 20260905183659 | 25 | 190 | 6.4 | 12.9 | 0.00 | 0.00 | 0.00 | 80 | 1018.4 |
| 20260905183604 | 25 | 202 | 6.4 | 12.9 | 0.00 | 0.00 | 0.00 | 79 | 1018.4 |
| 20260905183508 | 25 | 180 | 6.4 | 12.9 | 0.00 | 0.00 | 0.00 | 79 | 1018.4 |
| 20260905183357 | 25 | 175 | 4.8 | 11.3 | 0.00 | 0.00 | 0.00 | 79 | 1018.5 |
| 20260905183321 | 25 | 173 | 6.4 | 11.3 | 0.00 | 0.00 | 0.00 | 80 | 1018.5 |
| 20260905183225 | 25 | 172 | 6.4 | 11.3 | 0.00 | 0.00 | 0.00 | 80 | 1018.5 |
| 20260905183109 | 25 | 177 | 4.8 | 11.3 | 0.00 | 0.00 | 0.00 | 81 | 1018.5 |
| 20260905183014 | 25 | 175 | 6.4 | 12.9 | 0.00 | 0.00 | 0.00 | 80 | 1018.5 |
| 20260905182859 | 25 | 176 | 9.7 | 14.5 | 0.00 | 0.00 | 0.00 | 80 | 1018.5 |
| 20260905182808 | 25 | 184 | 9.7 | 14.5 | 0.00 | 0.00 | 0.00 | 81 | 1018.5 |
| 20260905182733 | 25 | 219 | 9.7 | 14.5 | 0.00 | 0.00 | 0.00 | 80 | 1018.5 |
| 20260905182556 | 25 | 215 | 8.0 | 14.5 | 0.00 | 0.00 | 0.00 | 80 | 1018.5 |
| 20260905182522 | 25 | 180 | 8.0 | 14.5 | 0.00 | 0.00 | 0.00 | 80 | 1018.6 |
| 20260905182405 | 25 | 188 | 8.0 | 14.5 | 0.00 | 0.00 | 0.00 | 80 | 1018.6 |
| 20260905182310 | 25 | 191 | 9.7 | 14.5 | 0.00 | 0.00 | 0.00 | 81 | 1018.6 |
| 20260905182215 | 25 | 182 | 8.0 | 14.5 | 0.00 | 0.00 | 0.00 | 81 | 1018.6 |
| 20260905182102 | 25 | 198 | 3.2 | 11.3 | 0.00 | 0.00 | 0.00 | 81 | 1018.5 |
| 20260905182007 | 25 | 200 | 4.8 | 11.3 | 0.00 | 0.00 | 0.00 | 81 | 1018.5 |
| 20260905181913 | 25 | 200 | 8.0 | 11.3 | 0.00 | 0.00 | 0.00 | 81 | 1018.6 |
| 20260905181817 | 25 | 211 | 4.8 | 11.3 | 0.00 | 0.00 | 0.00 | 82 | 1018.7 |
| 20260905181701 | 25 | 198 | 3.2 | 8.0 | 0.00 | 0.00 | 0.00 | 82 | 1018.6 |
| 20260905181606 | 25 | 197 | 1.6 | 8.0 | 0.00 | 0.00 | 0.00 | 82 | 1018.5 |
| 20260905181511 | 25 | 197 | 1.6 | 12.9 | 0.00 | 0.00 | 0.00 | 81 | 1018.5 |
| 20260905181400 | 25 | 197 | 1.6 | 12.9 | 0.00 | 0.00 | 0.00 | 81 | 1018.6 |
| 20260905181304 | 25 | 197 | 1.6 | 12.9 | 0.00 | 0.00 | 0.00 | 81 | 1018.6 |
| 20260905181209 | 25 | 197 | 1.6 | 17.7 | 0.00 | 0.00 | 0.00 | 81 | 1018.6 |
| 20260905181113 | 25 | 197 | 1.6 | 17.7 | 0.00 | 0.00 | 0.00 | 81 | 1018.6 |
| 20260905180959 | 25 | 197 | 3.2 | 17.7 | 0.00 | 0.00 | 0.00 | 81 | 1018.7 |
| 20260905180907 | 25 | 197 | 3.2 | 17.7 | 0.00 | 0.00 | 0.00 | 81 | 1018.7 |
| 20260905180812 | 25 | 197 | 6.4 | 17.7 | 0.00 | 0.00 | 0.00 | 81 | 1018.7 |
| 20260905180715 | 25 | 197 | 8.0 | 17.7 | 0.00 | 0.00 | 0.00 | 81 | 1018.7 |
| 20260905180601 | 25 | 167 | 9.7 | 17.7 | 0.00 | 0.00 | 0.00 | 82 | 1018.7 |
| 20260905180505 | 25 | 173 | 11.3 | 17.7 | 0.00 | 0.00 | 0.00 | 82 | 1018.7 |
| 20260905180410 | 25 | 167 | 11.3 | 17.7 | 0.00 | 0.00 | 0.00 | 82 | 1018.7 |
| 20260905180258 | 25 | 196 | 11.3 | 14.5 | 0.00 | 0.00 | 0.00 | 83 | 1018.7 |
| 20260905180222 | 25 | 178 | 9.7 | 14.5 | 0.00 | 0.00 | 0.00 | 83 | 1018.7 |
| 20260905180100 | 25 | 186 | 8.0 | 12.9 | 0.00 | 0.00 | 0.00 | 83 | 1018.8 |
| 20260905180023 | 24 | 188 | 4.8 | 11.3 | 0.00 | 0.00 | 0.00 | 83 | 1018.8 |
| 20260905175900 | 24 | 211 | 4.8 | 11.3 | 0.00 | 0.00 | 0.00 | 83 | 1018.8 |
| 20260905175806 | 24 | 211 | 8.0 | 11.3 | 0.00 | 0.00 | 0.00 | 83 | 1018.8 |
| 20260905175710 | 24 | 201 | 8.0 | 11.3 | 0.00 | 0.00 | 0.00 | 83 | 1018.8 |
| 20260905175618 | 24 | 240 | 6.4 | 12.9 | 0.00 | 0.00 | 0.00 | 84 | 1018.8 |
| 20260905175522 | 24 | 236 | 6.4 | 12.9 | 0.00 | 0.00 | 0.00 | 84 | 1018.8 |
| 20260905175406 | 24 | 196 | 4.8 | 12.9 | 0.00 | 0.00 | 0.00 | 84 | 1018.8 |
| 20260905175311 | 24 | 161 | 3.2 | 12.9 | 0.00 | 0.00 | 0.00 | 84 | 1018.8 |
| 20260905175216 | 24 | 161 | 1.6 | 12.9 | 0.00 | 0.00 | 0.00 | 84 | 1018.8 |
| 20260905175101 | 24 | 180 | 3.2 | 12.9 | 0.00 | 0.00 | 0.00 | 84 | 1018.8 |
| 20260905175009 | 24 | 180 | 6.4 | 12.9 | 0.00 | 0.00 | 0.00 | 84 | 1018.8 |
| 20260905174934 | 24 | 180 | 8.0 | 12.9 | 0.00 | 0.00 | 0.00 | 85 | 1018.8 |
| 20260905174818 | 24 | 196 | 8.0 | 12.9 | 0.00 | 0.00 | 0.00 | 85 | 1018.8 |
| 20260905174721 | 24 | 202 | 6.4 | 14.5 | 0.00 | 0.00 | 0.00 | 85 | 1018.8 |
| 20260905174603 | 24 | 209 | 6.4 | 14.5 | 0.00 | 0.00 | 0.00 | 85 | 1018.8 |
| 20260905174508 | 23 | 155 | 4.8 | 14.5 | 0.00 | 0.00 | 0.00 | 85 | 1018.8 |
| 20260905174413 | 23 | 155 | 6.4 | 14.5 | 0.00 | 0.00 | 0.00 | 85 | 1018.8 |
| 20260905174318 | 23 | 146 | 8.0 | 14.5 | 0.00 | 0.00 | 0.00 | 85 | 1018.8 |
| 20260905174206 | 23 | 154 | 8.0 | 19.3 | 0.00 | 0.00 | 0.00 | 85 | 1018.8 |